[[{"header":{"parameterUnit":"m.s-1","parameterCategory":1,"la1":30.6,"la2":28.766,"lo1":-90.7593,"lo2":-88.6598,"dy":0.0162,"dx":0.0183,"nx":116,"ny":114,"refTime":"2023-05-03T00:00:00:Z","depth":0,"parameterNumber":2,"parameterNumberName":"U-component_of_WINDS"},"data":[0.0,0.0,0.0,0.0,0.0,0.0,0.0,0.0,0.0,0.0,0.0,0.0,0.0,0.0,0.0,0.0,0.0,0.0,0.0,0.0,0.0,0.0,0.0,0.0,0.0,0.0,0.0,0.0,0.0,0.0,0.0,0.0,0.0,0.0,0.0,0.0,0.0,0.0,0.0,0.0,0.0,0.0,0.0,0.0,0.0,0.0,0.0,0.0,0.0,0.0,0.0,0.0,0.0,0.0,0.0,0.0,0.0,0.0,0.0,0.0,0.0,0.0,0.0,0.0,0.0,0.0,0.0,0.0,0.0,0.0,0.0,0.0,0.0,0.0,0.0,0.0,0.0,0.0,0.0,0.0,0.0,0.0,0.0,0.0,0.0,0.0,0.0,0.0,0.0,0.0,0.0,0.0,0.0,0.0,0.0,0.0,0.0,0.0,0.0,0.0,0.0,0.0,0.0,0.0,0.0,0.0,0.0,0.0,0.0,0.0,0.0,0.0,0.0,0.0,0.0,0.0,0.0,0.0,0.0,0.0,0.0,0.0,0.0,0.0,0.0,0.0,0.0,0.0,0.0,0.0,0.0,0.0,0.0,0.0,0.0,0.0,0.0,0.0,0.0,0.0,0.0,0.0,0.0,0.0,0.0,0.0,0.0,0.0,0.0,0.0,0.0,0.0,0.0,0.0,0.0,0.0,0.0,0.0,0.0,0.0,0.0,0.0,0.0,0.0,0.0,0.0,0.0,0.0,0.0,0.0,0.0,0.0,0.0,0.0,0.0,0.0,0.0,0.0,0.0,0.0,0.0,0.0,0.0,0.0,0.0,0.0,0.0,0.0,0.0,0.0,0.0,0.0,0.0,0.0,0.0,0.0,0.0,0.0,0.0,0.0,0.0,0.0,0.0,0.0,0.0,0.0,0.0,0.0,0.0,0.0,0.0,0.0,0.0,0.0,0.0,0.0,0.0,0.0,0.0,0.0,0.0,0.0,0.0,0.0,0.0,0.0,0.0,0.0,0.0,0.0,0.0,0.0,0.0,0.0,0.0,0.0,0.0,0.0,0.0,0.0,0.0,0.0,0.0,0.0,0.0,0.0,0.0,0.0,0.0,0.0,0.0,0.0,0.0,0.0,0.0,0.0,0.0,0.0,0.0,0.0,0.0,0.0,0.0,0.0,0.0,0.0,0.0,0.0,0.0,0.0,0.0,0.0,0.0,0.0,0.0,0.0,0.0,0.0,0.0,0.0,0.0,0.0,0.0,0.0,0.0,0.0,0.0,0.0,0.0,0.0,0.0,0.0,0.0,0.0,0.0,0.0,0.0,0.0,0.0,0.0,0.0,0.0,0.0,0.0,0.0,0.0,0.0,0.0,0.0,0.0,0.0,0.0,0.0,0.0,0.0,0.0,0.0,0.0,0.0,0.0,0.0,0.0,0.0,0.0,0.0,0.0,0.0,0.0,0.0,0.0,0.0,0.0,0.0,0.0,0.0,0.0,0.0,0.0,0.0,0.0,0.0,0.0,0.0,0.0,0.0,0.0,0.0,0.0,0.0,0.0,0.0,0.0,0.0,0.0,0.0,0.0,0.0,0.0,0.0,0.0,0.0,0.0,0.0,0.0,0.0,0.0,0.0,0.0,0.0,0.0,0.0,0.0,0.0,0.0,0.0,0.0,0.0,0.0,0.0,0.0,0.0,0.0,0.0,0.0,0.0,0.0,0.0,0.0,0.0,0.0,0.0,0.0,0.0,0.0,0.0,0.0,0.0,0.0,0.0,0.0,0.0,0.0,0.0,0.0,0.0,0.0,0.0,0.0,0.0,0.0,0.0,0.0,0.0,0.0,0.0,0.0,0.0,0.0,0.0,0.0,0.0,0.0,0.0,0.0,0.0,0.0,0.0,0.0,0.0,0.0,0.0,0.0,0.0,0.0,0.0,0.0,0.0,0.0,0.0,0.0,0.0,0.0,0.0,0.0,0.0,0.0,0.0,0.0,0.0,0.0,0.0,0.0,0.0,0.0,0.0,0.0,0.0,0.0,0.0,0.0,0.0,0.0,0.0,0.0,0.0,0.0,0.0,0.0,0.0,0.0,0.0,0.0,0.0,0.0,0.0,0.0,0.0,0.0,0.0,0.0,0.0,0.0,0.0,0.0,0.0,0.0,0.0,0.0,0.0,0.0,0.0,0.0,0.0,0.0,0.0,0.0,0.0,0.0,0.0,0.0,0.0,0.0,0.0,0.0,0.0,0.0,0.0,0.0,0.0,0.0,0.0,0.0,0.0,0.0,0.0,0.0,0.0,0.0,0.0,0.0,0.0,0.0,0.0,0.0,0.0,0.0,0.0,0.0,0.0,0.0,0.0,0.0,0.0,0.0,0.0,0.0,0.0,0.0,0.0,0.0,0.0,0.0,0.0,0.0,0.0,0.0,0.0,0.0,0.0,0.0,0.0,0.0,0.0,0.0,0.0,0.0,0.0,0.0,0.0,0.0,0.0,0.0,0.0,0.0,0.0,0.0,0.0,0.0,0.0,0.0,0.0,0.0,0.0,0.0,0.0,0.0,0.0,0.0,0.0,0.0,0.0,0.0,0.0,0.0,0.0,0.0,0.0,0.0,0.0,0.0,0.0,0.0,0.0,0.0,0.0,0.0,0.0,0.0,0.0,0.0,0.0,0.0,0.0,0.0,0.0,0.0,0.0,0.0,0.0,0.0,0.0,0.0,0.0,0.0,0.0,0.0,0.0,0.0,0.0,0.0,0.0,0.0,0.0,0.0,0.0,0.0,0.0,0.0,0.0,0.0,0.0,0.0,0.0,0.0,0.0,0.0,0.0,0.0,0.0,0.0,0.0,0.0,0.0,0.0,0.0,0.0,0.0,0.0,0.0,0.0,0.0,0.0,0.0,0.0,0.0,0.0,0.0,0.0,0.0,0.0,0.0,0.0,0.0,0.0,0.0,0.0,0.0,0.0,0.0,0.0,0.0,0.0,0.0,0.0,0.0,0.0,0.0,0.0,0.0,0.0,0.0,0.0,0.0,0.0,0.0,0.0,0.0,0.0,0.0,0.0,0.0,0.0,0.0,0.0,0.0,0.0,0.0,0.0,0.0,0.0,0.0,0.0,0.0,0.0,0.0,0.0,0.0,0.0,0.0,0.0,0.0,0.0,0.0,0.0,0.0,0.0,0.0,0.0,0.0,0.0,0.0,0.0,0.0,0.0,0.0,0.0,0.0,0.0,0.0,0.0,0.0,0.0,0.0,0.0,0.0,0.0,0.0,0.0,0.0,0.0,0.0,0.0,0.0,0.0,0.0,0.0,0.0,0.0,0.0,0.0,0.0,0.0,0.0,0.0,0.0,0.0,0.0,0.0,0.0,0.0,0.0,0.0,0.0,0.0,0.0,0.0,0.0,0.0,0.0,0.0,0.0,0.0,0.0,0.0,0.0,0.0,0.0,0.0,0.0,0.0,0.0,0.0,0.0,0.0,0.0,0.0,0.0,0.0,0.0,0.0,0.0,0.0,0.0,0.0,0.0,0.0,0.0,0.0,0.0,0.0,0.0,0.0,0.0,0.0,0.0,0.0,0.0,0.0,0.0,0.0,0.0,0.0,0.0,0.0,0.0,0.0,0.0,0.0,0.0,0.0,0.0,0.0,0.0,0.0,0.0,0.0,0.0,0.0,0.0,0.0,0.0,0.0,0.0,0.0,0.0,0.0,0.0,0.0,0.0,0.0,0.0,0.0,0.0,0.0,0.0,0.0,0.0,0.0,0.0,0.0,0.0,0.0,0.0,0.0,0.0,0.0,0.0,0.0,0.0,0.0,0.0,0.0,0.0,0.0,0.0,0.0,0.0,0.0,0.0,0.0,0.0,0.0,0.0,0.0,0.0,0.0,0.0,0.0,0.0,0.0,0.0,0.0,0.0,0.0,0.0,0.0,0.0,0.0,0.0,0.0,0.0,0.0,0.0,0.0,0.0,0.0,0.0,0.0,0.0,0.0,0.0,0.0,0.0,0.0,0.0,0.0,0.0,0.0,0.0,0.0,0.0,0.0,0.0,0.0,0.0,0.0,0.0,0.0,0.0,0.0,0.0,0.0,0.0,0.0,0.0,0.0,0.0,0.0,0.0,0.0,0.0,0.0,0.0,0.0,0.0,0.0,0.0,0.0,0.0,0.0,0.0,0.0,0.0,0.0,0.0,0.0,0.0,0.0,0.0,0.0,0.0,0.0,0.0,0.0,0.0,0.0,0.0,0.0,0.0,0.0,0.0,0.0,0.0,0.0,0.0,0.0,0.0,0.0,0.0,0.0,0.0,0.0,0.0,0.0,0.0,0.0,0.0,0.0,0.0,0.0,0.0,0.0,0.0,0.0,0.0,0.0,0.0,0.0,0.0,0.0,0.0,0.0,0.0,0.0,0.0,0.0,0.0,0.0,0.0,0.0,0.0,0.0,0.0,0.0,0.0,0.0,0.0,0.0,0.0,0.0,0.0,0.0,0.0,0.0,0.0,0.0,0.0,0.0,0.0,0.0,0.0,0.0,0.0,0.0,0.0,0.0,0.0,0.0,0.0,0.0,0.0,0.0,0.0,0.0,0.0,0.0,0.0,0.0,0.0,0.0,0.0,0.0,0.0,0.0,0.0,0.0,0.0,0.0,0.0,0.0,0.0,0.0,0.0,0.0,0.0,0.0,0.0,0.0,0.0,0.0,0.0,0.0,0.0,0.0,0.0,0.0,0.0,0.0,0.0,0.0,0.0,0.0,0.0,0.0,0.0,0.0,0.0,0.0,0.0,0.0,0.0,0.0,0.0,0.0,0.0,0.0,0.0,0.0,0.0,0.0,0.0,0.0,0.0,0.0,0.0,0.0,0.0,0.0,0.0,0.0,0.0,0.0,0.0,0.0,0.0,0.0,0.0,0.0,0.0,0.0,0.0,0.0,0.0,0.0,0.0,0.0,0.0,0.0,0.0,0.0,0.0,0.0,0.0,0.0,0.0,0.0,0.0,0.0,0.0,0.0,0.0,0.0,0.0,0.0,0.0,0.0,0.0,0.0,0.0,0.0,0.0,0.0,0.0,0.0,0.0,0.0,0.0,0.0,0.0,0.0,0.0,0.0,0.0,0.0,0.0,0.0,0.0,0.0,0.0,0.0,0.0,0.0,0.0,0.0,0.0,0.0,0.0,0.0,0.0,0.0,0.0,0.0,0.0,0.0,0.0,0.0,0.0,0.0,0.0,0.0,0.0,0.0,0.0,0.0,0.0,0.0,0.0,0.0,0.0,0.0,0.0,0.0,0.0,0.0,0.0,0.0,0.0,0.0,0.0,0.0,0.0,0.0,0.0,0.0,0.0,0.0,0.0,0.0,0.0,0.0,0.0,0.0,0.0,0.0,0.0,0.0,0.0,0.0,0.0,0.0,0.0,0.0,0.0,0.0,0.0,0.0,0.0,0.0,0.0,0.0,0.0,0.0,0.0,0.0,0.0,0.0,0.0,0.0,0.0,0.0,0.0,0.0,0.0,0.0,0.0,0.0,0.0,0.0,0.0,0.0,0.0,0.0,0.0,0.0,0.0,0.0,0.0,0.0,0.0,0.0,0.0,0.0,0.0,0.0,0.0,0.0,0.0,0.0,0.0,0.0,0.0,0.0,0.0,0.0,0.0,0.0,0.0,0.0,0.0,0.0,0.0,0.0,0.0,0.0,0.0,0.0,0.0,0.0,0.0,0.0,0.0,0.0,0.0,0.0,0.0,0.0,0.0,0.0,0.0,0.0,0.0,0.0,0.0,0.0,0.0,0.0,0.0,0.0,0.0,0.0,0.0,0.0,0.0,0.0,0.0,0.0,0.0,0.0,0.0,0.0,0.0,0.0,0.0,0.0,0.0,0.0,0.0,0.0,0.0,0.0,0.0,0.0,0.0,0.0,0.0,0.0,0.0,0.0,0.0,0.0,0.0,0.0,0.0,0.0,0.0,0.0,0.0,0.0,0.0,0.0,0.0,0.0,0.0,0.0,0.0,0.0,0.0,0.0,0.0,0.0,0.0,0.0,0.0,0.0,0.0,0.0,0.0,0.0,0.0,0.0,0.0,0.0,0.0,0.0,0.0,0.0,0.0,0.0,0.0,0.0,-0.0827,0.0,0.0,0.0,0.0,0.0,0.0,0.0,0.0,0.0,0.0,0.0,0.0,0.0,0.0,0.0,0.0,0.0,0.0,0.0,0.0,0.0,0.0,0.0,0.0,0.0,0.0,0.0,0.0,0.0,0.0,0.0,0.0,0.0,0.0,0.0,0.0,0.0,0.0,0.0,0.0,0.0,0.0,0.0,0.0,0.0,0.0,0.0,0.0,0.0,0.0,0.0,0.0,0.0,0.0,0.0,0.0,0.0,0.0,0.0,0.0,0.0,0.0,0.0,0.0,0.0,0.0,0.0,0.0,0.0,0.0,0.0,0.0,0.0,0.0,0.0,0.0,0.0,0.0,0.0,0.0,0.0,0.0,0.0,0.0,0.0,0.0,0.0,0.0,0.0,0.0,0.0,0.0,0.0,0.0,0.0,0.0,0.0,0.0,0.0,0.0,0.0,0.0,0.0,0.0,0.0,0.0,0.0,0.0,0.0,0.0,0.0,0.0,0.0,0.0,0.0,0.0,-0.2256,0.0,0.0,0.0,0.0,0.0,0.0,0.0,0.0,0.0,0.0,0.0,0.0,0.0,0.0,0.0,0.0,0.0,0.0,0.0,0.0,0.0,0.0,0.0,0.0,0.0,0.0,0.0,0.0,0.0,0.0,0.0,0.0,0.0,0.0,0.0,0.0,0.0,0.0,0.0,0.0,0.0,0.0,0.0,0.0,0.0,0.0,0.0,0.0,0.0,0.0,0.0,0.0,0.0,0.0,0.0,0.0,0.0,0.0,0.0,0.0,0.0,0.0,0.0,0.0,0.0,0.0,0.0,0.0,0.0,0.0,0.0,0.0,0.0,0.0,0.0,0.0,0.0,0.0,0.0,0.0,0.0,0.0,0.0,0.0,0.0,0.0,0.0,0.0,0.0,0.0,0.0,0.0,0.0,0.0,0.0,0.0,0.0,0.0,0.0,0.0,0.0,0.0,0.0,0.0,0.0,0.0,0.0,0.0,-0.347,-0.4615,-0.5911,-0.5119,-0.4683,-0.4505,-0.4009,-0.4064,-0.4412,0.0,0.0,0.0,0.0,0.0,0.0,0.0,0.0,0.0,0.0,0.0,0.0,0.0,0.0,0.0,0.0,0.0,0.0,0.0,0.0,0.0,0.0,0.0,0.0,0.0,0.0,0.0,0.0,0.0,0.0,0.0,0.0,0.0,0.0,0.0,0.0,0.0,0.0,0.0,2.2598,2.2569,2.2652,2.2827,0.0,0.0,0.0,0.0,0.0,0.0,0.0,0.0,0.0,0.0,0.0,0.0,0.0,0.0,0.0,0.0,0.0,0.0,0.0,0.0,0.0,0.0,0.0,0.0,0.0,0.0,0.0,0.0,0.0,0.0,0.0,0.0,0.0,0.0,0.0,0.0,0.0,0.0,0.0,0.0,0.0,0.0,0.0,0.0,0.4681,0.2159,0.0,0.0,0.0,0.0,0.0,0.0,0.0,0.0,0.0,0.0,0.0,0.0,0.0,-0.4014,-0.4492,-0.5137,-0.5443,-0.5428,-0.5594,-0.5764,-0.598,-0.5996,-0.594,-0.5952,-0.586,0.0,-0.3878,-0.3329,0.0,0.0,0.0,0.0,0.0,0.0,0.0,0.0,0.0,0.0,0.0,0.0,0.0,0.0,0.0,0.0,0.0,0.0,0.0,0.0,0.0,0.0,0.0,0.0,0.0,0.0,0.0,0.0,0.0,0.0,0.0,0.0,0.0,0.0,0.0,0.0,2.0897,2.1607,2.2424,2.2592,2.2709,2.2802,2.2901,2.2608,2.2029,2.1675,0.0,0.0,0.0,0.0,0.0,0.0,0.0,0.0,0.0,0.0,0.0,0.0,0.0,0.0,0.0,0.0,0.0,0.0,0.0,0.0,0.0,0.0,0.0,0.0,0.0,0.0,0.0,0.0,0.0,0.0,0.0,0.0,0.0,0.0,0.0,0.0,0.0,0.0,0.0,0.8232,0.0475,-0.6325,-0.2993,-0.0484,0.0,0.0,0.0,0.0,0.0,0.0,0.0,0.0,0.0,-0.5922,-0.707,-0.767,-0.7719,-0.8273,-0.8523,-0.8443,-0.7895,-0.7684,-0.7796,-0.7139,-0.6851,-0.6894,-0.6657,-0.6154,-0.5443,-0.4728,-0.4991,-0.5802,0.0,0.0,0.0,0.0,-0.4923,-0.4422,0.0,0.0,0.0,0.0,0.0,0.0,0.0,0.0,0.0,0.0,0.0,0.0,0.0,0.0,0.0,0.0,0.0,0.0,0.0,0.0,0.0,0.0,0.0,0.0,0.0,0.0,0.0,0.0,2.2089,2.2607,2.271,2.3188,2.3408,2.3473,2.3537,2.2601,2.092,2.0554,2.0392,0.0,0.0,0.0,0.0,0.0,0.0,0.0,0.0,0.0,0.0,0.0,0.0,0.0,0.0,0.0,0.0,0.0,0.0,0.0,0.0,0.0,0.0,0.0,0.0,0.0,0.0,0.0,0.0,0.0,0.0,0.0,0.0,0.0,0.0,0.0,0.0,0.0,0.0,0.2734,-0.404,-1.2044,-0.9249,-0.7139,0.0,0.0,0.0,0.0,0.0,0.0,-0.9481,-0.9577,-0.9535,-0.9364,-1.0075,-1.0438,-1.0301,-1.0771,-1.0947,-1.0947,-1.0164,-0.982,-0.9866,-0.8851,-0.8334,-0.8159,-0.7805,-0.7572,-0.7314,-0.6121,-0.6078,-0.6706,-0.581,-0.5512,-0.5579,-0.5823,-0.5621,-0.5358,0.0,0.0,0.0,0.0,0.0,0.0,0.0,0.0,0.0,0.0,0.0,0.0,0.0,0.0,0.0,0.0,0.0,0.0,0.0,0.0,0.0,0.0,0.0,0.0,0.0,0.0,0.0,2.1936,2.2812,0.0,2.3845,2.4629,2.5098,2.5271,2.533,2.4368,2.2571,2.1053,2.0366,2.0234,0.0,0.0,0.0,0.0,0.0,0.0,0.0,0.0,0.0,0.0,0.0,0.0,0.0,0.0,0.0,0.0,0.0,0.0,0.0,0.0,0.0,0.0,0.0,0.0,0.0,0.0,0.0,0.0,0.0,0.0,0.0,0.0,0.0,0.0,0.0,0.0,0.0,0.0,0.0,-1.2341,-0.9762,0.0,0.0,0.0,0.0,-1.2107,-1.2242,-1.1964,-1.1417,-1.2301,-1.245,-1.149,-1.1808,-1.2149,-1.2549,-1.2494,-1.2488,-1.2488,-1.2214,-1.1981,-1.1756,-1.1562,-1.095,-1.0056,-1.0041,-0.9688,-0.8906,-0.6812,-0.608,-0.6203,-0.6037,-0.6038,-0.6198,-0.6458,-0.6382,-0.616,0.0,0.0,0.0,0.0,0.0,0.0,0.0,0.0,0.0,0.0,0.0,0.0,0.0,0.0,0.0,0.0,0.0,0.0,0.0,0.0,0.0,0.0,0.0,0.0,0.0,0.0,0.0,0.0,0.0,0.0,0.0,0.0,0.0,0.0,0.0,0.0,2.3698,2.255,2.1405,2.0288,1.949,1.9676,0.0,0.0,0.0,0.0,0.0,0.0,0.0,0.0,0.0,0.0,0.0,0.0,0.0,0.0,0.0,0.0,0.0,0.0,0.0,0.0,0.0,0.0,0.0,0.0,0.0,0.0,0.0,0.0,0.0,0.0,0.0,0.0,0.0,0.0,0.0,0.0,0.0,-1.415,-1.2644,0.0,-1.3908,-1.2595,-1.222,-1.3585,-1.331,-1.3081,-1.3152,-1.3861,-1.4052,-1.3595,-1.4039,-1.4185,-1.3939,-1.3927,-1.3897,-1.3888,-1.3448,-1.3203,-1.3127,-1.2699,-1.2166,-1.1532,-1.1472,-1.1088,-1.0434,-0.9642,-0.877,-0.7862,-0.7579,-0.7286,-0.7086,-0.7666,-0.7652,-0.7387,0.0,0.0,0.0,0.0,0.0,0.0,0.0,0.0,0.0,0.0,0.0,0.0,0.0,0.0,0.0,0.0,0.0,0.0,0.0,0.0,0.0,0.0,0.0,0.0,0.0,0.0,0.0,0.0,0.0,0.0,0.0,0.0,0.0,0.0,0.0,0.0,0.0,0.0,0.0,2.0764,1.9934,2.0108,2.0778,0.0,0.0,0.0,0.0,0.0,0.0,0.0,0.0,0.0,0.0,0.0,0.0,0.0,0.0,0.0,0.0,0.0,0.0,0.0,0.0,0.0,0.0,0.0,0.0,0.0,0.0,0.0,0.0,0.0,0.0,0.0,0.0,0.0,0.0,0.0,-1.4041,-1.5543,-1.4972,-1.4897,-1.6077,-1.5517,-1.5179,-1.5294,-1.5109,-1.5121,-1.5276,-1.5591,-1.555,-1.5042,-1.5676,-1.5754,-1.5172,-1.5324,-1.5406,-1.5395,-1.484,-1.4527,-1.4444,-1.4,-1.3439,-1.2881,-1.2723,-1.2226,-1.1557,-1.1557,-1.0839,-0.9619,-0.9114,-0.8727,-0.8448,-0.8733,-0.8643,-0.8453,0.0,0.0,0.0,0.0,0.0,0.0,0.0,0.0,0.0,0.0,0.0,0.0,0.0,0.0,0.0,0.0,0.0,0.0,0.0,0.0,0.0,0.0,0.0,0.0,0.0,0.0,0.0,0.0,0.0,0.0,0.0,0.0,0.0,0.0,0.0,0.0,0.0,0.0,0.0,0.0,0.0,2.1026,2.1745,0.0,0.0,0.0,0.0,0.0,0.0,0.0,0.0,0.0,0.0,0.0,0.0,0.0,0.0,0.0,0.0,0.0,0.0,0.0,0.0,0.0,0.0,0.0,0.0,0.0,0.0,0.0,0.0,0.0,0.0,0.0,0.0,0.0,-1.1132,-1.4163,-1.6467,-1.6511,-1.6554,-1.6803,-1.7287,-1.7365,-1.7447,-1.7619,-1.8122,-1.8226,-1.7773,-1.7642,-1.7046,-1.5804,-1.6645,-1.6839,-1.6233,-1.6791,-1.7007,-1.7057,-1.6485,-1.6043,-1.5787,-1.5501,-1.4899,-1.4077,-1.3917,-1.3296,-1.2384,-1.2375,-1.2039,-1.1384,-1.0568,-1.021,-1.0167,-0.951,-0.9309,-0.9413,0.0,0.0,0.0,0.0,0.0,0.0,0.0,0.0,0.0,0.0,0.0,0.0,0.0,0.0,0.0,0.0,0.0,0.0,0.0,0.0,0.0,0.0,0.0,0.0,0.0,0.0,0.0,0.0,0.0,0.0,0.0,0.0,0.0,0.0,0.0,0.0,0.0,0.0,0.0,0.0,0.0,0.0,2.2633,0.0,0.0,0.0,0.0,0.0,0.0,0.0,0.0,0.0,0.0,0.0,0.0,0.0,0.0,0.0,0.0,0.0,0.0,0.0,0.0,0.0,0.0,0.0,0.0,0.0,0.0,0.0,0.0,0.0,0.0,0.0,0.0,-1.6065,-1.515,-1.6467,-1.772,-1.8426,-1.8865,-1.9031,-1.8789,-1.8772,-1.8631,-1.8357,-1.8464,-1.8508,-1.8354,-1.9079,-1.889,-1.755,-1.8475,-1.8497,-1.7296,-1.742,-1.7767,-1.8218,-1.8078,-1.7776,-1.7448,-1.7381,-1.6546,-1.5212,-1.5212,-1.4787,-1.4093,-1.4208,-1.3836,-1.3051,-1.1622,-1.1023,-1.0889,-1.0618,-1.0261,-1.0064,0.0,0.0,0.0,0.0,0.0,0.0,0.0,0.0,0.0,0.0,0.0,0.0,0.0,0.0,0.0,0.0,0.0,0.0,0.0,0.0,0.0,0.0,0.0,2.2452,0.0,0.0,0.0,0.0,0.0,0.0,0.0,0.0,0.0,0.0,0.0,0.0,0.0,0.0,0.0,0.0,0.0,0.0,2.3998,2.2662,2.2933,2.3947,2.3077,2.3569,2.4549,2.4194,0.0,0.0,0.0,0.0,0.0,0.0,0.0,0.0,0.0,0.0,0.0,0.0,0.0,0.0,0.0,0.0,0.0,0.0,0.0,0.0,0.0,0.0,0.0,0.0,-1.7769,-1.9293,-1.9948,-2.0215,-2.0498,-2.0826,-2.1312,-2.1556,-2.1248,-2.1199,-2.094,-2.0456,-2.042,-2.0384,-2.0213,-2.0759,-2.062,-1.9545,-2.0403,-2.0245,-1.8982,-1.9116,-1.9291,-1.9425,-1.9224,-1.9048,-1.8778,-1.8475,-1.8002,0.0,-1.6877,-1.6358,-1.5903,-1.5722,-1.5102,0.0,0.0,0.0,0.0,0.0,-1.0981,-1.0685,0.0,0.0,0.0,0.0,0.0,0.0,0.0,0.0,0.0,0.0,0.0,0.0,0.0,0.0,0.0,0.0,0.0,0.0,0.0,0.0,0.0,0.0,2.2327,2.3132,0.0,0.0,0.0,0.0,0.0,0.0,0.0,0.0,0.0,0.0,0.0,0.0,0.0,0.0,0.0,0.0,0.0,0.0,2.5522,2.3792,2.4133,2.5416,2.4406,2.4641,2.541,2.5371,0.0,0.0,0.0,0.0,0.0,0.0,0.0,0.0,0.0,0.0,0.0,0.0,0.0,0.0,0.0,0.0,0.0,0.0,0.0,0.0,0.0,0.0,0.0,0.0,-1.9407,-2.1942,-2.481,-2.4834,-2.4222,-2.3525,-2.382,-2.4059,-2.4046,-2.4007,-2.3737,-2.3214,-2.3203,-2.3045,-2.2612,0.0,0.0,0.0,0.0,-2.2077,-2.1,-2.133,-2.1267,-2.0804,-2.0366,-2.0158,-2.004,-1.9355,-1.931,-1.9726,-1.8605,-1.7942,-1.7623,-1.6983,-1.6074,-1.4869,-1.3672,-1.302,-1.2603,-1.1954,-1.1545,-1.1361,0.0,0.0,0.0,0.0,0.0,0.0,0.0,0.0,0.0,0.0,0.0,0.0,0.0,0.0,0.0,0.0,0.0,0.0,0.0,0.0,2.0028,2.248,2.2239,2.3108,0.0,0.0,0.0,0.0,0.0,0.0,0.0,0.0,0.0,0.0,0.0,0.0,0.0,0.0,0.0,0.0,0.0,0.0,2.6274,2.5129,2.539,2.6135,2.4397,2.4762,2.5925,2.5286,2.5547,2.6095,2.5964,0.0,0.0,0.0,0.0,0.0,0.0,0.0,0.0,0.0,0.0,0.0,0.0,0.0,0.0,0.0,0.0,0.0,0.0,0.0,0.0,-2.1389,-2.343,-2.5491,-2.7565,-2.8402,-2.8132,-2.6294,-2.5772,-2.5439,-2.5047,-2.5404,-2.5193,-2.4147,-2.4436,-2.4402,-2.3772,-2.4217,0.0,-2.3268,-2.3828,-2.3652,-2.2566,-2.2659,-2.2803,-2.3125,0.0,0.0,-2.1813,-2.1176,-2.0464,-1.9807,-1.9528,-1.9424,-1.9263,-1.8566,-1.7438,-1.5949,-1.4387,-1.3858,-1.3932,-1.3085,-1.2629,-1.2447,0.0,0.0,0.0,0.0,0.0,0.0,0.0,0.0,0.0,0.0,0.0,0.0,0.0,0.0,0.0,0.0,0.0,0.0,0.0,2.0233,2.1119,2.308,2.354,2.4468,0.0,0.0,0.0,0.0,0.0,0.0,0.0,0.0,0.0,0.0,0.0,0.0,0.0,0.0,0.0,0.0,0.0,0.0,2.7687,2.6725,2.6416,2.6365,2.5399,2.5241,2.547,2.5218,2.5665,2.6154,2.5318,2.533,2.5469,0.0,0.0,0.0,0.0,0.0,0.0,0.0,0.0,0.0,0.0,0.0,0.0,0.0,0.0,-1.9768,0.0,0.0,-2.3455,-2.4994,-2.6637,-2.8307,-2.9988,-3.0386,-3.0008,-2.8556,-2.8236,-2.8024,-2.776,-2.7874,-2.7413,-2.619,-2.63,-2.5976,-2.5022,-2.5511,-2.5556,-2.4921,-2.5614,-2.5441,-2.4384,-2.455,-2.4628,-2.4693,-2.4417,-2.4142,-2.3804,-2.3132,-2.2469,-2.1874,-2.1211,-2.0831,-2.05,-1.9652,-1.8522,-1.7213,-1.6149,-1.5279,-1.4526,-1.3939,-1.3516,-1.3212,0.0,0.0,0.0,0.0,0.0,0.0,0.0,0.0,0.0,0.0,0.0,0.0,0.0,0.0,0.0,0.0,0.0,0.0,0.0,2.1601,2.238,2.355,2.4818,2.5716,2.6129,0.0,0.0,0.0,0.0,0.0,0.0,0.0,0.0,0.0,0.0,0.0,0.0,0.0,0.0,0.0,0.0,0.0,2.896,2.8198,2.7402,2.6593,2.6046,2.5291,2.4586,2.5054,2.536,2.5375,2.4498,2.4857,2.537,2.4115,2.3416,0.0,0.0,0.0,0.0,0.0,0.0,0.0,0.0,0.0,-2.2716,-2.2683,-2.3832,-2.4952,-2.5398,-2.6505,-2.7555,-2.8233,-2.932,-3.0528,-3.2007,-3.1743,-3.1232,-3.07,-3.0395,-3.0302,-3.0424,-3.0335,-2.9784,-2.8613,-2.8608,-2.8052,-2.6625,-2.7116,-2.7208,-2.681,-2.7392,-2.7352,-2.6465,-2.6752,-2.6634,-2.6154,-2.605,-2.5806,-2.5525,-2.4924,-2.4519,-2.4305,-2.3195,-2.2359,-2.1644,-2.0724,-1.9678,-1.871,-1.8272,-1.7093,-1.5571,-1.4867,-1.4363,-1.4051,0.0,0.0,0.0,0.0,0.0,0.0,0.0,0.0,0.0,0.0,0.0,0.0,0.0,0.0,0.0,0.0,0.0,0.0,0.0,2.1752,2.2357,2.4549,2.4804,2.5324,2.6263,0.0,0.0,0.0,0.0,0.0,0.0,0.0,0.0,0.0,0.0,0.0,0.0,0.0,0.0,0.0,0.0,0.0,2.9168,2.9062,2.8443,2.7316,2.4812,2.3757,2.3685,2.4559,2.3909,2.3098,2.5043,2.4846,2.3979,2.4501,0.0,2.3445,2.4228,1.5319,0.3206,-0.755,-1.6493,-2.3211,0.0,0.0,-2.6162,-2.6508,-2.7396,-2.8184,-2.8222,-2.8839,-2.9689,-3.0969,-3.1348,-3.2053,-3.3411,-3.3239,-3.2955,-3.2863,-3.1397,-3.0591,-3.1213,-3.1665,-3.1554,-3.0705,-3.1657,-3.1366,-2.9354,-2.9686,-2.9726,-2.9231,-2.9293,-2.9223,-2.8882,-2.9088,-2.8825,-2.8085,-2.7562,-2.7066,-2.6492,-2.597,-2.5709,-2.5657,-2.5128,-2.4141,-2.2778,-2.2383,-2.1474,-2.0389,-1.9936,-1.932,-1.8422,-1.6074,-1.531,-1.5388,0.0,0.0,0.0,0.0,0.0,0.0,0.0,0.0,0.0,0.0,0.0,0.0,0.0,0.0,0.0,0.0,0.0,0.0,2.1594,2.1474,2.2383,2.4816,2.5412,2.5926,2.6458,2.6499,2.6967,0.0,0.0,0.0,0.0,0.0,0.0,0.0,0.0,0.0,0.0,0.0,0.0,0.0,0.0,0.0,2.8457,2.8008,2.6331,2.4279,2.4946,2.4257,0.0,0.0,2.3367,2.3395,2.3004,2.3431,2.3734,2.1991,2.0168,0.0,1.2316,0.3192,0.0,0.0,-2.0462,-2.6791,-2.7981,-2.8929,-2.9686,-3.0101,-3.1199,-3.183,-3.1048,-3.1469,-3.1945,0.0,-3.2594,-3.3306,-3.4379,-3.4089,-3.3802,-3.3712,-3.2431,-3.1674,-3.1951,-3.239,-3.237,-3.1634,-3.1917,-3.1602,-3.0388,-3.0458,-3.0355,-2.9907,-3.0144,-3.01,-2.9754,-2.9754,-2.9621,-2.9369,-2.8784,-2.8372,-2.7961,-2.7405,-2.6892,-2.6358,-2.5829,-2.5099,-2.4115,-2.4022,-2.2967,-2.1486,-2.1326,-2.064,-1.954,-1.7611,-1.6618,-1.6168,0.0,0.0,0.0,0.0,0.0,0.0,0.0,0.0,0.0,0.0,0.0,0.0,0.0,0.0,0.0,0.0,0.0,0.0,0.0,2.0885,2.1953,2.3983,2.5122,0.0,2.5909,2.6371,2.6795,2.721,0.0,0.0,0.0,0.0,0.0,0.0,0.0,0.0,0.0,0.0,0.0,0.0,0.0,0.0,2.6909,2.5887,2.3817,2.1787,2.4243,2.3479,0.0,0.0,2.2361,2.256,2.1626,2.1418,2.0857,1.7562,1.3962,0.9139,0.0372,0.0,0.0,-1.9061,-2.4626,-2.9659,-3.0656,-3.2025,-3.3123,-3.3243,-3.4092,-3.4443,-3.3272,-3.3161,-3.322,-3.3027,-3.364,-3.4388,-3.5385,-3.5071,-3.4732,-3.4659,-3.3443,-3.2664,-3.285,-3.3176,-3.3199,-3.2824,-3.2791,-3.2419,-3.1548,-3.1626,-3.1414,-3.0866,-3.1132,-3.1003,-3.0586,-3.0599,-3.0505,-3.0414,-2.9982,-2.9618,-2.9281,-2.8705,-2.7999,-2.7091,-2.667,-2.6094,-2.5494,-2.5494,-2.4378,-2.2749,-2.2749,-2.194,-2.0641,-1.9447,-1.838,-1.7388,0.0,0.0,0.0,0.0,0.0,0.0,0.0,0.0,0.0,0.0,0.0,0.0,0.0,0.0,0.0,0.0,0.0,0.0,0.0,1.9953,2.0804,2.1675,2.3279,2.4168,2.4187,2.5774,2.6237,2.5475,2.8079,0.0,0.0,0.0,0.0,0.0,0.0,0.0,0.0,0.0,0.0,0.0,0.0,0.0,2.4316,2.2606,2.1617,2.1191,2.189,0.0,0.0,0.0,2.0456,1.9243,2.2046,1.8914,0.0,1.1042,0.5468,-0.1323,0.0,0.0,-2.6548,-2.7883,-3.0244,-3.2608,-3.4168,-3.5654,-3.6446,-3.5834,-3.5644,-3.5324,-3.458,-3.3356,-3.2865,-3.4112,-3.4585,-3.5227,-3.6638,-3.6453,-3.6136,-3.6157,-3.4356,-3.3451,0.0,-3.414,-3.4378,-3.4865,-3.5329,-3.5021,-3.3688,-3.3964,-3.3739,-3.2635,-3.2662,-3.239,-3.1836,-3.2042,-3.1829,-3.126,-3.1246,-3.0934,-3.0351,-2.9726,-2.8931,-2.8052,-2.8039,-2.7498,-2.6621,-2.6621,-2.5753,-2.441,-2.441,-2.3577,-2.2237,-2.1764,-2.0701,-1.9383,0.0,0.0,0.0,0.0,0.0,0.0,0.0,0.0,0.0,0.0,0.0,0.0,0.0,0.0,0.0,0.0,0.0,0.0,0.0,1.8496,1.9297,2.067,2.1867,2.2784,2.3364,2.4447,2.5161,2.5467,2.6961,2.7513,0.0,0.0,0.0,0.0,0.0,0.0,0.0,0.0,0.0,0.0,0.0,0.0,2.3247,2.1803,1.9238,1.6525,0.0,0.0,0.0,0.0,1.4954,1.2653,1.1232,0.0,0.0,0.075,-0.4987,-1.1069,-1.6576,0.0,-2.9122,-3.1526,-3.389,-3.6036,-3.7574,-3.8009,-3.7723,-3.649,-3.5138,-3.3465,-3.1249,-3.0896,-3.1368,-3.2793,-3.4014,-3.5482,-3.7371,-3.723,-3.669,-3.6071,-3.5565,0.0,0.0,0.0,0.0,-3.5095,-3.5183,-3.4984,-3.4515,-3.4143,-3.3782,-3.3451,-3.3451,-3.3311,-3.3185,-3.3255,-3.3143,-3.2946,-3.2208,-3.1694,-3.1415,-3.0887,-3.0391,-3.0051,-3.0051,-2.9212,-2.7837,-2.7837,-2.6881,-2.5338,-2.5338,-2.4555,-2.3443,-2.3257,-2.247,-2.1295,0.0,0.0,0.0,0.0,0.0,0.0,0.0,0.0,0.0,0.0,0.0,0.0,0.0,0.0,0.0,0.0,0.0,0.0,0.0,0.0,1.8277,1.9366,2.0837,2.189,2.2442,2.3305,2.4012,2.4575,2.5156,2.5444,0.0,0.0,0.0,0.0,0.0,0.0,0.0,0.0,0.0,0.0,0.0,0.0,2.1327,2.0054,1.6938,0.0,0.0,0.0,0.0,0.0,0.0,0.6406,0.2221,-0.2224,-0.6626,-1.034,-1.4917,-1.9754,-2.4301,-2.8655,-3.2557,-3.5261,-3.7216,-3.8798,-3.9807,-3.9147,-3.7818,-3.611,-3.3882,-3.1476,-2.9015,-2.8793,-2.9494,-3.121,-3.261,-3.448,-3.7172,-3.7278,-3.7083,-3.7003,-3.6982,0.0,0.0,0.0,0.0,-3.5523,-3.5593,-3.5642,-3.5642,-3.5215,-3.4932,-3.4743,-3.4443,-3.4192,-3.3988,-3.3851,-3.3796,-3.3782,-3.3055,-3.2532,-3.2319,-3.1938,-3.1664,-3.134,-3.134,-3.0551,-2.9198,-2.9198,-2.814,-2.6489,-2.6301,-2.5379,-2.4289,-2.4054,-2.3455,-2.2494,0.0,0.0,0.0,0.0,0.0,0.0,0.0,0.0,0.0,0.0,0.0,0.0,0.0,0.0,0.0,0.0,0.0,0.0,0.0,0.0,0.0,1.7667,1.9959,2.1269,2.1308,2.2218,2.2711,2.2769,2.2851,2.2884,2.2948,0.0,0.0,0.0,0.0,0.0,0.0,0.0,0.0,0.0,0.0,0.0,1.877,1.7154,0.0,0.0,0.0,0.0,0.0,0.0,0.0,0.0,0.0,-1.3374,-2.127,-2.1512,-2.3874,-2.7266,-3.1218,-3.4287,-3.697,-3.9174,-4.0255,-4.0788,-4.0775,-3.9054,-3.6858,-3.4658,-3.1915,-2.9434,0.0,0.0,-2.7463,-2.9716,-3.0857,-3.2706,-3.6373,-3.6982,-3.7516,0.0,0.0,0.0,0.0,0.0,0.0,-3.6428,0.0,-3.7056,-3.7086,-3.7201,-3.6975,-3.6454,-3.5627,-3.4942,-3.438,-3.4056,-3.3865,-3.3865,-3.3865,-3.355,-3.3044,-3.2978,-3.27,-3.2112,-3.2112,-3.1561,-3.0644,-3.0644,-2.9483,-2.7691,-2.7173,-2.6107,-2.4845,-2.4254,-2.3715,-2.3092,0.0,0.0,0.0,0.0,0.0,0.0,0.0,0.0,0.0,0.0,0.0,0.0,0.0,0.0,0.0,0.0,0.0,0.0,0.0,0.0,0.0,0.0,0.0,0.0,0.0,0.0,0.0,0.0,0.0,2.1327,2.1818,0.0,0.0,0.0,0.0,0.0,0.0,0.0,0.0,0.0,0.0,0.0,1.8974,0.0,0.0,0.0,0.0,0.0,0.0,0.0,0.0,0.0,0.0,-2.1131,-2.4725,-2.6273,-2.8555,-3.1199,-3.41,-3.7048,-3.9698,-4.1232,-4.174,-4.1576,-4.0393,-3.802,-3.522,-3.2371,-2.9501,-2.7021,0.0,0.0,0.0,-3.0823,-3.3042,0.0,-3.8807,-3.9716,0.0,-3.9817,0.0,-4.0782,-3.9605,-3.9576,0.0,0.0,-3.7695,-3.7384,-3.7903,-3.7852,-3.7476,-3.6844,-3.6698,-3.6235,-3.535,-3.5184,-3.5082,-3.5082,-3.4624,-3.4537,-3.483,-3.4376,-3.409,-3.3888,-3.3888,-3.2937,-3.1464,-3.12,-3.0136,-2.8592,-2.7851,-2.6909,-2.5948,-2.538,-2.4845,-2.4267,0.0,0.0,0.0,0.0,0.0,0.0,0.0,0.0,0.0,0.0,0.0,0.0,0.0,0.0,0.0,0.0,0.0,0.0,0.0,0.0,0.0,0.0,0.0,0.0,0.0,0.0,0.0,0.0,0.0,0.0,0.0,0.0,0.0,0.0,0.0,0.0,0.0,0.0,0.0,0.0,0.0,0.0,0.0,0.0,0.0,0.0,0.0,0.0,0.0,0.0,0.0,-2.1319,-2.4262,-2.6208,-2.79,-3.0469,0.0,-3.482,-3.743,-3.9896,-4.192,-4.2656,-4.2304,-4.1258,-3.9276,-3.6346,-3.3123,-2.9972,-2.7344,0.0,0.0,0.0,0.0,0.0,0.0,0.0,-3.8125,-3.9563,-4.0324,0.0,-4.188,0.0,-4.0923,-4.1107,-4.1048,0.0,-3.9058,-3.8407,-3.8806,-3.8821,-3.8514,-3.7874,-3.7566,-3.7011,-3.6148,-3.5861,-3.5733,-3.5797,-3.5249,-3.5198,-3.5504,-3.5133,-3.499,-3.4921,0.0,-3.3969,-3.2306,-3.2105,-3.1118,-2.9594,-2.8789,-2.7924,-2.7133,-2.6427,-2.5703,-2.4912,0.0,0.0,0.0,0.0,0.0,0.0,0.0,0.0,0.0,0.0,0.0,0.0,0.0,0.0,0.0,0.0,0.0,0.0,0.0,0.0,0.0,0.0,0.0,0.0,0.0,0.0,0.0,0.0,0.0,0.0,0.0,0.0,0.0,0.0,0.0,0.0,0.0,0.0,0.0,0.0,0.0,0.0,0.0,0.0,0.0,0.0,0.0,0.0,0.0,0.0,-2.5048,-2.6305,-2.8272,-2.966,-3.1193,-3.4255,-3.6272,-3.8081,-4.0588,-4.2359,-4.3495,-4.3351,-4.2047,-4.012,-3.7569,-3.4254,-3.0812,-2.7695,0.0,-2.4076,-2.3448,0.0,-2.5171,-2.8253,0.0,-3.2032,-3.6554,-3.8393,-3.98,-4.1187,-4.2743,-4.3199,-4.1966,-4.2418,-4.2492,-4.1797,-4.0625,-3.9833,-3.9766,-3.9931,-3.9773,-3.9027,-3.8214,-3.7405,-3.6785,-3.6336,-3.6211,-3.6258,-3.5797,-3.5554,-3.5554,-3.5504,-3.5504,-3.5504,0.0,0.0,-3.3217,-3.3051,-3.2129,-3.0684,-2.9713,-2.8914,-2.8195,-2.7304,-2.6438,-2.5512,0.0,0.0,0.0,0.0,0.0,0.0,0.0,0.0,0.0,0.0,0.4502,0.0,0.0,0.0,0.0,0.0,0.0,0.0,0.0,0.0,0.0,0.0,0.0,0.0,0.0,0.0,0.0,0.0,0.0,0.0,0.0,0.0,0.0,0.0,0.0,0.0,0.0,0.0,0.0,0.0,0.0,0.0,0.0,0.0,0.0,0.0,0.0,0.0,0.0,0.0,-2.6838,-2.8675,-3.0375,-3.2873,-3.553,-3.7436,-3.914,-4.0643,-4.1757,-4.2815,-4.3401,-4.2705,-4.0845,-3.8357,-3.5174,-3.1902,0.0,0.0,0.0,-2.418,-2.4052,-2.4861,0.0,-3.057,0.0,0.0,0.0,0.0,-4.1136,0.0,0.0,0.0,0.0,0.0,0.0,0.0,0.0,-4.1709,-4.1154,-4.1367,-4.0749,-3.9266,-3.8419,-3.7654,-3.7134,-3.686,-3.6784,-3.6784,-3.6321,-3.6085,-3.6085,-3.5683,-3.5504,-3.5504,-3.5504,0.0,-3.42,-3.3306,-3.2503,-3.1584,-2.993,-2.9101,-2.8724,-2.7931,-2.7433,-2.7012,0.0,0.0,0.0,0.0,0.0,0.0,0.0,0.0,0.0,0.0,-0.4697,-0.3764,0.0,0.0,0.0,0.0,0.0,0.0,0.0,0.0,0.0,0.0,0.0,0.0,0.0,0.0,0.0,0.0,0.0,0.0,0.0,0.0,0.0,0.0,0.0,0.0,0.0,0.0,0.0,0.0,0.0,0.0,0.0,0.0,0.0,0.0,0.0,0.0,0.0,0.0,-2.7028,-2.8796,-3.1256,-3.3678,-3.613,-3.881,-4.0308,-4.1448,-4.302,-4.3633,-4.3651,-4.2939,-4.0234,-3.7013,-3.4232,0.0,0.0,0.0,0.0,-2.4303,-2.4209,0.0,0.0,0.0,0.0,0.0,0.0,0.0,0.0,0.0,0.0,0.0,0.0,0.0,0.0,0.0,0.0,-4.2944,-4.1501,-4.0688,-4.01,-3.9752,-3.8901,-3.822,-3.7743,-3.772,-3.7584,-3.7298,-3.6799,-3.6554,-3.6554,-3.6321,-3.6085,-3.5846,-3.5846,0.0,-3.4442,-3.4003,-3.3149,-3.2153,-3.1087,-3.0373,-2.9827,-2.9058,-2.8495,-2.8011,0.0,0.0,0.0,0.0,0.0,0.0,0.0,-0.3096,-0.6198,-0.9882,-1.2196,-1.1161,-0.4989,-0.3264,0.0,0.0,0.0,0.0,0.0,0.0,0.0,0.0,0.0,0.0,0.0,0.0,0.0,0.0,0.0,0.0,0.0,0.0,0.0,0.0,0.0,0.0,0.0,0.0,0.0,0.0,0.0,0.0,0.0,0.0,0.0,0.0,0.0,0.0,0.0,0.0,-2.6635,-2.7856,-3.0722,-3.3224,-3.5698,-3.871,-4.0428,-4.1711,-4.3707,-4.4205,-4.398,-4.316,-3.9765,-3.6021,-3.3691,-2.9795,0.0,0.0,-2.4526,-2.4495,-2.4247,0.0,0.0,0.0,0.0,0.0,0.0,0.0,0.0,0.0,0.0,0.0,0.0,0.0,0.0,0.0,0.0,0.0,-4.1987,-4.0409,-3.973,-4.0252,-3.9445,-3.8713,-3.818,-3.8403,-3.8285,-3.7817,-3.7298,-3.7103,-3.7103,-3.6966,-3.6723,-3.6305,-3.6258,0.0,0.0,-3.4595,-3.3784,-3.2661,-3.233,-3.1735,-3.0951,-3.0378,-2.9757,-2.899,0.0,0.0,0.0,0.0,0.0,0.0,0.0,-0.8748,-1.1251,-1.4626,-1.5701,-1.5871,-1.5143,-1.3887,0.0,0.0,0.0,0.0,0.0,0.0,0.0,0.0,0.0,0.0,0.0,0.0,0.0,0.0,0.0,0.0,0.0,0.0,0.0,0.0,0.0,0.0,0.0,0.0,0.0,0.0,0.0,0.0,0.0,0.0,0.0,0.0,0.0,0.0,0.0,0.0,0.0,-2.621,-2.7956,-3.1712,-3.5659,-3.6714,0.0,0.0,-4.3152,-4.4014,-4.4228,-4.2618,-3.9112,-3.5414,-3.2902,0.0,0.0,-2.4731,-2.4639,-2.4654,-2.4266,-2.4376,0.0,0.0,0.0,0.0,0.0,0.0,0.0,0.0,0.0,0.0,0.0,0.0,0.0,0.0,0.0,0.0,-4.3564,-4.2228,-4.1107,-4.0496,-3.9859,-3.9088,-3.818,-3.8343,-3.84,-3.8335,-3.7876,-3.7642,-3.7626,-3.7103,-3.6906,-3.6784,-3.6383,0.0,0.0,-3.4901,-3.4053,-3.3395,-3.3072,-3.2426,-3.1757,-3.1951,-3.1269,-3.0118,0.0,0.0,0.0,0.0,0.0,0.0,0.0,-1.3112,-1.4688,-1.6696,-1.7116,-1.7211,-1.7227,-1.6233,-1.5094,0.0,0.0,0.0,0.0,0.0,0.0,0.0,0.0,0.0,0.0,0.0,0.0,0.0,0.0,0.0,0.0,0.0,0.0,0.0,0.0,0.0,0.0,0.0,0.0,0.0,0.0,0.0,0.0,0.0,0.0,0.0,0.0,0.0,0.0,0.0,0.0,0.0,-2.5911,-2.8248,0.0,0.0,-3.7028,-3.9308,-4.2054,-4.3177,-4.3359,-4.2555,-3.875,-3.4756,-3.3023,0.0,0.0,-2.4893,-2.4858,-2.4809,-2.4444,-2.4462,-2.5079,0.0,0.0,0.0,0.0,0.0,0.0,0.0,0.0,0.0,0.0,0.0,0.0,0.0,0.0,0.0,-4.4253,-4.2242,-4.113,-4.1352,-4.0433,-3.9486,-3.8544,-3.9231,-3.9231,-3.8655,-3.8623,-3.8623,-3.8623,-3.8407,-3.8108,-3.7822,-3.7488,0.0,0.0,-3.578,-3.474,-3.3499,-3.3362,-3.2837,-3.2122,-3.1596,-3.1319,-3.1017,0.0,0.0,0.0,0.0,0.0,0.0,-1.4528,-1.5615,-1.6512,-1.7316,-1.7363,-1.735,-1.735,-1.6527,-1.5665,-1.4895,0.0,0.0,0.0,0.0,0.0,0.0,0.0,0.0,0.0,0.0,0.0,0.0,0.0,0.0,0.0,0.0,0.0,0.0,0.0,0.0,0.0,0.0,0.0,0.0,0.0,0.0,0.0,0.0,0.0,0.0,0.0,0.0,0.0,0.0,0.0,0.0,0.0,0.0,0.0,0.0,-3.4525,-3.6873,-3.9965,-4.143,-4.1963,-4.1338,-3.7642,-3.3817,0.0,0.0,0.0,-2.501,-2.5046,-2.4993,-2.4636,-2.4781,-2.5224,0.0,0.0,0.0,0.0,0.0,0.0,0.0,0.0,0.0,0.0,0.0,0.0,0.0,0.0,0.0,0.0,-4.237,-4.1335,-4.1909,-4.0878,-3.9875,-3.8914,-3.9858,-3.9957,-3.9298,-3.9214,-3.9322,-3.9537,-3.9305,-3.9028,-3.8684,0.0,0.0,0.0,-3.6523,-3.5431,-3.4122,-3.3892,-3.338,-3.2691,-3.1886,-3.1659,-3.1591,0.0,0.0,0.0,0.0,0.0,0.0,0.0,-1.5891,-1.6506,-1.6515,-1.6503,-1.6503,-1.6503,-1.5734,-1.5504,-1.6216,0.0,0.0,0.0,0.0,0.0,0.0,0.0,0.0,0.0,0.0,0.0,0.0,0.0,0.0,0.0,0.0,0.0,0.0,0.0,0.0,0.0,0.0,0.0,0.0,0.0,0.0,0.0,0.0,0.0,0.0,0.0,0.0,0.0,0.0,0.0,0.0,0.0,0.0,0.0,0.0,-3.2023,-3.5685,-3.6531,-3.8604,-4.0142,-3.8469,-3.5468,-3.2487,0.0,0.0,0.0,-2.5034,-2.5163,-2.5182,-2.4861,-2.5454,-2.6169,-2.6786,0.0,0.0,0.0,0.0,0.0,0.0,0.0,0.0,0.0,0.0,0.0,0.0,0.0,0.0,0.0,-4.3115,-4.2179,-4.1925,-4.1167,-4.0254,-3.9222,-3.9984,-4.0365,-4.0348,-3.957,-3.962,-4.0348,-3.9553,-3.9206,0.0,0.0,0.0,0.0,-3.7144,-3.6197,-3.5533,-3.474,-3.4068,-3.3484,-3.3484,-3.2746,-3.1711,0.0,0.0,0.0,0.0,0.0,0.0,0.0,-1.7167,-1.7588,-1.8139,-1.7683,-1.7311,-1.7311,-1.658,-1.6651,-1.8025,0.0,0.0,0.0,0.0,0.0,0.0,0.0,0.0,0.0,0.0,0.0,0.0,0.0,0.0,0.0,0.0,0.0,0.0,0.0,0.0,0.0,0.0,0.0,0.0,0.0,0.0,0.0,0.0,0.0,0.0,0.0,0.0,0.0,0.0,0.0,0.0,0.0,0.0,0.0,0.0,0.0,0.0,-3.3233,-3.462,-3.5439,-3.5143,-3.2928,-3.0624,-2.9721,0.0,0.0,-2.5214,-2.5264,-2.5233,-2.4981,-2.5064,-2.5649,-2.7069,-2.7337,0.0,0.0,0.0,0.0,0.0,0.0,0.0,0.0,0.0,0.0,0.0,0.0,0.0,0.0,-4.2189,-4.1726,-4.2162,-4.0981,-4.0068,-3.9556,-3.9964,-4.0081,-3.9924,-3.983,-3.9933,-4.0169,-3.9917,0.0,0.0,0.0,0.0,0.0,-3.7937,-3.6825,-3.5486,-3.4652,-3.3955,-3.344,-3.2991,-3.2855,-3.2879,0.0,0.0,0.0,0.0,0.0,0.0,0.0,-1.6837,-1.7023,-1.7497,-1.706,-1.6675,-1.6675,-1.6479,-1.6896,-1.8251,0.0,0.0,0.0,0.0,0.0,0.0,0.0,0.0,0.0,0.0,0.0,0.0,0.0,0.0,0.0,0.0,0.0,0.0,0.0,0.0,0.0,0.0,0.0,0.0,0.0,0.0,-2.5324,0.0,0.0,0.0,0.0,0.0,0.0,0.0,0.0,0.0,0.0,0.0,0.0,0.0,-2.6301,0.0,0.0,-3.1407,-3.2119,-3.1997,-3.0538,0.0,0.0,0.0,0.0,-2.5303,-2.5303,-2.5264,-2.5141,-2.5514,-2.6182,-2.7326,-2.8043,0.0,0.0,0.0,0.0,0.0,0.0,0.0,0.0,0.0,0.0,0.0,0.0,0.0,0.0,-4.2142,-4.1562,-4.2021,-4.1035,-4.0307,-3.9884,-4.0307,-4.0459,-4.0236,-4.0155,-4.0223,-4.0493,-4.0206,0.0,0.0,0.0,0.0,0.0,-3.8668,-3.7721,-3.6553,-3.5236,-3.4317,-3.3638,-3.2811,-3.2617,-3.2721,0.0,0.0,0.0,0.0,0.0,0.0,0.0,0.0,0.0,0.0,-1.5247,-1.5152,-1.5152,-1.5826,-1.6563,0.0,0.0,0.0,0.0,0.0,0.0,0.0,0.0,0.0,0.0,0.0,0.0,0.0,-2.2111,-2.2755,-2.2965,0.0,0.0,0.0,0.0,0.0,0.0,0.0,0.0,0.0,0.0,0.0,0.0,0.0,0.0,0.0,0.0,0.0,0.0,0.0,0.0,0.0,0.0,0.0,0.0,0.0,0.0,0.0,0.0,-2.8852,0.0,0.0,0.0,0.0,0.0,0.0,0.0,0.0,0.0,0.0,-2.5457,-2.6534,-2.7494,-2.778,-2.9419,0.0,0.0,0.0,0.0,0.0,0.0,0.0,0.0,0.0,0.0,0.0,0.0,0.0,0.0,-4.2647,-4.1577,-4.1577,-4.1274,-4.0781,-4.0087,-4.0781,-4.1119,-4.1119,-4.0409,-4.0443,-4.1102,-4.0392,0.0,0.0,0.0,0.0,0.0,-3.9262,-3.8816,-3.8309,-3.6447,-3.5102,-3.4132,-3.3035,-3.2228,-3.1765,0.0,0.0,0.0,0.0,0.0,0.0,0.0,0.0,0.0,0.0,0.0,-1.6763,-1.6763,-1.7451,0.0,0.0,0.0,0.0,0.0,0.0,0.0,0.0,0.0,0.0,0.0,0.0,0.0,-2.2746,-2.289,-2.3522,-2.4557,-2.4664,0.0,0.0,0.0,0.0,0.0,0.0,0.0,0.0,0.0,0.0,0.0,0.0,0.0,0.0,-2.5303,-2.5303,0.0,0.0,0.0,0.0,0.0,0.0,0.0,0.0,-2.5303,-2.538,-2.5813,0.0,-2.6437,-2.6236,-2.6063,0.0,0.0,0.0,0.0,0.0,0.0,0.0,0.0,0.0,0.0,0.0,0.0,0.0,0.0,0.0,0.0,0.0,0.0,0.0,0.0,0.0,0.0,0.0,0.0,0.0,0.0,-4.173,-4.1056,-4.1056,-4.0608,-4.0257,-4.007,-4.0257,-4.0341,-4.0341,-4.0155,-4.0172,-4.0341,-4.0155,0.0,0.0,0.0,0.0,-4.007,-3.9644,-3.9226,-3.8679,-3.7318,-3.6143,-3.5164,-3.4163,-3.3819,-3.3799,0.0,0.0,0.0,0.0,0.0,0.0,0.0,0.0,0.0,0.0,0.0,0.0,0.0,0.0,0.0,0.0,0.0,0.0,0.0,0.0,0.0,0.0,0.0,0.0,0.0,0.0,0.0,0.0,0.0,-2.3737,0.0,0.0,0.0,0.0,0.0,0.0,0.0,0.0,0.0,0.0,-2.4584,0.0,0.0,0.0,0.0,0.0,-2.5303,-2.5303,0.0,-2.5303,-2.5303,-2.5303,0.0,0.0,0.0,0.0,-2.5303,-2.5303,-2.5303,-2.5591,-2.5909,-2.5909,-2.5909,-2.5909,0.0,0.0,0.0,0.0,0.0,0.0,0.0,0.0,0.0,0.0,0.0,0.0,0.0,0.0,0.0,0.0,0.0,0.0,0.0,0.0,0.0,0.0,0.0,0.0,0.0,-4.2108,-4.1464,-4.1348,-4.0767,-4.0319,-4.0121,-4.007,-4.007,-4.007,-4.007,-4.007,-4.007,-4.007,-4.007,0.0,0.0,0.0,-4.007,-3.9918,-3.9644,-3.9193,-3.8133,-3.6958,-3.566,-3.4623,-3.4089,-3.391,0.0,0.0,0.0,0.0,0.0,0.0,0.0,0.0,0.0,0.0,0.0,0.0,0.0,0.0,0.0,0.0,0.0,0.0,0.0,0.0,0.0,0.0,0.0,0.0,0.0,0.0,0.0,0.0,0.0,0.0,0.0,0.0,0.0,0.0,0.0,0.0,0.0,0.0,0.0,0.0,-2.4736,0.0,0.0,0.0,0.0,0.0,0.0,0.0,0.0,-2.5303,-2.5303,-2.5303,-2.5303,0.0,0.0,0.0,0.0,0.0,-2.5303,-2.6043,-2.6736,-2.6467,-2.6601,-2.6755,0.0,0.0,0.0,0.0,0.0,0.0,0.0,0.0,0.0,0.0,0.0,0.0,0.0,0.0,0.0,0.0,0.0,0.0,0.0,0.0,0.0,0.0,0.0,0.0,0.0,-4.2936,-4.2216,-4.2008,-4.1331,-4.075,-4.0303,-4.0171,-4.007,-4.007,-4.007,-4.007,-4.007,-4.007,-4.007,0.0,0.0,0.0,-4.007,-4.007,-3.9986,-3.9661,-3.8859,-3.7552,-3.6072,-3.4753,-3.3894,-3.3356,0.0,0.0,0.0,0.0,0.0,0.0,0.0,0.0,0.0,0.0,0.0,0.0,0.0,0.0,0.0,0.0,0.0,0.0,0.0,0.0,0.0,0.0,0.0,0.0,0.0,0.0,0.0,0.0,0.0,0.0,-2.5056,-2.5857,-2.5956,0.0,0.0,0.0,0.0,-2.5566,-2.5566,-2.5662,-2.5395,0.0,0.0,0.0,0.0,0.0,0.0,0.0,0.0,-2.5303,-2.5303,-2.5303,-2.5303,0.0,0.0,0.0,0.0,0.0,-2.5303,-2.6467,-2.7351,-2.587,-2.6621,-2.7505,0.0,0.0,0.0,0.0,0.0,0.0,0.0,0.0,0.0,0.0,0.0,0.0,0.0,0.0,0.0,0.0,0.0,0.0,0.0,0.0,0.0,0.0,0.0,0.0,0.0,-4.2994,-4.2616,-4.2577,-4.17,-4.1213,-4.1139,-4.0434,-4.007,-4.007,-4.007,-4.007,-4.007,-4.007,-4.007,0.0,0.0,-4.007,-4.007,-4.007,-4.0087,-3.9969,-3.8991,-3.7989,-3.6956,-3.5278,-3.4326,-3.3815,0.0,0.0,0.0,0.0,0.0,0.0,0.0,0.0,0.0,0.0,0.0,0.0,0.0,0.0,0.0,0.0,0.0,0.0,0.0,0.0,0.0,0.0,0.0,0.0,0.0,0.0,0.0,0.0,0.0,-2.4948,-2.5373,-2.5503,-2.55,-2.5362,0.0,0.0,-2.5703,-2.5703,-2.5683,-2.5636,0.0,0.0,0.0,0.0,0.0,0.0,0.0,0.0,0.0,0.0,-2.5303,-2.5303,-2.5303,0.0,0.0,0.0,0.0,0.0,-2.5303,-2.6236,-2.7005,-2.6197,-2.7209,-2.8281,0.0,0.0,0.0,0.0,0.0,0.0,0.0,0.0,0.0,0.0,0.0,0.0,0.0,0.0,0.0,0.0,0.0,0.0,0.0,0.0,0.0,0.0,0.0,0.0,0.0,0.0,-4.3069,-4.2957,-4.24,-4.1931,-4.1648,-4.0908,-4.0466,-4.032,-4.0171,-4.007,-4.007,-4.007,-4.007,-4.007,0.0,-4.007,-4.007,-4.007,-3.9851,-3.9462,-3.8824,-3.7869,-3.6686,-3.5191,-3.4187,-3.3523,0.0,0.0,0.0,0.0,0.0,0.0,0.0,0.0,0.0,0.0,0.0,0.0,0.0,0.0,0.0,0.0,0.0,0.0,0.0,0.0,0.0,0.0,0.0,0.0,0.0,0.0,0.0,-2.4649,-2.4876,-2.5247,-2.5668,-2.5269,-2.5122,0.0,0.0,0.0,-2.5683,-2.5683,-2.566,-2.5598,0.0,0.0,0.0,0.0,0.0,0.0,0.0,0.0,0.0,0.0,0.0,0.0,0.0,0.0,0.0,-2.5303,-2.5303,-2.5303,-2.5303,-2.5947,-2.6601,-2.6601,0.0,0.0,0.0,0.0,0.0,0.0,0.0,0.0,0.0,0.0,0.0,0.0,0.0,0.0,0.0,0.0,0.0,0.0,0.0,0.0,0.0,0.0,0.0,0.0,0.0,0.0,0.0,0.0,-4.3428,-4.3286,-4.2957,-4.2577,-4.2175,-4.1508,-4.0955,-4.0485,-4.0238,-4.0138,-4.0138,-4.0121,-4.0138,-4.0138,-4.0121,-4.007,-4.007,-3.9884,-3.9495,-3.8971,-3.837,-3.7332,-3.5969,-3.4794,-3.3912,-3.3198,0.0,0.0,0.0,0.0,0.0,0.0,0.0,0.0,0.0,0.0,0.0,0.0,0.0,0.0,0.0,0.0,0.0,0.0,0.0,0.0,0.0,0.0,0.0,0.0,0.0,-2.3835,-2.4403,-2.3536,-2.5558,-2.6417,-2.6144,-2.5982,-2.5627,-2.511,0.0,0.0,-2.5607,-2.5662,-2.566,-2.5598,-2.5535,0.0,0.0,0.0,0.0,0.0,0.0,0.0,0.0,0.0,0.0,0.0,0.0,0.0,-2.5303,-2.5303,-2.5303,-2.5303,-2.5303,-2.5947,-2.6601,-2.6601,-2.7283,0.0,-3.0956,-3.1771,0.0,0.0,0.0,0.0,0.0,0.0,0.0,0.0,0.0,0.0,0.0,0.0,0.0,0.0,0.0,0.0,0.0,0.0,0.0,0.0,0.0,0.0,0.0,0.0,0.0,-4.3497,-4.3142,-4.2939,-4.2902,-4.236,-4.1561,-4.0485,-4.0238,-4.0188,-4.0305,-4.0188,-4.0188,-4.0305,-4.0138,-4.007,-4.002,-3.9343,-3.9039,-3.8853,-3.7483,-3.6202,-3.5077,-3.4032,-3.3555,-3.335,0.0,0.0,0.0,0.0,0.0,0.0,0.0,0.0,0.0,0.0,0.0,0.0,0.0,0.0,0.0,0.0,0.0,0.0,0.0,0.0,0.0,0.0,0.0,-2.2892,-2.3052,-2.4016,-2.4572,-2.4701,-2.5702,-2.5906,-2.5335,-2.5276,0.0,0.0,0.0,0.0,-2.5603,-2.5662,-2.566,-2.5601,-2.5567,-2.5503,0.0,0.0,0.0,0.0,0.0,0.0,0.0,0.0,-2.534,-2.5346,0.0,-2.5303,-2.5303,-2.5303,-2.5303,-2.5303,-2.5303,-2.6332,-2.7409,-2.7409,-2.8025,0.0,0.0,-3.2692,0.0,0.0,0.0,0.0,0.0,0.0,0.0,0.0,0.0,0.0,0.0,0.0,0.0,0.0,0.0,0.0,0.0,0.0,0.0,0.0,0.0,0.0,0.0,0.0,0.0,-4.3795,-4.2983,-4.2721,-4.3014,-4.2655,-4.2198,-4.1561,-4.1047,-4.0772,-4.0697,-4.0436,-4.0485,-4.0614,-3.9795,-3.9493,-3.9589,-3.8664,-3.8041,-3.7516,-3.6468,-3.571,-3.5248,-3.5217,-3.4475,-3.3587,0.0,0.0,0.0,0.0,0.0,0.0,0.0,0.0,0.0,0.0,0.0,0.0,0.0,0.0,0.0,0.0,0.0,0.0,0.0,0.0,0.0,0.0,0.0,-2.3526,-2.3858,-2.4127,-2.4557,-2.5112,-2.5415,-2.5234,-2.4592,0.0,0.0,0.0,0.0,0.0,0.0,0.0,-2.566,-2.5601,-2.5601,-2.5535,0.0,0.0,0.0,0.0,0.0,0.0,0.0,0.0,-2.5376,-2.5391,0.0,0.0,0.0,0.0,-2.5303,-2.5303,-2.5303,-2.6178,-2.714,0.0,0.0,0.0,-3.3221,0.0,0.0,0.0,0.0,0.0,0.0,0.0,0.0,0.0,0.0,0.0,0.0,0.0,0.0,0.0,0.0,0.0,0.0,0.0,0.0,0.0,0.0,0.0,0.0,0.0,0.0,0.0,-4.2437,-4.2124,-4.2395,-4.2268,-4.2047,-4.1704,-4.1558,-4.1384,-4.1237,-4.0913,-4.0819,-4.0896,-3.9808,-3.931,-3.9211,-3.8206,-3.7262,-3.6366,-3.5825,-3.5503,-3.5434,-3.5749,-3.5103,-3.4099,0.0,0.0,0.0,0.0,0.0,0.0,0.0,0.0,0.0,0.0,0.0,0.0,0.0,0.0,0.0,0.0,0.0,0.0,0.0,0.0,0.0,0.0,0.0,-2.419,-2.419,-2.419,-2.4236,-2.4307,-2.4617,-2.4596,-2.4209,-2.4607,0.0,0.0,0.0,0.0,0.0,0.0,-2.566,-2.5603,-2.5603,-2.5561,-2.5493,0.0,0.0,0.0,0.0,0.0,0.0,0.0,-2.5465,-2.5394,0.0,0.0,0.0,-2.5303,-2.5303,-2.5303,-2.5303,-2.5303,-2.5534,0.0,0.0,0.0,0.0,0.0,0.0,0.0,0.0,0.0,0.0,0.0,0.0,0.0,0.0,0.0,0.0,0.0,0.0,0.0,0.0,0.0,0.0,0.0,0.0,0.0,0.0,0.0,0.0,0.0,0.0,0.0,-4.1456,-4.1311,-4.1111,-4.1111,-4.0928,-4.0598,-4.1433,-4.1843,-4.1979,-4.1508,-4.1196,-4.107,-4.0349,-3.9646,-3.8901,-3.792,-3.6766,-3.5622,-3.5622,-3.5622,-3.5577,-3.5245,-3.5105,-3.503,0.0,0.0,0.0,0.0,0.0,0.0,0.0,0.0,0.0,0.0,0.0,0.0,0.0,0.0,0.0,0.0,0.0,0.0,0.0,0.0,0.0,0.0,0.0,0.0,0.0,0.0,-2.4222,-2.4221,-2.4322,-2.4392,0.0,0.0,0.0,-2.4962,0.0,0.0,0.0,0.0,-2.5683,-2.5662,-2.5662,-2.5633,-2.5564,0.0,0.0,0.0,0.0,0.0,0.0,0.0,0.0,0.0,-2.5408,0.0,0.0,-2.5313,-2.533,-2.5363,-2.5313,-2.6197,0.0,0.0,0.0,0.0,0.0,0.0,0.0,0.0,0.0,0.0,0.0,0.0,0.0,0.0,0.0,0.0,0.0,0.0,0.0,0.0,0.0,0.0,0.0,0.0,0.0,0.0,0.0,0.0,0.0,0.0,0.0,0.0,-4.1073,-4.0774,-4.1111,-4.1111,-4.1046,-4.0961,-4.1199,-4.1414,-4.1572,-4.1238,-4.0948,-4.0656,-3.9171,-3.833,-3.7854,-3.6869,-3.6103,-3.5622,-3.5622,-3.5622,-3.5645,-3.6093,-3.579,-3.5141,0.0,0.0,0.0,0.0,0.0,0.0,0.0,0.0,0.0,0.0,0.0,0.0,0.0,0.0,0.0,0.0,0.0,0.0,0.0,0.0,0.0,0.0,0.0,0.0,0.0,-2.419,-2.419,0.0,0.0,0.0,0.0,0.0,0.0,-2.5056,0.0,-2.5503,0.0,0.0,-2.5703,-2.5703,-2.5703,-2.5682,-2.5636,0.0,0.0,0.0,0.0,0.0,0.0,0.0,0.0,0.0,0.0,0.0,0.0,-2.5313,-2.5321,-2.5346,-2.5313,-2.6563,0.0,0.0,0.0,0.0,0.0,0.0,0.0,0.0,0.0,0.0,0.0,0.0,0.0,0.0,0.0,0.0,0.0,0.0,0.0,0.0,0.0,0.0,0.0,0.0,0.0,0.0,0.0,0.0,0.0,0.0,0.0,0.0,-3.9721,-3.9444,-3.9361,-3.9246,-3.935,-3.968,-3.9992,-4.0364,-4.0799,-4.0815,-4.0674,-4.0366,-3.8765,-3.7778,-3.7283,-3.6187,-3.5685,-3.5588,-3.5284,-3.5351,-3.5673,-3.6146,-3.5891,-3.5325,0.0,0.0,0.0,0.0,0.0,0.0,0.0,0.0,0.0,0.0,0.0,0.0,0.0,0.0,0.0,0.0,0.0,0.0,0.0,0.0,0.0,0.0,0.0,0.0,0.0,0.0,0.0,0.0,0.0,0.0,0.0,0.0,-2.493,-2.5129,0.0,-2.5543,0.0,-2.5662,-2.5703,-2.5703,-2.5781,-2.5762,-2.5703,-2.5781,0.0,0.0,0.0,0.0,0.0,0.0,0.0,0.0,-2.5493,-2.5427,-2.5322,-2.5293,-2.5293,-2.5322,-2.5409,0.0,0.0,0.0,0.0,0.0,0.0,0.0,0.0,0.0,0.0,0.0,0.0,0.0,0.0,0.0,0.0,0.0,0.0,0.0,0.0,0.0,0.0,0.0,0.0,0.0,0.0,0.0,0.0,0.0,0.0,0.0,0.0,-3.7527,-3.791,-3.7689,-3.6733,-3.6445,-3.6681,0.0,-3.815,-3.8854,-3.9588,-4.0242,-4.0346,-3.9968,-3.8729,-3.7845,-3.712,-3.5846,-3.54,-3.548,-3.4759,-3.4912,-3.552,-3.5588,-3.5622,-3.5577,0.0,0.0,0.0,0.0,0.0,0.0,0.0,0.0,0.0,0.0,0.0,0.0,0.0,0.0,0.0,0.0,0.0,0.0,0.0,0.0,0.0,0.0,0.0,0.0,0.0,0.0,0.0,0.0,0.0,0.0,0.0,0.0,0.0,-2.5337,0.0,-2.5543,-2.5603,-2.5662,-2.5703,-2.5762,-2.6445,-2.6309,-2.5762,-2.6465,-2.6309,0.0,0.0,0.0,0.0,0.0,0.0,0.0,-2.5526,-2.5468,-2.5434,-2.533,-2.5339,-2.5517,0.0,-2.7082,0.0,0.0,0.0,0.0,0.0,0.0,0.0,0.0,0.0,0.0,0.0,0.0,0.0,0.0,0.0,0.0,0.0,0.0,0.0,0.0,0.0,0.0,0.0,0.0,0.0,0.0,0.0,0.0,0.0,0.0,0.0,-3.7508,-3.7565,-3.74,-3.7009,-3.6638,-3.6609,0.0,-3.6832,-3.6909,-3.7129,-3.914,-3.9546,-3.866,-3.799,-3.7574,-3.7324,-3.6039,-3.5479,-3.5311,-3.4712,-3.459,-3.481,-3.5402,-3.5622,-3.5577,0.0,0.0,0.0,0.0,0.0,0.0,0.0,0.0,0.0,0.0,0.0,0.0,0.0,0.0,0.0,0.0,0.0,0.0,0.0,0.0,0.0,0.0,0.0,0.0,0.0,0.0,0.0,0.0,0.0,0.0,0.0,0.0,0.0,-2.5453,0.0,-2.5593,-2.5658,-2.5683,-2.5703,-2.5742,-2.6191,-2.6367,-2.6328,-2.6367,-2.6348,-2.6269,-2.5859,0.0,0.0,0.0,0.0,0.0,0.0,0.0,-2.5434,-2.5371,-2.5357,-2.5444,0.0,0.0,0.0,0.0,0.0,0.0,0.0,0.0,0.0,0.0,0.0,0.0,0.0,0.0,0.0,0.0,0.0,0.0,0.0,0.0,0.0,0.0,0.0,0.0,0.0,0.0,0.0,0.0,0.0,0.0,0.0,-3.718,-3.7122,-3.6572,-3.6764,-3.6616,-3.606,-3.5624,-3.5602,-3.6029,-3.58,-3.5899,-3.634,-3.7588,-3.7876,-3.7338,-3.7443,-3.7336,-3.704,-3.5936,-3.5428,-3.5238,-3.4463,-3.4296,-3.459,-3.5351,-3.5622,-3.5571,0.0,0.0,0.0,0.0,0.0,0.0,0.0,0.0,0.0,0.0,0.0,0.0,0.0,0.0,0.0,0.0,0.0,0.0,0.0,0.0,0.0,0.0,0.0,0.0,0.0,0.0,0.0,0.0,0.0,0.0,0.0,0.0,0.0,-2.5493,0.0,0.0,-2.5703,-2.5703,-2.5703,-2.5723,-2.6035,-2.6484,-2.6953,-2.6523,-2.6621,-2.6934,-2.6348,-2.5957,-2.5723,-2.5879,0.0,0.0,0.0,0.0,-2.5428,-2.5408,-2.5371,-2.5341,0.0,0.0,0.0,0.0,0.0,0.0,0.0,0.0,0.0,0.0,0.0,0.0,0.0,0.0,0.0,0.0,0.0,0.0,0.0,0.0,0.0,0.0,0.0,0.0,0.0,0.0,0.0,0.0,0.0,0.0,-3.5276,-3.5911,-3.6026,-3.5526,-3.5771,-3.56,-3.498,-3.436,-3.4418,-3.515,-3.4907,-3.5183,-3.5862,-3.5862,-3.6028,-3.634,-3.6982,-3.7058,-3.6552,-3.558,-3.5155,-3.5,-3.4019,-3.3936,-3.4474,-3.5148,-3.5504,-3.552,0.0,0.0,0.0,0.0,0.0,0.0,0.0,0.0,0.0,0.0,0.0,0.0,0.0,0.0,0.0,0.0,0.0,0.0,0.0,0.0,0.0,0.0,0.0,0.0,0.0,0.0,0.0,0.0,0.0,0.0,0.0,0.0,0.0,-2.5493,0.0,0.0,0.0,-2.5703,-2.5703,-2.582,-2.7344,-2.7578,-2.7148,-2.8555,-2.8203,-2.707,-2.7715,-2.6973,-2.582,-2.6562,-2.6328,0.0,0.0,0.0,-2.5561,-2.5493,-2.5441,-2.5546,0.0,0.0,0.0,0.0,0.0,0.0,0.0,0.0,0.0,0.0,0.0,0.0,0.0,0.0,0.0,0.0,0.0,0.0,0.0,0.0,0.0,0.0,0.0,0.0,0.0,0.0,0.0,0.0,0.0,0.0,-3.4334,-3.4468,-3.4834,-3.5488,-3.4789,-3.4672,-3.5251,-3.4017,-3.3824,-3.4611,-3.4171,-3.4027,-3.4137,-3.4137,-3.4926,-3.6303,-3.6413,-3.6421,-3.6241,-3.4862,-3.4285,-3.4157,-3.3231,-3.3271,-3.3943,-3.4457,-3.5064,-3.5605,0.0,0.0,0.0,0.0,0.0,0.0,0.0,0.0,0.0,0.0,0.0,0.0,0.0,0.0,0.0,0.0,0.0,0.0,0.0,0.0,0.0,0.0,-2.5163,0.0,0.0,0.0,0.0,0.0,0.0,0.0,0.0,-2.5869,-2.6385,0.0,0.0,0.0,0.0,0.0,-2.5661,-2.5762,-2.648,-2.6873,-2.707,-2.7851,-2.7969,-2.7773,-2.812,-2.7458,-2.6484,-2.6829,-2.6384,-2.5683,-2.5661,0.0,0.0,0.0,-2.5517,0.0,-2.5878,0.0,0.0,0.0,0.0,0.0,0.0,0.0,0.0,0.0,0.0,0.0,0.0,0.0,0.0,0.0,0.0,0.0,0.0,0.0,0.0,0.0,0.0,0.0,0.0,0.0,0.0,0.0,0.0,-3.3064,-3.3449,-3.3468,-3.3641,-3.4026,-3.3653,-3.3574,-3.3897,-3.3178,-3.3086,-3.3604,-3.3264,-3.3366,-3.377,-3.333,-3.3788,-3.4926,-3.5385,-3.5587,-3.5522,-3.4782,-3.4406,-3.4199,-3.3565,-3.3306,-3.3416,-3.3909,-3.4465,-3.4928,0.0,0.0,0.0,0.0,0.0,0.0,0.0,0.0,0.0,0.0,0.0,0.0,0.0,0.0,0.0,0.0,0.0,0.0,0.0,0.0,0.0,-2.5303,-2.5303,-2.5303,-2.5303,0.0,0.0,0.0,0.0,0.0,-2.5347,-2.6316,-2.7248,0.0,-2.7333,0.0,0.0,0.0,0.0,0.0,-2.5859,-2.6335,0.0,0.0,0.0,-2.8027,-2.8371,-2.7852,-2.7009,-2.7166,-2.6685,-2.5975,-2.5762,-2.5661,0.0,0.0,0.0,0.0,0.0,0.0,0.0,0.0,0.0,0.0,0.0,0.0,0.0,0.0,0.0,0.0,0.0,0.0,0.0,0.0,0.0,0.0,0.0,0.0,0.0,0.0,0.0,0.0,0.0,0.0,0.0,0.0,0.0,-3.2352,-3.2583,-3.2602,-3.2699,-3.2891,-3.2699,-3.266,-3.2804,-3.2521,-3.2467,-3.2622,-3.2453,-3.2665,-3.3164,-3.2577,-3.2742,-3.355,-3.4357,-3.4706,-3.4679,-3.4538,-3.4375,-3.4147,-3.3734,-3.3423,-3.3258,-3.3507,-3.3874,-3.4219,0.0,0.0,0.0,0.0,0.0,0.0,0.0,0.0,0.0,0.0,0.0,0.0,0.0,0.0,0.0,-2.5303,0.0,0.0,0.0,0.0,0.0,-2.5303,-2.5303,0.0,-2.5303,0.0,0.0,0.0,0.0,0.0,-2.6231,-2.6562,-2.7194,-2.8076,-2.7333,-2.6543,-2.5762,0.0,0.0,0.0,-2.6458,-2.6844,-2.7089,0.0,0.0,0.0,0.0,0.0,-2.7022,-2.7861,-2.7569,-2.6696,-2.5936,-2.5703,-2.5683,0.0,0.0,0.0,0.0,0.0,0.0,0.0,0.0,0.0,0.0,0.0,0.0,0.0,0.0,0.0,0.0,0.0,0.0,0.0,0.0,0.0,0.0,0.0,0.0,0.0,0.0,0.0,0.0,0.0,0.0,0.0,0.0,-3.0891,-3.1718,-3.1756,-3.2102,-3.2872,-3.216,-3.2103,-3.2785,-3.2457,-3.2144,-3.1868,-3.1788,-3.1684,-3.1513,-3.1476,-3.1898,-3.2724,-3.3513,-3.3862,-3.3862,-3.3716,-3.366,-3.3603,-3.3129,-3.3294,-3.3703,-3.3223,-3.3365,-3.3796,0.0,0.0,0.0,0.0,0.0,0.0,0.0,0.0,0.0,0.0,0.0,0.0,0.0,-2.5303,-2.5303,-2.5303,-2.5303,0.0,0.0,0.0,0.0,-2.5303,-2.5303,-2.5303,-2.5303,0.0,0.0,0.0,0.0,-2.5417,-2.5663,-2.6428,-2.666,-2.6447,-2.6771,-2.6757,-2.6435,-2.5798,0.0,0.0,-2.5874,-2.6026,-2.6202,0.0,0.0,0.0,0.0,0.0,0.0,-2.8095,-2.7956,-2.755,-2.6773,-2.6501,-2.6376,-2.5859,0.0,0.0,0.0,0.0,0.0,0.0,0.0,0.0,0.0,0.0,0.0,0.0,0.0,0.0,0.0,0.0,0.0,0.0,0.0,0.0,0.0,0.0,0.0,0.0,0.0,0.0,0.0,0.0,0.0,0.0,0.0,0.0,-2.9236,-2.9756,-3.016,-3.0448,-3.0717,-3.097,-3.1193,-3.1423,-3.1393,-3.116,-3.0984,-3.1099,-3.1366,-3.087,-3.1072,-3.1843,-3.2118,-3.2852,-3.377,-3.3203,-3.3268,-3.3698,-3.3455,-3.3364,-3.3382,-3.296,-3.3017,-3.3227,0.0,0.0,0.0,0.0,0.0,0.0,0.0,0.0,0.0,0.0,0.0,0.0,0.0,0.0,-2.5321,-2.5293,-2.5322,-2.533,-2.533,-2.5354,-2.5354,-2.5339,-2.533,-2.5312,0.0,0.0,0.0,0.0,0.0,0.0,0.0,-2.6042,-2.6072,-2.5563,-2.6197,-2.6481,0.0,0.0,0.0,-2.5611,0.0,-2.5702,-2.6105,0.0,0.0,0.0,0.0,0.0,0.0,0.0,0.0,0.0,-2.6761,-2.6517,-2.6396,-2.5859,0.0,0.0,-2.5629,0.0,0.0,0.0,0.0,0.0,0.0,0.0,0.0,0.0,0.0,0.0,0.0,0.0,0.0,0.0,0.0,0.0,0.0,0.0,0.0,0.0,0.0,0.0,0.0,0.0,0.0,0.0,0.0,0.0,-2.789,-2.8409,-2.8813,-2.9083,-2.966,-3.0079,-3.0318,-3.0667,-3.0731,-3.0508,-3.0297,-3.0361,-3.0636,-3.005,-3.0246,-3.098,-3.0705,-3.1513,-3.2944,-3.243,-3.2669,-3.3366,-3.3003,-3.3039,-3.3255,-3.2683,-3.2626,-3.2805,0.0,0.0,0.0,0.0,0.0,0.0,0.0,0.0,0.0,0.0,0.0,0.0,0.0,0.0,0.0,-2.5303,-2.5363,-2.5406,-2.5394,-2.5451,-2.5463,-2.5401,0.0,0.0,0.0,0.0,0.0,0.0,0.0,0.0,0.0,0.0,-2.5543,-2.5601,-2.5603,-2.5636,-2.5703,0.0,-2.5636,-2.5683,0.0,-2.5993,-2.6848,0.0,0.0,0.0,-2.7875,-2.7885,0.0,-2.6986,0.0,0.0,0.0,-2.5676,-2.5703,-2.5703,0.0,0.0,0.0,0.0,0.0,0.0,0.0,0.0,0.0,0.0,0.0,0.0,0.0,0.0,0.0,0.0,0.0,0.0,0.0,0.0,0.0,0.0,0.0,0.0,0.0,0.0,0.0,0.0,0.0,0.0,0.0,-2.7813,-2.7813,-2.7852,-2.8217,-2.9044,-2.9063,-2.9467,-3.0321,-3.026,-3.0103,-2.9874,-2.9677,-2.9437,-2.9209,-2.9071,-2.9439,-3.0118,-2.9347,-2.9898,-3.1329,-3.1347,-3.1843,-3.2504,-3.1733,-3.2297,-3.3395,-3.2423,-3.2263,-3.2486,0.0,0.0,0.0,0.0,0.0,0.0,0.0,0.0,0.0,0.0,0.0,0.0,0.0,0.0,0.0,-2.5371,-2.5391,-2.5421,-2.5477,-2.5484,-2.5484,-2.5463,-2.5441,0.0,0.0,0.0,0.0,0.0,0.0,0.0,0.0,0.0,0.0,0.0,-2.5658,-2.5683,-2.5703,-2.5633,0.0,0.0,-2.5561,-2.5679,0.0,0.0,0.0,0.0,0.0,-2.6558,-2.7032,0.0,-2.7125,-2.7441,0.0,0.0,0.0,-2.5703,0.0,0.0,-2.5683,0.0,0.0,0.0,0.0,0.0,0.0,0.0,0.0,0.0,0.0,0.0,0.0,0.0,0.0,0.0,0.0,0.0,0.0,0.0,0.0,0.0,0.0,0.0,0.0,0.0,0.0,0.0,-2.589,-2.6024,-2.6024,-2.6621,-2.7351,-2.8198,-2.8217,-2.8352,-2.8582,-2.8526,-2.8696,-2.9093,-2.8992,-2.9079,-2.9332,-2.931,-2.9311,-2.9305,-2.9085,-2.9255,-2.9714,-3.0283,-3.0999,-3.177,-3.2137,-3.2166,-3.2096,-3.2885,-3.2642,-3.2014,0.0,0.0,0.0,0.0,0.0,0.0,0.0,0.0,0.0,0.0,0.0,0.0,0.0,0.0,0.0,-2.5398,-2.5453,-2.5493,-2.5543,-2.5564,-2.5567,-2.5547,-2.5493,-2.5477,0.0,0.0,0.0,0.0,0.0,0.0,0.0,0.0,0.0,0.0,0.0,0.0,0.0,0.0,0.0,0.0,-2.5573,0.0,0.0,-2.6023,-2.6217,0.0,0.0,0.0,-2.7101,-2.6408,-2.6486,0.0,0.0,0.0,0.0,0.0,0.0,0.0,0.0,0.0,0.0,0.0,0.0,0.0,-2.5498,-2.5465,0.0,0.0,0.0,0.0,0.0,0.0,0.0,0.0,0.0,0.0,0.0,0.0,0.0,0.0,0.0,0.0,0.0,0.0,0.0,-2.5303,-2.5303,-2.5303,-2.5303,-2.5793,-2.6467,-2.7332,-2.7351,-2.7525,-2.789,-2.8184,-2.8356,-2.8402,-2.896,-2.919,-2.9119,-2.9363,-2.9394,-2.9249,-2.9181,-2.9156,-2.9108,-2.9605,-3.0221,-3.0907,-3.1054,-3.1439,-3.1971,-3.2472,-3.2583,-3.2481,0.0,0.0,0.0,0.0,0.0,0.0,0.0,0.0,0.0,0.0,0.0,0.0,0.0,0.0,0.0,0.0,-2.5539,-2.5603,-2.5605,-2.5661,-2.5662,-2.5607,-2.5603,-2.5567,-2.5503,0.0,0.0,0.0,0.0,0.0,0.0,0.0,0.0,0.0,0.0,0.0,0.0,0.0,0.0,-2.5683,-2.5561,-2.6011,0.0,0.0,-2.6988,0.0,-2.6757,-2.6948,-2.7371,-2.5832,-2.5337,0.0,0.0,0.0,0.0,0.0,-2.5659,0.0,0.0,0.0,0.0,0.0,0.0,0.0,-2.5603,-2.5554,-2.5517,0.0,0.0,0.0,0.0,0.0,0.0,0.0,0.0,0.0,0.0,0.0,0.0,0.0,0.0,0.0,0.0,-2.5303,-2.5303,-2.5303,-2.5303,-2.5303,-2.5303,-2.5303,-2.5649,-2.6428,-2.6467,-2.6832,-2.7601,-2.8313,-2.8349,-2.7677,-2.909,-2.9355,-2.8586,-2.9223,-2.9494,-2.9457,-2.9231,-2.9165,-2.9209,-2.9018,-2.937,-3.0008,-2.936,-3.0387,-3.2155,-3.1696,-3.2208,-3.3128,0.0,0.0,0.0,0.0,0.0,0.0,0.0,0.0,0.0,0.0,0.0,0.0,0.0,0.0,0.0,0.0,0.0,-2.5611,-2.5682,-2.5683,-2.5683,-2.5683,-2.5633,-2.5598,-2.5573,-2.5535,0.0,0.0,0.0,0.0,0.0,0.0,0.0,0.0,0.0,0.0,0.0,0.0,0.0,-2.5683,-2.5607,0.0,-2.5751,-2.5672,-2.5713,-2.5803,-2.562,-2.5649,-2.5774,0.0,-2.5337,-2.5408,0.0,0.0,0.0,0.0,0.0,0.0,0.0,0.0,0.0,0.0,0.0,0.0,-2.5607,-2.5595,-2.5561,0.0,0.0,0.0,0.0,0.0,0.0,0.0,0.0,0.0,0.0,0.0,0.0,0.0,0.0,0.0,0.0,-2.5303,-2.5303,-2.5303,-2.5303,-2.5303,-2.5303,-2.5303,-2.538,-2.5553,-2.5553,-2.563,-2.5813,-2.5967,-2.6303,-2.685,-2.7838,-2.8109,-2.7761,-2.8589,-2.8843,-2.8587,-2.7864,-2.8241,-2.926,-2.7859,-2.8028,-2.9292,-2.9769,-2.9861,-2.991,-3.1715,-3.1649,-3.0946,0.0,0.0,0.0,0.0,0.0,0.0,0.0,0.0,0.0,0.0,0.0,0.0,0.0,0.0,0.0,0.0,0.0,0.0,0.0,0.0,-2.5661,-2.5703,-2.5662,-2.5658,-2.5658,-2.5629,0.0,0.0,0.0,0.0,0.0,0.0,0.0,0.0,0.0,0.0,0.0,0.0,-2.566,-2.5601,-2.5601,0.0,-2.5595,-2.5498,-2.5428,-2.5398,-2.5363,-2.534,-2.536,-2.5813,-2.5695,0.0,0.0,-2.5493,-2.5535,0.0,-2.5659,-2.5607,0.0,0.0,0.0,-2.5703,0.0,0.0,0.0,-2.5658,-2.5636,0.0,0.0,0.0,0.0,0.0,0.0,0.0,0.0,0.0,0.0,0.0,0.0,0.0,0.0,0.0,0.0,-2.5063,-2.5303,-2.5303,-2.5303,-2.5303,-2.5303,-2.5303,-2.5303,-2.5303,-2.5303,-2.5303,-2.5303,-2.5726,-2.5947,-2.5967,-2.7274,-2.7596,-2.7075,-2.7931,-2.8229,-2.8075,-2.7578,-2.7751,-2.8328,-2.7414,-2.7699,-2.8719,-2.8927,-2.9044,-2.9292,-3.084,-3.1096,-3.0936,0.0,0.0,0.0,0.0,0.0,0.0,0.0,0.0,0.0,0.0,0.0,0.0,0.0,0.0,0.0,0.0,0.0,0.0,0.0,0.0,0.0,-2.5683,-2.5683,-2.5703,-2.5703,-2.5703,-2.5703,0.0,0.0,0.0,0.0,0.0,0.0,0.0,0.0,0.0,0.0,0.0,0.0,-2.5517,0.0,-2.5724,-2.5885,-2.5766,-2.5698,-2.5673,-2.5456,-2.5348,-2.5399,-2.612,0.0,-2.5391,-2.5465,-2.5463,0.0,0.0,0.0,0.0,0.0,0.0,0.0,0.0,0.0,-2.5661,0.0,0.0,0.0,0.0,0.0,0.0,0.0,0.0,0.0,0.0,0.0,0.0,0.0,0.0,0.0,0.0,0.0,0.0,0.0,-2.4715,-2.5091,-2.5091,-2.5226,-2.5322,-2.5322,-2.5303,-2.5303,-2.5303,-2.5303,-2.5303,-2.5303,-2.6005,-2.6005,-2.5322,-2.6909,-2.7198,-2.639,-2.7201,-2.7574,-2.7543,-2.7255,-2.7227,-2.739,-2.7176,-2.7532,-2.8207,-2.7993,-2.8466,-2.9363,-3.0019,-3.0575,-3.1146,-2.1815,-2.2998,0.0,0.0,0.0,0.0,0.0,0.0,0.0,0.0,0.0,0.0,0.0,0.0,0.0,0.0,0.0,0.0,-2.7815,0.0,0.0,0.0,-2.5662,-2.5703,-2.5703,-2.5703,-2.5703,0.0,0.0,0.0,0.0,0.0,0.0,0.0,-2.5664,0.0,0.0,0.0,-2.5611,0.0,-2.5567,-2.6002,0.0,-2.6504,-2.6468,-2.6372,-2.5582,-2.5322,-2.5322,0.0,-2.539,-2.5312,0.0,-2.5371,0.0,0.0,0.0,0.0,0.0,0.0,0.0,0.0,-2.5564,0.0,0.0,0.0,0.0,0.0,0.0,0.0,0.0,0.0,0.0,0.0,0.0,0.0,0.0,0.0,0.0,0.0,0.0,0.0,0.0,0.0,-2.4314,-2.4314,-2.4984,-2.5383,-2.5391,-2.533,-2.5303,-2.5303,-2.5303,-2.5303,-2.5303,-2.5399,-2.5399,-2.5303,-2.6274,-2.6294,-2.5476,-2.6341,-2.6745,-2.6687,-2.5836,-2.6242,-2.7437,-2.6654,-2.6783,-2.7574,-2.8114,-2.8836,-2.9645,-3.0309,-3.0129,-2.9842,-2.193,-2.3609,0.0,0.0,0.0,0.0,0.0,0.0,0.0,0.0,0.0,0.0,0.0,0.0,0.0,0.0,0.0,-2.6442,0.0,0.0,0.0,0.0,0.0,0.0,-2.5637,-2.5683,-2.5703,-2.5703,-2.5703,0.0,0.0,0.0,0.0,0.0,-2.5469,0.0,-2.4826,0.0,0.0,0.0,0.0,0.0,0.0,-2.6134,-2.5933,-2.5857,-2.5447,-2.5303,-2.5303,0.0,-2.534,0.0,0.0,0.0,0.0,0.0,0.0,0.0,0.0,0.0,0.0,0.0,0.0,0.0,-2.5543,0.0,-2.5561,0.0,0.0,0.0,0.0,0.0,0.0,0.0,0.0,0.0,0.0,0.0,0.0,0.0,0.0,0.0,0.0,0.0,0.0,0.0,-2.4198,-2.466,-2.4651,-2.5052,-2.5303,-2.5303,-2.5303,-2.5303,-2.5303,-2.5303,-2.5303,-2.5303,-2.5668,-2.5649,-2.5303,-2.5668,-2.5851,-2.5822,-2.5437,-2.5636,-2.6224,-2.6366,-2.6929,-2.7758,-2.8504,-2.8927,-2.9158,-2.9795,-2.9734,-2.9556,-2.2539,0.0,0.0,0.0,0.0,0.0,0.0,0.0,0.0,0.0,0.0,0.0,-2.6992,-2.7422,0.0,0.0,0.0,-2.7084,0.0,0.0,-2.5561,0.0,0.0,0.0,0.0,0.0,-2.5662,-2.5662,0.0,0.0,0.0,0.0,0.0,0.0,0.0,-2.5279,-2.4593,0.0,0.0,-2.5361,-2.6056,-2.6301,-2.6217,-2.5917,-2.5621,-2.5379,-2.5322,-2.5303,-2.5303,-2.5303,-2.533,0.0,-2.5379,0.0,0.0,0.0,0.0,0.0,-2.5503,0.0,0.0,0.0,0.0,0.0,0.0,0.0,0.0,0.0,0.0,0.0,0.0,0.0,0.0,0.0,0.0,0.0,0.0,0.0,0.0,0.0,0.0,0.0,0.0,0.0,0.0,-2.2571,-2.3534,-2.4133,-2.4124,-2.487,-2.5303,-2.5303,-2.5303,-2.5303,-2.5303,-2.5303,-2.5303,-2.5303,-2.5303,-2.5303,-2.5303,-2.5303,-2.5303,-2.5303,-2.5303,-2.5437,-2.5707,-2.6601,-2.7467,-2.8313,-2.9121,-2.9334,-2.9203,-2.9574,-2.9644,-2.9625,-2.418,-2.4394,0.0,0.0,0.0,0.0,0.0,0.0,0.0,0.0,0.0,0.0,0.0,0.0,0.0,0.0,0.0,-2.848,-2.9221,0.0,-2.5543,0.0,0.0,-2.5567,0.0,0.0,0.0,0.0,0.0,0.0,0.0,0.0,0.0,0.0,0.0,-2.5611,-2.5454,-2.5567,-2.5473,-2.5322,-2.5406,-2.5401,-2.5418,0.0,-2.6034,-2.5293,-2.5303,0.0,0.0,-2.5303,-2.5313,0.0,0.0,0.0,0.0,0.0,0.0,0.0,0.0,0.0,0.0,-2.5394,0.0,0.0,0.0,0.0,-2.5415,0.0,0.0,0.0,0.0,0.0,0.0,0.0,0.0,0.0,0.0,0.0,0.0,0.0,0.0,0.0,0.0,0.0,0.0,-2.1741,-2.3266,-2.4208,-2.4199,-2.4896,-2.5303,-2.5303,-2.5303,-2.5303,-2.5303,-2.5303,-2.5303,-2.5303,-2.5303,-2.5303,-2.5303,-2.5303,-2.5303,-2.5303,-2.5303,-2.5793,-2.664,-2.7505,-2.8332,-2.914,-3.0025,-3.034,-3.0316,-3.0075,-2.9927,-2.9952,0.0,0.0,0.0,0.0,0.0,0.0,0.0,-2.6149,0.0,0.0,0.0,0.0,0.0,0.0,-3.0456,0.0,0.0,-2.8906,-2.8549,-2.7768,0.0,0.0,0.0,-2.6087,0.0,0.0,0.0,0.0,0.0,0.0,0.0,0.0,0.0,0.0,0.0,-2.5631,0.0,0.0,0.0,0.0,0.0,-2.5678,-2.614,0.0,0.0,-2.5303,-2.5303,-2.5214,0.0,-2.5264,-2.5214,-2.5111,-2.5264,-2.5214,-2.5111,-2.5135,-2.5137,0.0,0.0,0.0,-2.5177,-2.5302,0.0,0.0,0.0,0.0,0.0,0.0,0.0,0.0,0.0,0.0,0.0,0.0,0.0,0.0,0.0,0.0,0.0,0.0,0.0,0.0,0.0,0.0,0.0,-2.0901,-2.2411,-2.334,-2.3334,-2.4578,-2.5303,-2.5303,-2.5303,-2.5303,-2.5303,-2.5303,-2.5322,-2.5365,-2.5365,-2.5365,-2.5365,-2.5365,-2.533,-2.5322,-2.5909,-2.6332,-2.6717,-2.8121,-2.8852,-2.9179,-3.0063,-3.0398,-3.0367,-3.026,-3.0099,-3.0026,-2.4703,0.0,0.0,0.0,0.0,0.0,0.0,0.0,0.0,0.0,-2.9744,0.0,-3.0677,0.0,-3.1332,0.0,-3.0182,-2.9498,-2.854,-2.8026,0.0,-2.5823,-2.6139,0.0,0.0,0.0,0.0,0.0,0.0,-2.5561,0.0,0.0,0.0,0.0,0.0,0.0,0.0,0.0,-2.5406,0.0,0.0,-2.559,0.0,0.0,-2.5426,-2.5726,0.0,-2.516,-2.5053,-2.5138,-2.5072,-2.4993,-2.5171,-2.5141,-2.5022,-2.501,-2.501,-2.4998,-2.4937,-2.4943,0.0,-2.5103,-2.5018,0.0,-2.5084,0.0,0.0,0.0,0.0,0.0,0.0,0.0,0.0,0.0,0.0,0.0,0.0,-2.5703,0.0,0.0,0.0,0.0,0.0,0.0,-2.0781,-2.0451,-2.1988,-2.2914,0.0,0.0,-2.5303,-2.5303,-2.5303,-2.5303,-2.5303,-2.5312,-2.5365,-2.5395,-2.5425,-2.5439,-2.5432,-2.5444,-2.5406,-2.536,-2.5947,-2.6526,-2.714,-2.8238,-2.9028,-2.9621,-3.0179,-3.0398,-3.0398,-3.0362,-3.0182,-3.0106,0.0,0.0,0.0,0.0,-2.5637,0.0,0.0,0.0,-2.8541,0.0,-3.106,-3.1741,-3.0905,-3.224,-3.2512,-3.0814,-3.0619,0.0,-2.9264,-2.7844,0.0,0.0,-2.5906,-2.5473,-2.5293,0.0,0.0,0.0,0.0,0.0,0.0,0.0,0.0,0.0,-2.5493,0.0,-2.5394,-2.5394,-2.5363,-2.5274,-2.5274,-2.5171,-2.5056,-2.5018,-2.5646,-2.6436,-2.5444,-2.5072,-2.5049,-2.4923,-2.4888,-2.4896,-2.5037,-2.5103,-2.5072,-2.4998,-2.4967,-2.4962,-2.4828,-2.479,-2.479,-2.4804,0.0,0.0,0.0,0.0,-2.479,0.0,0.0,0.0,0.0,0.0,0.0,0.0,0.0,0.0,0.0,0.0,0.0,0.0,0.0,0.0,0.0,-2.2438,-2.1528,-2.0457,-2.2041,-2.2984,0.0,0.0,-2.5293,-2.5303,-2.5293,-2.5293,-2.5293,-2.5368,-2.5406,-2.541,-2.5473,-2.5502,-2.5504,-2.5492,-2.5473,-2.5414,-2.5565,-2.6464,-2.7843,-2.7981,-2.8934,-3.0352,-3.0379,-3.0398,-3.0398,-3.0398,-3.0241,-3.0228,-2.5485,-2.5629,-2.5703,0.0,-2.5637,-2.5709,0.0,0.0,0.0,0.0,-3.1944,-3.2907,-3.2518,-3.2908,-3.2733,-3.1592,-3.0944,0.0,0.0,0.0,0.0,-2.5809,-2.6149,-2.6052,-2.5332,-2.5322,0.0,-2.534,0.0,0.0,-2.5428,0.0,0.0,0.0,0.0,0.0,-2.5398,-2.5398,-2.5272,-2.5077,-2.4975,-2.5256,0.0,0.0,-2.5394,-2.6043,-2.5186,-2.4771,-2.4666,-2.479,-2.4727,-2.4632,-2.4823,-2.4877,-2.4845,-2.4737,-2.4762,-2.4804,-2.4632,-2.457,-2.4601,-2.4756,-2.4685,-2.4607,0.0,0.0,0.0,0.0,0.0,0.0,0.0,0.0,0.0,0.0,0.0,0.0,0.0,0.0,0.0,-2.5703,0.0,0.0,-2.4159,-2.324,-2.2354,-2.148,-2.295,-2.3599,0.0,0.0,0.0,-2.5313,-2.5357,-2.536,-2.5368,-2.5447,-2.5503,-2.5554,-2.557,-2.5566,-2.5565,-2.5561,-2.554,-2.5536,-2.6803,-2.7226,-2.7149,-2.9043,-2.9708,-2.958,-3.0171,-3.0398,-3.0398,-3.0398,-3.033,-3.0259,-2.5551,0.0,0.0,-2.6269,0.0,0.0,-2.7255,0.0,0.0,-3.1568,-3.2674,0.0,-3.2596,-3.2548,-3.22,-3.131,-3.0438,0.0,0.0,0.0,0.0,-2.5981,-2.6052,-2.5873,-2.5313,-2.5303,0.0,-2.5303,0.0,0.0,-2.5363,0.0,0.0,0.0,0.0,-2.5391,0.0,-2.5263,-2.5137,-2.4998,-2.4855,0.0,0.0,-2.4839,-2.4888,-2.5159,-2.4694,-2.4526,-2.451,-2.4559,-2.451,-2.4441,-2.4648,-2.4708,-2.4712,-2.462,-2.4651,-2.4663,-2.4458,-2.4425,-2.4424,-2.4526,-2.4459,-2.4409,-2.4512,-2.4444,-2.441,0.0,0.0,0.0,0.0,0.0,0.0,0.0,0.0,0.0,0.0,0.0,0.0,0.0,-2.5703,0.0,-2.5019,-2.415,-2.3252,-2.2386,-2.3521,0.0,0.0,0.0,0.0,-2.5391,-2.6165,-2.621,-2.5447,-2.6266,-2.6321,-2.5593,-2.5627,-2.5842,-2.6203,-2.5827,-2.5823,-2.617,-2.7142,-2.7471,-2.742,-2.8865,-2.9597,-2.9852,-3.0286,-3.0447,-3.0436,-3.0421,-3.0386,-3.0388,0.0,0.0,0.0,0.0,0.0,0.0,0.0,-3.0292,0.0,-3.2824,0.0,-3.2965,-3.1902,-3.1736,-3.1337,-3.0394,0.0,-2.9033,-2.8891,-2.7524,-2.6633,-2.6458,-2.5777,-2.5371,-2.5313,-2.5274,0.0,0.0,0.0,0.0,0.0,0.0,0.0,0.0,0.0,0.0,0.0,-2.5053,-2.4962,0.0,-2.4785,-2.4607,-2.4461,-2.4461,-2.4339,-2.419,-2.419,-2.4302,-2.4441,-2.4339,-2.4303,-2.4321,-2.4493,-2.4575,-2.4591,-2.4575,-2.4591,-2.4559,-2.4375,-2.4303,-2.4284,-2.4229,-2.421,-2.4192,-2.419,-2.419,-2.419,-2.419,-2.419,-2.419,0.0,0.0,0.0,0.0,0.0,0.0,0.0,0.0,0.0,0.0,0.0,0.0,0.0,-2.5,-2.4173,-2.3244,0.0,0.0,0.0,0.0,0.0,-2.5493,-2.6987,-2.7147,-2.5877,0.0,-2.7227,-2.5952,-2.5894,-2.621,-2.6813,-2.6283,-2.6294,-2.6769,-2.7047,-2.7397,-2.7814,-2.814,-2.9187,-3.0586,-3.0539,-3.0511,-3.0501,-3.0436,-3.0421,-3.0518,0.0,0.0,0.0,0.0,0.0,-2.9322,-3.0244,-3.1125,-3.178,-3.2008,-3.3359,-3.3623,-3.1896,-3.1767,-3.113,-2.9484,-2.9245,0.0,0.0,0.0,0.0,-2.5646,-2.5488,-2.5371,-2.5313,-2.5141,-2.5046,0.0,0.0,0.0,0.0,0.0,0.0,0.0,0.0,0.0,-2.5034,-2.491,0.0,-2.4556,-2.4393,-2.4284,-2.4247,-2.4247,-2.4228,-2.419,-2.419,-2.4228,-2.4247,-2.4228,-2.4228,-2.4229,-2.4266,-2.4372,-2.4508,-2.4445,-2.4512,-2.4559,-2.4429,-2.4394,-2.4376,-2.4284,-2.4229,-2.4192,-2.4192,-2.419,-2.419,-2.419,-2.419,-2.419,-2.419,0.0,0.0,0.0,0.0,0.0,0.0,0.0,0.0,0.0,0.0,0.0,0.0,0.0,0.0,0.0,0.0,0.0,0.0,0.0,0.0,0.0,-2.5847,0.0,0.0,0.0,-2.6718,-2.7811,-2.7109,-2.6484,-2.5973,-2.7262,-2.7141,-2.5998,-2.7442,-2.734,-2.6272,-2.8322,-2.9741,-3.0613,-3.0591,-3.0576,-3.0577,-3.052,-3.0479,-3.0497,0.0,0.0,0.0,0.0,0.0,0.0,0.0,-3.1543,0.0,-3.1753,-3.2134,-3.2075,-3.1126,-3.0662,-3.0047,-2.9217,-2.8348,-2.7516,-2.6742,-2.6258,-2.5828,-2.5376,-2.5357,0.0,-2.5152,-2.5046,-2.4962,-2.4891,0.0,0.0,0.0,0.0,0.0,0.0,0.0,-2.5053,0.0,0.0,0.0,-2.4478,-2.4284,-2.419,-2.419,-2.419,-2.419,-2.419,-2.419,-2.419,-2.419,-2.419,-2.4209,-2.4209,-2.4192,-2.4266,-2.4337,-2.4339,-2.441,-2.4479,-2.443,-2.443,-2.443,-2.4339,-2.4284,-2.4247,-2.4209,-2.4209,-2.419,-2.419,-2.419,-2.419,-2.419,-2.4357,0.0,0.0,0.0,0.0,0.0,0.0,0.0,0.0,0.0,0.0,0.0,0.0,0.0,0.0,0.0,0.0,0.0,0.0,0.0,0.0,0.0,0.0,0.0,0.0,0.0,-2.7617,-2.7207,-2.7012,-2.707,-2.7441,-2.7401,-2.7106,-2.7945,-2.7828,-2.7202,-2.9279,-3.0099,-3.0063,-3.0495,-3.0646,-3.0634,-3.0576,-3.054,-3.0499,0.0,-2.9174,0.0,0.0,-3.0072,0.0,-3.1418,-3.1463,-3.1487,-3.1679,-3.0992,-3.0462,-3.0421,-2.9467,-2.8867,-2.8915,-2.7499,-2.6535,-2.6409,-2.5716,-2.5303,-2.5303,-2.5264,-2.5182,-2.4991,-2.493,-2.4831,0.0,0.0,0.0,0.0,0.0,0.0,0.0,0.0,0.0,0.0,0.0,-2.4478,-2.4409,-2.4247,-2.419,-2.419,-2.419,-2.419,-2.419,-2.419,-2.419,-2.419,-2.419,-2.419,-2.419,-2.4191,-2.421,-2.421,-2.4266,-2.4321,-2.4358,-2.4358,-2.443,-2.4429,-2.4339,-2.4284,-2.4266,-2.4209,-2.419,-2.419,-2.419,-2.419,-2.419,-2.419,-2.4339,0.0,0.0,0.0,0.0,0.0,0.0,0.0,0.0,0.0,0.0,0.0,0.0,0.0,0.0,0.0,0.0,0.0,0.0,0.0,0.0,0.0,-2.7676,-2.7537,0.0,-2.7871,-2.7559,-2.7559,-2.7812,-2.8281,-2.7969,-2.8008,-2.8301,-2.8496,-2.8574,-2.8672,-2.9997,-3.0247,-2.9847,-3.0469,-3.073,-3.0703,-3.0651,-3.0582,-3.053,0.0,0.0,0.0,0.0,0.0,0.0,0.0,-3.0557,-3.0814,-3.1602,-3.096,-3.0402,-3.041,-2.8967,-2.8016,-2.8027,-2.715,-2.6274,-2.5476,-2.5351,-2.5303,-2.5303,-2.5182,-2.5084,-2.501,-2.47,-2.4538,0.0,0.0,0.0,0.0,0.0,0.0,0.0,0.0,0.0,0.0,-2.4512,-2.4393,-2.4228,-2.4209,-2.419,-2.419,-2.419,-2.419,-2.419,-2.419,-2.419,-2.419,-2.419,-2.419,-2.419,-2.419,-2.419,-2.4209,-2.421,-2.421,-2.4229,-2.4284,-2.4303,-2.4321,-2.4303,-2.4266,-2.421,-2.4192,-2.4209,-2.419,-2.419,-2.419,-2.419,-2.419,-2.4209,-2.4284,0.0,0.0,0.0,0.0,0.0,0.0,0.0,0.0,0.0,0.0,0.0,0.0,0.0,0.0,0.0,0.0,0.0,0.0,-2.6752,0.0,-2.7009,-2.9235,-2.7849,-2.7871,-2.9355,-2.9355,-2.8984,-2.8359,-2.9844,-2.9726,-2.834,-2.9141,-2.9473,-2.9492,-2.9646,-3.0093,-3.0697,-3.0765,-3.0794,-3.0785,-3.072,-3.0695,-3.0671,0.0,0.0,0.0,0.0,0.0,0.0,0.0,-3.0425,-3.0533,-3.0871,-3.0621,-3.0198,-2.9679,-2.8582,-2.7678,-2.7178,-2.6332,-2.5668,-2.5322,-2.5303,-2.5264,-2.5182,-2.5138,-2.4968,-2.4718,-2.4567,-2.4441,0.0,0.0,0.0,0.0,0.0,0.0,0.0,0.0,-2.4793,-2.4321,-2.4321,-2.4266,-2.419,-2.419,-2.419,-2.419,-2.419,-2.419,-2.419,-2.419,-2.419,-2.419,-2.419,-2.419,-2.419,-2.419,-2.419,-2.419,-2.419,-2.4191,-2.421,-2.4229,-2.4266,-2.4284,-2.4247,-2.421,-2.4192,-2.4209,-2.4209,-2.419,-2.419,-2.419,-2.419,-2.419,-2.4054,-2.4019,0.0,0.0,0.0,0.0,0.0,0.0,0.0,0.0,0.0,0.0,0.0,0.0,0.0,0.0,0.0,0.0,0.0,0.0,-2.6863,0.0,-2.6618,-2.8641,-2.7475,-2.7245,-2.798,-2.9036,-2.9098,-2.834,-2.9551,-2.9746,-2.9101,-2.9453,-2.9902,-3.0371,-3.0371,-3.0566,-3.0859,-3.0857,-3.0831,-3.0796,-3.0771,-3.0724,-3.07,-3.0548,0.0,-3.0521,0.0,-3.0463,-3.0452,-3.0402,-3.0398,-3.0398,-3.0398,-3.0355,-2.9997,-2.9198,-2.814,-2.7274,-2.6659,-2.5813,-2.5274,-2.5243,-2.5243,-2.5171,-2.5056,-2.5,0.0,-2.4582,-2.4489,-2.4391,-2.4284,-2.4798,0.0,0.0,0.0,0.0,0.0,-2.4687,-2.4543,-2.419,-2.419,-2.419,-2.419,-2.419,-2.419,-2.419,-2.419,-2.419,-2.419,-2.419,-2.419,-2.419,-2.419,-2.419,-2.419,-2.419,-2.419,-2.419,-2.419,-2.419,-2.4191,-2.4191,-2.4229,-2.4266,-2.421,-2.4191,-2.4191,-2.4209,-2.419,-2.417,-2.4094,-2.4074,-2.4036,-2.3937,-2.3774,-2.3717,-2.4061,0.0,0.0,0.0,0.0,0.0,0.0,0.0,-2.4695,-2.4301,0.0,0.0,0.0,0.0,0.0,0.0,0.0,0.0,0.0,0.0,0.0,0.0,-2.7579,-2.7444,-2.7264,-2.9,-2.9542,-2.9035,-2.9664,-2.996,-2.9941,-2.9961,-3.0332,-3.0898,-3.0898,-3.0898,-3.0898,-3.0898,-3.0877,-3.0829,-3.0829,-3.0799,-3.0732,-3.0665,-3.0451,-3.041,-3.041,-3.041,-3.041,-3.0398,-3.0398,-3.0398,-3.0398,-3.0241,-2.9838,-2.9167,-2.7601,-2.6621,-2.6601,-2.5813,-2.5243,-2.5096,-2.5096,-2.5037,0.0,0.0,-2.4731,-2.4809,-2.4476,-2.4375,-2.4495,0.0,0.0,-2.4226,0.0,-2.5078,-2.4532,-2.5133,-2.4962,-2.419,-2.419,-2.419,-2.419,-2.419,-2.419,-2.419,-2.419,-2.419,-2.419,-2.419,-2.419,-2.419,-2.419,-2.419,-2.419,-2.419,-2.419,-2.419,-2.419,-2.419,-2.419,-2.419,-2.419,-2.419,-2.419,-2.419,-2.419,-2.419,-2.419,-2.4113,-2.3876,-2.3795,-2.3692,-2.3369,-2.3369,-2.3369,-2.3236,0.0,0.0,0.0,0.0,0.0,0.0,-2.3818,-2.4129,-2.3107,0.0,0.0,0.0,0.0,0.0,0.0,0.0,0.0,-2.6762,-2.6801,0.0,-2.6715,-2.8418,-2.8863,-2.8115,-2.9788,-3.0617,-3.0672,-3.0746,-3.0784,-3.0792,-3.0859,-3.0898,-3.0898,-3.0898,-3.0898,-3.0898,-3.0898,-3.0898,-3.0898,-3.0898,-3.0857,-3.0808,-3.0486,-3.0414,-3.0398,-3.0398,-3.0398,-3.0398,-3.0398,-3.0267,-3.0182,-3.0136,-2.956,-2.8821,-2.7961,-2.7437,-2.6689,0.0,-2.5184,-2.5019,0.0,-2.4949,-2.4883,-2.4697,-2.4654,-2.4559,-2.4388,-2.4302,-2.4247,-2.4303,0.0,0.0,0.0,-2.5293,-2.5001,-2.4284,-2.4504,-2.4428,-2.419,-2.419,-2.419,-2.419,-2.419,-2.419,-2.419,-2.419,-2.419,-2.419,-2.419,-2.4074,-2.3955,-2.4151,-2.3996,-2.3735,-2.3937,-2.4094,-2.419,-2.419,-2.419,-2.419,-2.419,-2.419,-2.419,-2.419,-2.419,-2.419,-2.419,-2.4074,-2.3896,-2.3816,-2.3649,-2.3482,-2.3392,-2.32,-2.3122,-2.3253,-2.3069,0.0,0.0,0.0,0.0,0.0,0.0,-2.4316,0.0,-2.3989,0.0,0.0,0.0,0.0,0.0,0.0,0.0,0.0,-2.674,0.0,-2.7509,-2.8076,-2.8244,-2.8058,-2.9174,-3.0043,-3.0631,-3.07,-3.0726,-3.074,-3.0795,-3.0859,-3.0898,-3.0898,-3.0898,-3.0898,-3.0898,-3.0898,-3.0898,-3.0898,-3.0898,-3.0878,-3.0398,-3.0398,-3.0398,-3.0398,-3.0398,-3.0367,-3.0299,-3.0182,-2.9966,-2.9555,-2.8941,-2.8107,-2.6906,-2.6726,0.0,-2.5002,-2.4869,-2.4842,-2.4785,-2.4771,-2.4666,-2.4512,-2.4495,-2.4425,-2.432,0.0,0.0,-2.4321,-2.4744,-2.4962,-2.4962,-2.4962,-2.4667,-2.419,-2.419,-2.4373,-2.463,-2.4318,-2.4334,-2.4474,-2.4164,-2.3996,-2.3896,-2.3896,-2.3896,-2.3896,-2.3896,-2.3816,-2.3714,-2.3876,-2.3774,-2.3566,-2.3735,-2.3858,-2.3958,-2.3958,-2.4016,-2.4094,-2.4094,-2.4151,-2.419,-2.419,-2.419,-2.419,-2.419,-2.3996,-2.3774,-2.3671,-2.3473,-2.3265,-2.3105,-2.2943,-2.2833,-2.2933,-2.2755,-2.2669,-2.2849,0.0,0.0,0.0,0.0,0.0,0.0,-2.3642,0.0,0.0,0.0,0.0,0.0,0.0,0.0,-2.6097,-2.6792,0.0,-2.7409,-2.8354,-2.8704,-2.8425,-2.9293,-2.9849,-3.0086,-3.0471,-3.0497,-3.024,-3.0599,-3.081,-3.0856,-3.0858,-3.0859,-3.0859,-3.0898,-3.0898,-3.0898,-3.0898,-3.0898,-3.0898,-3.0398,-3.0398,0.0,0.0,-3.0398,0.0,-3.0136,-3.0095,-2.977,-2.8862,-2.842,-2.7622,-2.6122,-2.5634,-2.5279,-2.4889,0.0,0.0,0.0,-2.4524,-2.4424,-2.4303,-2.4284,-2.4356,-2.4472,-2.4302,-2.4284,-2.4478,-2.434,-2.4281,-2.4281,-2.4337,-2.4337,-2.4281,-2.4337,-2.4704,-2.5254,-2.4556,-2.4509,-2.4824,-2.4064,-2.361,-2.3392,-2.3392,-2.3392,-2.3392,-2.3414,-2.3455,-2.3477,-2.35,-2.3522,-2.3544,-2.3584,-2.3584,-2.3584,-2.3588,-2.3735,-2.3896,-2.3896,-2.4016,-2.417,-2.417,-2.417,-2.417,-2.417,-2.3958,-2.3692,-2.3414,-2.3212,-2.2995,-2.2659,-2.2596,-2.2569,-2.2405,-2.2394,-2.2394,-2.2338,0.0,0.0,0.0,0.0,0.0,0.0,-2.2898,-2.2989,0.0,0.0,0.0,0.0,0.0,-2.5964,-2.5187,-2.6995,-2.7572,-2.6783,-2.911,-2.991,-2.9113,-2.9982,-3.0004,-2.9303,-3.019,-3.0176,-2.9518,-3.0346,-3.0732,-3.0794,-3.079,-3.0796,-3.0817,-3.0879,-3.0898,-3.0898,-3.0898,-3.0859,-3.0801,0.0,0.0,-3.0398,-3.0398,-3.0398,-3.0323,-3.0136,-2.9958,-2.9725,-2.9289,-2.7978,-2.6931,-2.6558,-2.5355,-2.4542,-2.4445,-2.4444,-2.4409,-2.4356,-2.4356,-2.4302,-2.4229,-2.421,-2.4247,-2.4284,-2.4228,-2.4209,-2.4266,-2.4834,-2.5127,-2.5146,-2.5731,-2.5695,-2.5146,-2.5768,-2.5338,-2.4205,-2.4641,-2.4422,-2.375,-2.3571,-2.3477,-2.3392,-2.3392,-2.3392,-2.3414,-2.3459,-2.3382,-2.3301,-2.3518,-2.3382,-2.3182,-2.3389,-2.3342,-2.3277,-2.3518,-2.3631,-2.3692,-2.3876,-2.3816,-2.3774,-2.3876,-2.3896,-2.3896,-2.3896,-2.3692,-2.3432,-2.323,-2.2977,-2.2764,-2.2605,-2.2569,-2.2487,-2.2405,-2.2366,-2.2405,-2.2642,-2.2755,0.0,0.0,-2.3212,-2.33,-2.3212,-2.2898,-2.3117,0.0,0.0,0.0,0.0,-2.6932,-2.7088,-2.5834,-2.7656,-2.8562,-2.8371,-2.9056,-2.9294,-2.9102,-2.9967,-3.0306,-3.0125,-3.0404,-3.0423,-3.025,-3.0503,-3.0653,-3.0723,-3.071,-3.0784,-3.0875,-3.0897,-3.0897,-3.0896,-3.0897,-3.0486,-2.9919,-3.0367,-3.0379,-3.0367,-3.0286,-3.0254,-3.0169,-2.9912,-2.9748,-2.9457,-2.8835,-2.7874,-2.6956,-2.6236,-2.5333,-2.4652,-2.4284,-2.4247,-2.4266,-2.4266,-2.4247,-2.4228,-2.4191,-2.4209,-2.419,-2.419,-2.4557,-2.4924,-2.5309,-2.5731,-2.5952,-2.5952,-2.641,-2.6374,-2.5952,-2.5884,-2.5521,-2.4864,-2.4446,-2.4086,-2.3785,-2.3407,-2.3194,-2.3074,-2.3074,-2.3098,-2.3122,-2.317,-2.3157,-2.3126,-2.3212,-2.3109,-2.297,-2.3052,-2.3045,-2.3052,-2.3236,-2.3399,-2.3513,-2.3642,-2.3646,-2.361,-2.3649,-2.3692,-2.3692,-2.3631,-2.345,-2.3259,-2.3126,-2.2893,-2.2685,-2.2605,-2.2542,-2.2487,-2.2405,-2.2453,-2.2554,-2.2747,-2.2865,0.0,-2.3473,-2.3508,-2.3457,-2.3354,-2.348,-2.3749,-2.419,-2.5306,0.0,-2.6087,-2.7551,-2.7803,-2.6507,-2.7938,-2.8726,-2.8755,-2.9289,-2.9601,-2.9698,-3.0179,-3.0198,-2.9813,-3.0263,-3.0239,-2.9931,-3.0363,-3.0591,-3.0645,-3.0647,-3.0724,-3.0819,-3.0808,-3.0853,-3.0857,-3.0447,-3.0016,-2.9546,-3.0222,-3.0254,-3.026,-3.0095,-3.0047,-2.9943,-2.9662,-2.9533,-2.9174,-2.8283,-2.7899,-2.7227,-2.5978,-2.5478,-2.4999,-2.4428,-2.4265,-2.4192,-2.4192,-2.419,-2.4245,-2.4373,-2.4373,-2.4428,-2.4557,-2.5217,-2.5915,-2.6612,-2.6722,-2.6778,-2.6778,-2.6735,-2.6735,-2.6677,-2.5746,-2.5543,-2.5804,-2.4336,-2.385,-2.3989,-2.3315,-2.2902,-2.2712,-2.2712,-2.2764,-2.2816,-2.2816,-2.285,-2.2944,-2.2842,-2.2816,-2.2868,-2.2738,-2.279,-2.2868,-2.2868,-2.307,-2.3313,-2.3383,-2.3486,-2.354,-2.3495,-2.3518,-2.3518,-2.3387,-2.3348,-2.3291,-2.3087,-2.2955,-2.2823,-2.264,-2.2542,-2.2521,-2.2558,-2.2596,-2.2695,-2.2868,0.0,-2.3403,-2.3838,-2.3974,-2.3904,-2.3692,-2.4271,-2.4555,-2.4388,-2.5631,-2.64,-2.6411,-2.787,-2.8246,-2.7288,-2.8162,-2.869,-2.879,-2.966,-3.0182,-3.0355,-3.0398,-3.0006,-2.9313,-3.0063,-3.0029,-2.9427,-3.0162,-3.0511,-3.0576,-3.0576,-3.0549,-3.0501,-3.0501,-3.0562,-3.0577,-2.9719,-2.9386,-2.9267,-2.9799,-2.9799,-2.9832,-2.9934,-2.9851,-2.9731,-2.9626,-2.9513,-2.9295,-2.8972,-2.7684,-2.6982,-2.7405,-2.5603,-2.4612,-2.5182,-2.4595,-2.4209,-2.4209,-2.419,-2.4502,-2.5182,-2.5219,-2.5529,-2.6209,-2.6355,-2.6465,-2.6612,-2.7273,-2.7603,-2.7603,-2.7369,-2.7318,-2.7331,-2.6952,-2.5958,-2.4605,-2.5004,-2.4305,-2.2946,-2.2799,-2.2738,-2.2712,-2.2764,-2.279,-2.2816,-2.2816,-2.2816,-2.2816,-2.2738,-2.2712,-2.2738,-2.2712,-2.2712,-2.2738,-2.2738,-2.2764,-2.2893,-2.3289,-2.3383,-2.3342,-2.3389,-2.3342,-2.3247,-2.3247,-2.3643,-2.3797,-2.2937,-2.3239,-2.3399,-2.2644,-2.2515,-2.2664,-2.3151,-2.2756,-2.2692,-2.3594,0.0,-2.35,-2.3853,-2.427,-2.4488,-2.4428,-2.4654,-2.5005,-2.5579,-2.6097,-2.6678,-2.7344,-2.8174,-2.8567,-2.8432,-2.9037,-2.9455,-2.9696,-2.998,-3.0122,-3.0136,-3.0311,-3.0321,-3.0198,-3.034,-3.0333,-3.0229,-3.0364,-3.0449,-3.053,-3.0519,-3.0153,-2.9596,-2.9594,-2.9619,-2.9522,-2.872,-2.8411,-2.8306,-2.966,-2.9746,-2.9763,-2.9661,-2.9661,-2.9626,-2.9414,-2.931,-2.9222,-2.9112,-2.8419,-2.7879,-2.7805,-2.6796,-2.5933,-2.5439,-2.5456,-2.5309,-2.4869,-2.4832,-2.5017,-2.5384,-2.5805,-2.641,-2.7236,-2.7255,-2.7457,-2.7897,-2.8264,-2.8164,-2.7657,-2.7505,-2.7193,-2.6736,-2.643,-2.5824,-2.4996,-2.4813,-2.4199,-2.3308,-2.2946,-2.2764,-2.2712,-2.2816,-2.2893,-2.2893,-2.2842,-2.2816,-2.2842,-2.2659,-2.2579,-2.2579,-2.2515,-2.2525,-2.2579,-2.2579,-2.2632,-2.2764,-2.3045,-2.3119,-2.3077,-2.3095,-2.307,-2.3125,-2.3398,-2.3736,-2.3969,-2.3964,-2.4212,-2.4293,-2.379,-2.3369,-2.3295,-2.3879,-2.3159,0.0,0.0,-2.4018,-2.4013,-2.4965,-2.5111,-2.5147,-2.521,-2.5664,-2.5979,-2.5973,-2.6532,-2.7096,-2.7624,-2.8503,-2.8881,-2.8644,-2.9101,-2.9416,-2.9625,-2.9695,-2.9796,-2.9927,-3.0109,-3.0196,-3.0241,-3.0355,-3.0398,-3.0398,-3.0398,-3.0155,-2.9785,-3.0257,-2.9737,-2.8694,-2.9108,-2.9059,-2.8604,-2.7761,-2.7463,-2.7379,-2.972,-2.9701,-2.9681,-2.9639,-2.9587,-2.9511,-2.9484,-2.9241,-2.914,-2.9324,-2.8984,-2.8576,-2.8136,-2.775,-2.709,-2.6064,-2.6355,-2.6316,-2.5654,-2.5779,-2.591,-2.5972,-2.6722,-2.7457,-2.8062,-2.8081,-2.8374,-2.8994,-2.8952,-2.8529,-2.7755,-2.7278,-2.6868,-2.6455,-2.5799,-2.5491,-2.5447,-2.4818,-2.4185,-2.3584,-2.3206,-2.2893,-2.2659,-2.279,-2.2868,-2.2893,-2.2764,-2.2764,-2.2781,-2.273,-2.2613,-2.2466,-2.2542,-2.253,-2.246,-2.246,-2.2661,-2.2856,-2.2868,-2.285,-2.2877,-2.2998,-2.3076,-2.324,-2.3807,-2.4144,-2.4442,-2.4919,-2.5143,-2.5166,-2.4812,-2.4257,-2.4045,-2.4659,0.0,0.0,0.0,-2.4637,-2.4723,-2.5846,-2.5953,-2.5927,-2.5959,-2.6616,-2.68,-2.6265,-2.6891,-2.739,-2.7552,-2.8435,-2.8828,-2.8594,-2.898,-2.9228,-2.9338,-2.9379,-2.9495,-2.9713,-2.9861,-2.9969,-3.0066,-3.0215,-3.019,-3.003,-3.0222,-2.9831,-2.9113,-2.9997,-2.9404,-2.8017,-2.8635,-2.8415,-2.7654,-2.6786,-2.6635,-2.6724,-3.0,-2.9563,-2.9333,-3.0175,-2.9609,-2.9324,-3.0171,-2.9563,-2.9274,-3.0026,-2.8815,-2.8154,-2.8851,-2.7585,-2.6943,-2.7567,-2.6998,-2.6512,-2.6245,-2.6931,-2.7442,-2.7622,-2.8393,-2.8847,-2.8902,-2.8902,-2.8938,-2.8994,-2.881,-2.8682,-2.8567,-2.6627,-2.6437,-2.7617,-2.59,-2.5131,-2.5184,-2.5648,-2.4672,-2.2823,-2.335,-2.3112,-2.2525,-2.2579,-2.2649,-2.2605,-2.2569,-2.2542,-2.2617,-2.3129,-2.2868,-2.2429,-2.3105,-2.2852,-2.231,-2.231,-2.2813,-2.3243,-2.2821,-2.2712,-2.2884,-2.3574,-2.3691,-2.3824,-2.4538,-2.5347,-2.5764,-2.5126,-2.5582,-2.587,-2.5038,-2.4744,-2.4812,-2.5438,0.0,0.0,-2.5438,-2.5505,-2.5522,-2.5624,-2.6333,-2.6808,-2.6808,-2.6989,-2.7053,-2.6922,-2.7152,-2.7233,-2.7166,-2.7557,-2.8053,-2.8576,-2.891,-2.9134,-2.9222,-2.9336,-2.9399,-2.9418,-2.9624,-2.9782,-2.9918,-2.9934,-2.9563,-2.8955,-2.9698,-2.9613,-2.8987,-2.9855,-2.9277,-2.7823,-2.7884,-2.7399,-2.6603,-2.5796,-2.6022,-2.6599,-3.0136,-3.0081,-3.005,-3.0244,-3.0105,-2.9903,-2.9577,-2.9646,-2.9677,-2.9494,-2.8925,-2.8668,-2.8957,-2.8443,-2.794,-2.7624,-2.7789,-2.7609,-2.6886,-2.7608,-2.8117,-2.8215,-2.8524,-2.8712,-2.8737,-2.8712,-2.8687,-2.8687,-2.8569,-2.8196,-2.7564,-2.6171,-2.5781,-2.6166,-2.5392,-2.5276,-2.5708,-2.5476,-2.5107,-2.4584,-2.3481,-2.311,-2.313,-2.2777,-2.2659,-2.2659,-2.2542,-2.2515,-2.2521,-2.266,-2.2835,-2.3038,-2.3308,-2.3511,-2.3646,-2.3646,-2.3849,-2.4032,-2.3862,-2.3881,-2.4024,-2.4298,-2.4338,-2.4496,-2.5186,-2.5985,-2.6527,-2.6285,-2.6862,-2.7259,-2.6888,-2.6396,-2.6247,-2.686,0.0,-2.5439,-2.6184,-2.5896,-2.5778,-2.6234,-2.6572,-2.6792,-2.6792,-2.6892,-2.6975,-2.6959,-2.7105,-2.7152,-2.7103,-2.7491,-2.8145,-2.9116,-2.8923,-2.8887,-2.9067,-2.9138,-2.9185,-2.9228,-2.9415,-2.9533,-2.9607,-2.9713,-2.9361,-2.8696,-2.9,-2.8455,-2.7414,-2.8248,-2.7638,-2.6244,-2.6745,-2.6435,-2.5685,-2.5389,-2.5533,-2.5843,-3.0907,-3.0889,-3.087,-3.0944,-3.0889,-3.0687,-3.0186,-3.0173,-3.0191,-3.0131,-2.9452,-2.9062,-2.9253,-2.907,-2.8615,-2.7834,-2.8286,-2.8283,-2.753,-2.787,-2.8237,-2.8492,-2.8492,-2.8492,-2.8474,-2.8492,-2.844,-2.8317,-2.8237,-2.7843,-2.7118,-2.6131,-2.5725,-2.5754,-2.5394,-2.5536,-2.5983,-2.5407,-2.5326,-2.5367,-2.363,-2.33,-2.3789,-2.2901,-2.2733,-2.2911,-2.2801,-2.2773,-2.2858,-2.3219,-2.3528,-2.3782,-2.4019,-2.4272,-2.4506,-2.4506,-2.4675,-2.4831,-2.4831,-2.5249,-2.5567,-2.5091,-2.5142,-2.5516,-2.6182,-2.7012,-2.7572,-2.7367,-2.7759,-2.8118,-2.8049,-2.7607,-2.7437,-2.8078,-2.7334,-2.6843,-2.7334,-2.6979,-2.6725,-2.6824,-2.718,-2.7181,-2.6555,-2.7182,-2.7488,-2.7216,-2.7554,-2.7773,-2.7839,-2.8097,-2.8592,-2.9362,-2.8936,-2.8735,-2.881,-2.8947,-2.9017,-2.9085,-2.9222,-2.9291,-2.9318,-2.9232,-2.8762,-2.8075,-2.8075,-2.7349,-2.628,-2.7134,-2.6694,-2.5576,-2.6168,-2.5898,-2.5201,-2.5209,-2.5253,-2.533,-3.243,-3.1935,-3.1641,-3.2467,-3.1935,-3.1659,-3.2485,-3.1256,-3.0797,-3.2394,-3.0497,-2.924,-2.9835,-2.9166,-2.8619,-2.8396,-2.8388,-2.8327,-2.8099,-2.7707,-2.7806,-2.8466,-2.8492,-2.8396,-2.8183,-2.8396,-2.8291,-2.7897,-2.7829,-2.773,-2.7547,-2.6576,-2.643,-2.6973,-2.6156,-2.5814,-2.5783,-2.5656,-2.5249,-2.4641,-2.3757,-2.3833,-2.4371,-2.2885,-2.2784,-2.341,-2.341,-2.341,-2.363,-2.5101,-2.5101,-2.4659,-2.5389,-2.5101,-2.454,-2.454,-2.505,-2.5642,-2.5642,-2.6674,-2.7451,-2.5998,-2.6167,-2.6911,-2.762,-2.8541,-2.9006,-2.8271,-2.8152,-2.8185,-2.8135,-2.8066,-2.8252,-2.8909,-2.8991,-2.9028,-2.9011,-2.9011,-2.8541,-2.7334,-2.8283,-2.8222,-2.6289,-2.7919,-2.8725,-2.7875,-2.8679,-2.9281,-2.9506,-2.942,-2.9296,-2.9107,-2.8964,-2.8723,-2.8388,-2.8791,-2.8994,-2.8994,-2.8994,-2.9085,-2.9181,-2.8365,-2.7596,-2.6916,-2.6916,-2.6488,-2.587,-2.6789,-2.6786,-2.6186,-2.6333,-2.591,-2.5198,-2.5201,-2.5192,-2.5212,-3.0965,-3.1114,-3.1426,-3.1455,-3.1362,-3.1316,-3.1465,-3.1628,-3.1707,-3.1634,-3.0345,-2.9471,-2.9654,-2.8748,-2.8055,-2.7858,-2.8311,-2.8526,-2.8328,-2.765,-2.74,-2.7719,-2.7748,-2.7701,-2.7701,-2.7701,-2.7689,-2.7569,-2.743,-2.7369,-2.7289,-2.6409,-2.6336,-2.694,-2.6077,-2.5961,-2.6368,-2.5285,-2.5319,-2.5961,-2.4133,-2.4154,-2.5169,-2.4205,-2.3968,-2.4154,-2.4154,-2.4154,-2.4222,-2.4661,-2.5017,-2.5406,-2.6133,-2.659,-2.6826,-2.6826,-2.7368,-2.7977,-2.7977,-2.8298,-2.8399,-2.7402,-2.7723,-2.8366,-2.8586,-2.9248,-2.9607,-2.8897,-2.9168,-2.9542,-2.9505,-2.9468,-2.9553,-2.9736,-2.977,-2.9583,-2.9059,-2.9011,-2.8727,-2.8025,-2.8565,-2.8642,-2.7727,-2.8468,-2.8926,-2.8653,-2.8455,-2.8629,-2.9264,-2.8767,-2.8476,-2.8466,-2.8701,-2.8546,-2.7989,-2.837,-2.8594,-2.8594,-2.8594,-2.8669,-2.8839,-2.8602,-2.7857,-2.676,-2.676,-2.6061,-2.4903,-2.5178,-2.5223,-2.5092,-2.5215,-2.5148,-2.4981,-2.4949,-2.5037,-2.5198,-3.151,-3.1845,-3.2155,-3.1805,-3.1926,-3.2,-3.1794,-3.1949,-3.2061,-3.1908,-3.0653,-2.9891,-3.0125,-2.923,-2.8566,-2.8383,-2.8754,-2.8795,-2.8303,-2.7839,-2.7411,-2.7152,-2.7135,-2.7198,-2.7324,-2.7373,-2.731,-2.7135,-2.7103,-2.707,-2.6971,-2.648,-2.6449,-2.6875,-2.6284,-2.6285,-2.6623,-2.5439,-2.5609,-2.6522,-2.4594,-2.4712,-2.593,-2.4881,-2.4661,-2.4932,-2.4932,-2.4932,-2.4966,-2.5253,-2.5862,-2.6556,-2.6996,-2.7672,-2.8281,-2.8281,-2.8619,-2.8975,-2.8864,-2.9067,-2.9168,-2.8659,-2.9003,-2.9431,-2.9431,-3.0006,-3.0328,-2.9583,-2.9786,-3.0108,-3.0108,-3.0108,-3.0209,-3.0497,-3.0548,-3.0378,-2.9922,-2.9854,-2.9547,-2.8685,-2.9348,-2.9336,-2.7963,-2.9048,-2.9854,-2.9854,-2.9323,-2.933,-3.0063,-2.9653,-2.916,-2.8733,-2.8932,-2.8572,-2.7582,-2.78,-2.8101,-2.8414,-2.8414,-2.8448,-2.8576,-2.8243,-2.7671,-2.6867,-2.6209,-2.5674,-2.517,-2.4579,-2.4594,-2.4974,-2.4789,-2.4749,-2.4771,-2.4756,-2.4861,-2.5,-3.3067,-3.3317,-3.3288,-3.2845,-3.2991,-3.3105,-3.2872,-3.2201,-3.2005,-3.2751,-3.1271,-3.0366,-3.0904,-3.0174,-2.9589,-2.9472,-2.9454,-2.9128,-2.8322,-2.8152,-2.7692,-2.6826,-2.6725,-2.6825,-2.7053,-2.723,-2.7135,-2.6691,-2.6892,-2.6892,-2.6691,-2.6691,-2.6691,-2.6691,-2.6691,-2.6691,-2.664,-2.5913,-2.6031,-2.6573,-2.5152,-2.5423,-2.6539,-2.5203,-2.5101,-2.571,-2.571,-2.571,-2.5812,-2.6539,-2.73,-2.7926,-2.7926,-2.8467,-2.9076,-2.9076,-2.9127,-2.9104,-2.8846,-2.9293,-2.9755,-2.9822,-2.9978,-3.0116,-3.0171,-3.0678,-3.0965,-3.0345,-3.0209,-3.0209,-3.0209,-3.026,-3.0531,-3.119,-3.1343,-3.136,-3.1309,-3.1303,-3.0778,-2.9271,-3.0366,-3.0209,-2.753,-2.9576,-3.1072,-3.1095,-3.0649,-3.0673,-3.1346,-3.1206,-3.0568,-2.9437,-2.935,-2.8664,-2.7198,-2.7181,-2.7565,-2.8317,-2.8317,-2.8335,-2.8352,-2.7625,-2.7266,-2.7104,-2.5578,-2.5407,-2.6073,-2.4659,-2.4615,-2.5375,-2.4789,-2.4575,-2.4575,-2.4642,-2.4676,-2.4707,-3.1549,-3.1732,-3.2007,-3.17,-3.1603,-3.1731,-3.2143,-3.2193,-3.2207,-3.2417,-3.1355,-3.0628,-3.0768,-2.9454,-2.8696,-2.9085,-2.9119,-2.927,-2.9621,-2.8537,-2.7775,-2.7588,-2.7012,-2.6725,-2.6791,-2.6825,-2.6791,-2.6691,-2.6725,-2.6725,-2.6691,-2.6691,-2.6691,-2.6691,-2.6691,-2.6691,-2.664,-2.5913,-2.6031,-2.6623,-2.5727,-2.5896,-2.6657,-2.6336,-2.6319,-2.6454,-2.6454,-2.6454,-2.6573,-2.7317,-2.8095,-2.8738,-2.8738,-2.9262,-2.9871,-2.9871,-3.0145,-3.0482,-3.0442,-3.0268,-3.0294,-3.0905,-3.0523,-3.0179,-3.0836,-3.0801,-3.0707,-3.0909,-3.0954,-3.0954,-3.0954,-3.1427,-3.1867,-3.2019,-3.2544,-3.2713,-3.2121,-3.2278,-3.1805,-2.9989,-3.0865,-3.0879,-2.8997,-2.9615,-3.0156,-3.0225,-2.9632,-2.9608,-3.0452,-2.9848,-2.9224,-2.8665,-2.8797,-2.8267,-2.7057,-2.7135,-2.7369,-2.7689,-2.7689,-2.7864,-2.8164,-2.7976,-2.7656,-2.714,-2.6225,-2.5587,-2.5141,-2.4254,-2.399,-2.4196,-2.4209,-2.4266,-2.4375,-2.4375,-2.453,-2.4707,-3.1906,-3.2061,-3.2206,-3.1703,-3.1721,-3.1793,-3.1808,-3.1913,-3.1985,-3.1985,-3.1386,-3.0945,-3.0945,-3.0139,-2.9736,-3.0023,-3.004,-3.0057,-3.0108,-2.9364,-2.8755,-2.8399,-2.7994,-2.7791,-2.7791,-2.7418,-2.7046,-2.6691,-2.6691,-2.6691,-2.6691,-2.6691,-2.6691,-2.6691,-2.6691,-2.6691,-2.6674,-2.6285,-2.6353,-2.6657,-2.6285,-2.6353,-2.6691,-2.6691,-2.6691,-2.6691,-2.6691,-2.686,-2.711,-2.7406,-2.826,-2.918,-2.918,-2.9699,-3.0302,-3.0302,-3.074,-3.1183,-3.0981,-3.104,-3.1226,-3.1573,-3.1151,-3.0875,-3.1622,-3.1298,-3.1004,-3.1641,-3.1934,-3.2034,-3.1976,-3.2437,-3.2731,-3.2488,-3.2823,-3.2897,-3.2237,-3.237,-3.2097,-3.0956,-3.1221,-3.0986,-2.9742,-2.9483,-2.9528,-2.9984,-2.9513,-2.948,-3.0172,-2.9812,-2.9132,-2.8262,-2.8443,-2.7891,-2.6537,-2.6791,-2.7021,-2.7117,-2.7293,-2.7478,-2.7659,-2.7766,-2.7653,-2.7333,-2.6267,-2.5875,-2.5829,-2.4334,-2.3967,-2.4342,-2.4065,-2.3999,-2.4077,-2.4134,-2.4266,-2.4426,-3.3001,-3.3126,-3.2948,-3.2336,-3.2371,-3.2248,-3.1634,-3.1542,-3.1542,-3.1542,-3.1329,-3.119,-3.119,-3.119,-3.119,-3.119,-3.119,-3.0937,-3.0328,-3.0176,-2.9837,-2.9194,-2.9096,-2.9011,-2.9011,-2.8349,-2.7655,-2.6894,-2.6759,-2.6691,-2.6691,-2.6691,-2.6691,-2.6691,-2.6691,-2.6691,-2.6691,-2.6691,-2.6691,-2.6691,-2.6691,-2.6691,-2.6691,-2.6691,-2.6776,-2.6894,-2.6894,-2.7313,-2.7851,-2.7665,-2.8506,-2.9599,-2.9599,-3.0029,-3.0501,-3.0634,-3.1054,-3.1462,-3.1234,-3.1586,-3.1979,-3.1998,-3.171,-3.1582,-3.2474,-3.1962,-3.1536,-3.2323,-3.2707,-3.2944,-3.2796,-3.3192,-3.3335,-3.2907,-3.2961,-3.2904,-3.2313,-3.2394,-3.2301,-3.1774,-3.1345,-3.0815,-3.0212,-2.9382,-2.9166,-2.981,-2.9544,-2.956,-2.9973,-3.0017,-2.9398,-2.8119,-2.8201,-2.7585,-2.6171,-2.645,-2.6657,-2.686,-2.6992,-2.7085,-2.7213,-2.7386,-2.7496,-2.747,-2.617,-2.6127,-2.6765,-2.4563,-2.4121,-2.4743,-2.3995,-2.371,-2.3753,-2.3917,-2.4016,-2.4075,-3.3884,-3.358,-3.321,-3.3211,-3.2731,-3.206,-3.1353,-3.1269,-3.1269,-3.1269,-3.123,-3.119,-3.119,-3.119,-3.119,-3.119,-3.119,-3.1157,-3.1055,-3.0446,-3.0074,-2.9973,-2.933,-2.9011,-2.9011,-2.8873,-2.845,-2.7637,-2.7012,-2.6691,-2.6691,-2.6691,-2.6691,-2.6691,-2.6691,-2.6691,-2.6691,-2.6691,-2.6691,-2.6691,-2.6691,-2.6691,-2.6691,-2.6691,-2.7063,-2.7567,-2.7567,-2.833,-2.9326,-2.9287,-2.9739,-3.0377,-3.0377,-3.0444,-3.0642,-3.1246,-3.126,-3.1234,-3.1808,-3.1741,-3.1645,-3.2334,-3.1867,-3.1641,-3.3319,-3.2741,-3.2022,-3.2562,-3.2741,-3.2796,-3.2796,-3.3406,-3.3872,-3.3686,-3.4077,-3.4164,-3.335,-3.3453,-3.3241,-3.2045,-3.1052,-3.0587,-3.0749,-2.9623,-2.9013,-2.9213,-2.9059,-2.9059,-2.9259,-2.9259,-2.9013,-2.8442,-2.793,-2.738,-2.6879,-2.6343,-2.654,-2.7477,-2.6718,-2.6624,-2.7213,-2.7213,-2.7261,-2.7192,-2.6437,-2.6184,-2.6208,-2.4609,-2.4008,-2.4077,-2.3499,-2.3348,-2.3486,-2.3813,-2.3896,-2.3837,-3.2945,-3.2739,-3.2506,-3.2397,-3.2115,-3.1879,-3.1822,-3.1799,-3.1799,-3.1799,-3.1799,-3.1647,-3.1241,-3.119,-3.119,-3.119,-3.119,-3.119,-3.119,-3.0903,-3.0717,-3.0717,-3.0395,-3.0226,-3.0226,-2.982,-2.9448,-2.9093,-2.7909,-2.7317,-2.7317,-2.6894,-2.6691,-2.6691,-2.6691,-2.6691,-2.6691,-2.6691,-2.6691,-2.6691,-2.6691,-2.6691,-2.6742,-2.7165,-2.7467,-2.775,-2.7955,-2.8638,-2.949,-2.9304,-2.9962,-3.0773,-3.032,-3.0762,-3.1429,-3.1258,-3.1645,-3.2189,-3.2321,-3.2512,-3.2745,-3.3048,-3.2889,-3.2926,-3.3703,-3.3889,-3.3811,-3.3533,-3.3672,-3.3859,-3.3859,-3.4343,-3.4575,-3.407,-3.4235,-3.4186,-3.3329,-3.3502,-3.3326,-3.2433,-3.171,-3.1131,-3.0667,-2.987,-2.9319,-2.9121,-2.9106,-2.9106,-2.9075,-2.9075,-2.8851,-2.8299,-2.8153,-2.7573,-2.6636,-2.6564,-2.6788,-2.7193,-2.6501,-2.6617,-2.742,-2.6945,-2.6841,-2.692,-2.5723,-2.53,-2.5357,-2.3708,-2.3116,-2.3197,-2.2946,-2.3017,-2.3253,-2.3371,-2.3405,-2.3414]},{"header":{"parameterUnit":"m.s-1","parameterCategory":1,"la1":30.6,"la2":28.766,"lo1":-90.7593,"lo2":-88.6598,"dy":0.0162,"dx":0.0183,"nx":116,"ny":114,"refTime":"2023-05-03T00:00:00:Z","depth":0,"parameterNumber":3,"parameterNumberName":"V-component_of_WINDS"},"data":[0.0,0.0,0.0,0.0,0.0,0.0,0.0,0.0,0.0,0.0,0.0,0.0,0.0,0.0,0.0,0.0,0.0,0.0,0.0,0.0,0.0,0.0,0.0,0.0,0.0,0.0,0.0,0.0,0.0,0.0,0.0,0.0,0.0,0.0,0.0,0.0,0.0,0.0,0.0,0.0,0.0,0.0,0.0,0.0,0.0,0.0,0.0,0.0,0.0,0.0,0.0,0.0,0.0,0.0,0.0,0.0,0.0,0.0,0.0,0.0,0.0,0.0,0.0,0.0,0.0,0.0,0.0,0.0,0.0,0.0,0.0,0.0,0.0,0.0,0.0,0.0,0.0,0.0,0.0,0.0,0.0,0.0,0.0,0.0,0.0,0.0,0.0,0.0,0.0,0.0,0.0,0.0,0.0,0.0,0.0,0.0,0.0,0.0,0.0,0.0,0.0,0.0,0.0,0.0,0.0,0.0,0.0,0.0,0.0,0.0,0.0,0.0,0.0,0.0,0.0,0.0,0.0,0.0,0.0,0.0,0.0,0.0,0.0,0.0,0.0,0.0,0.0,0.0,0.0,0.0,0.0,0.0,0.0,0.0,0.0,0.0,0.0,0.0,0.0,0.0,0.0,0.0,0.0,0.0,0.0,0.0,0.0,0.0,0.0,0.0,0.0,0.0,0.0,0.0,0.0,0.0,0.0,0.0,0.0,0.0,0.0,0.0,0.0,0.0,0.0,0.0,0.0,0.0,0.0,0.0,0.0,0.0,0.0,0.0,0.0,0.0,0.0,0.0,0.0,0.0,0.0,0.0,0.0,0.0,0.0,0.0,0.0,0.0,0.0,0.0,0.0,0.0,0.0,0.0,0.0,0.0,0.0,0.0,0.0,0.0,0.0,0.0,0.0,0.0,0.0,0.0,0.0,0.0,0.0,0.0,0.0,0.0,0.0,0.0,0.0,0.0,0.0,0.0,0.0,0.0,0.0,0.0,0.0,0.0,0.0,0.0,0.0,0.0,0.0,0.0,0.0,0.0,0.0,0.0,0.0,0.0,0.0,0.0,0.0,0.0,0.0,0.0,0.0,0.0,0.0,0.0,0.0,0.0,0.0,0.0,0.0,0.0,0.0,0.0,0.0,0.0,0.0,0.0,0.0,0.0,0.0,0.0,0.0,0.0,0.0,0.0,0.0,0.0,0.0,0.0,0.0,0.0,0.0,0.0,0.0,0.0,0.0,0.0,0.0,0.0,0.0,0.0,0.0,0.0,0.0,0.0,0.0,0.0,0.0,0.0,0.0,0.0,0.0,0.0,0.0,0.0,0.0,0.0,0.0,0.0,0.0,0.0,0.0,0.0,0.0,0.0,0.0,0.0,0.0,0.0,0.0,0.0,0.0,0.0,0.0,0.0,0.0,0.0,0.0,0.0,0.0,0.0,0.0,0.0,0.0,0.0,0.0,0.0,0.0,0.0,0.0,0.0,0.0,0.0,0.0,0.0,0.0,0.0,0.0,0.0,0.0,0.0,0.0,0.0,0.0,0.0,0.0,0.0,0.0,0.0,0.0,0.0,0.0,0.0,0.0,0.0,0.0,0.0,0.0,0.0,0.0,0.0,0.0,0.0,0.0,0.0,0.0,0.0,0.0,0.0,0.0,0.0,0.0,0.0,0.0,0.0,0.0,0.0,0.0,0.0,0.0,0.0,0.0,0.0,0.0,0.0,0.0,0.0,0.0,0.0,0.0,0.0,0.0,0.0,0.0,0.0,0.0,0.0,0.0,0.0,0.0,0.0,0.0,0.0,0.0,0.0,0.0,0.0,0.0,0.0,0.0,0.0,0.0,0.0,0.0,0.0,0.0,0.0,0.0,0.0,0.0,0.0,0.0,0.0,0.0,0.0,0.0,0.0,0.0,0.0,0.0,0.0,0.0,0.0,0.0,0.0,0.0,0.0,0.0,0.0,0.0,0.0,0.0,0.0,0.0,0.0,0.0,0.0,0.0,0.0,0.0,0.0,0.0,0.0,0.0,0.0,0.0,0.0,0.0,0.0,0.0,0.0,0.0,0.0,0.0,0.0,0.0,0.0,0.0,0.0,0.0,0.0,0.0,0.0,0.0,0.0,0.0,0.0,0.0,0.0,0.0,0.0,0.0,0.0,0.0,0.0,0.0,0.0,0.0,0.0,0.0,0.0,0.0,0.0,0.0,0.0,0.0,0.0,0.0,0.0,0.0,0.0,0.0,0.0,0.0,0.0,0.0,0.0,0.0,0.0,0.0,0.0,0.0,0.0,0.0,0.0,0.0,0.0,0.0,0.0,0.0,0.0,0.0,0.0,0.0,0.0,0.0,0.0,0.0,0.0,0.0,0.0,0.0,0.0,0.0,0.0,0.0,0.0,0.0,0.0,0.0,0.0,0.0,0.0,0.0,0.0,0.0,0.0,0.0,0.0,0.0,0.0,0.0,0.0,0.0,0.0,0.0,0.0,0.0,0.0,0.0,0.0,0.0,0.0,0.0,0.0,0.0,0.0,0.0,0.0,0.0,0.0,0.0,0.0,0.0,0.0,0.0,0.0,0.0,0.0,0.0,0.0,0.0,0.0,0.0,0.0,0.0,0.0,0.0,0.0,0.0,0.0,0.0,0.0,0.0,0.0,0.0,0.0,0.0,0.0,0.0,0.0,0.0,0.0,0.0,0.0,0.0,0.0,0.0,0.0,0.0,0.0,0.0,0.0,0.0,0.0,0.0,0.0,0.0,0.0,0.0,0.0,0.0,0.0,0.0,0.0,0.0,0.0,0.0,0.0,0.0,0.0,0.0,0.0,0.0,0.0,0.0,0.0,0.0,0.0,0.0,0.0,0.0,0.0,0.0,0.0,0.0,0.0,0.0,0.0,0.0,0.0,0.0,0.0,0.0,0.0,0.0,0.0,0.0,0.0,0.0,0.0,0.0,0.0,0.0,0.0,0.0,0.0,0.0,0.0,0.0,0.0,0.0,0.0,0.0,0.0,0.0,0.0,0.0,0.0,0.0,0.0,0.0,0.0,0.0,0.0,0.0,0.0,0.0,0.0,0.0,0.0,0.0,0.0,0.0,0.0,0.0,0.0,0.0,0.0,0.0,0.0,0.0,0.0,0.0,0.0,0.0,0.0,0.0,0.0,0.0,0.0,0.0,0.0,0.0,0.0,0.0,0.0,0.0,0.0,0.0,0.0,0.0,0.0,0.0,0.0,0.0,0.0,0.0,0.0,0.0,0.0,0.0,0.0,0.0,0.0,0.0,0.0,0.0,0.0,0.0,0.0,0.0,0.0,0.0,0.0,0.0,0.0,0.0,0.0,0.0,0.0,0.0,0.0,0.0,0.0,0.0,0.0,0.0,0.0,0.0,0.0,0.0,0.0,0.0,0.0,0.0,0.0,0.0,0.0,0.0,0.0,0.0,0.0,0.0,0.0,0.0,0.0,0.0,0.0,0.0,0.0,0.0,0.0,0.0,0.0,0.0,0.0,0.0,0.0,0.0,0.0,0.0,0.0,0.0,0.0,0.0,0.0,0.0,0.0,0.0,0.0,0.0,0.0,0.0,0.0,0.0,0.0,0.0,0.0,0.0,0.0,0.0,0.0,0.0,0.0,0.0,0.0,0.0,0.0,0.0,0.0,0.0,0.0,0.0,0.0,0.0,0.0,0.0,0.0,0.0,0.0,0.0,0.0,0.0,0.0,0.0,0.0,0.0,0.0,0.0,0.0,0.0,0.0,0.0,0.0,0.0,0.0,0.0,0.0,0.0,0.0,0.0,0.0,0.0,0.0,0.0,0.0,0.0,0.0,0.0,0.0,0.0,0.0,0.0,0.0,0.0,0.0,0.0,0.0,0.0,0.0,0.0,0.0,0.0,0.0,0.0,0.0,0.0,0.0,0.0,0.0,0.0,0.0,0.0,0.0,0.0,0.0,0.0,0.0,0.0,0.0,0.0,0.0,0.0,0.0,0.0,0.0,0.0,0.0,0.0,0.0,0.0,0.0,0.0,0.0,0.0,0.0,0.0,0.0,0.0,0.0,0.0,0.0,0.0,0.0,0.0,0.0,0.0,0.0,0.0,0.0,0.0,0.0,0.0,0.0,0.0,0.0,0.0,0.0,0.0,0.0,0.0,0.0,0.0,0.0,0.0,0.0,0.0,0.0,0.0,0.0,0.0,0.0,0.0,0.0,0.0,0.0,0.0,0.0,0.0,0.0,0.0,0.0,0.0,0.0,0.0,0.0,0.0,0.0,0.0,0.0,0.0,0.0,0.0,0.0,0.0,0.0,0.0,0.0,0.0,0.0,0.0,0.0,0.0,0.0,0.0,0.0,0.0,0.0,0.0,0.0,0.0,0.0,0.0,0.0,0.0,0.0,0.0,0.0,0.0,0.0,0.0,0.0,0.0,0.0,0.0,0.0,0.0,0.0,0.0,0.0,0.0,0.0,0.0,0.0,0.0,0.0,0.0,0.0,0.0,0.0,0.0,0.0,0.0,0.0,0.0,0.0,0.0,0.0,0.0,0.0,0.0,0.0,0.0,0.0,0.0,0.0,0.0,0.0,0.0,0.0,0.0,0.0,0.0,0.0,0.0,0.0,0.0,0.0,0.0,0.0,0.0,0.0,0.0,0.0,0.0,0.0,0.0,0.0,0.0,0.0,0.0,0.0,0.0,0.0,0.0,0.0,0.0,0.0,0.0,0.0,0.0,0.0,0.0,0.0,0.0,0.0,0.0,0.0,0.0,0.0,0.0,0.0,0.0,0.0,0.0,0.0,0.0,0.0,0.0,0.0,0.0,0.0,0.0,0.0,0.0,0.0,0.0,0.0,0.0,0.0,0.0,0.0,0.0,0.0,0.0,0.0,0.0,0.0,0.0,0.0,0.0,0.0,0.0,0.0,0.0,0.0,0.0,0.0,0.0,0.0,0.0,0.0,0.0,0.0,0.0,0.0,0.0,0.0,0.0,0.0,0.0,0.0,0.0,0.0,0.0,0.0,0.0,0.0,0.0,0.0,0.0,0.0,0.0,0.0,0.0,0.0,0.0,0.0,0.0,0.0,0.0,0.0,0.0,0.0,0.0,0.0,0.0,0.0,0.0,0.0,0.0,0.0,0.0,0.0,0.0,0.0,0.0,0.0,0.0,0.0,0.0,0.0,0.0,0.0,0.0,0.0,0.0,0.0,0.0,0.0,0.0,0.0,0.0,0.0,0.0,0.0,0.0,0.0,0.0,0.0,0.0,0.0,0.0,0.0,0.0,0.0,0.0,0.0,0.0,0.0,0.0,0.0,0.0,0.0,0.0,0.0,0.0,0.0,0.0,0.0,0.0,0.0,0.0,0.0,0.0,0.0,0.0,0.0,0.0,0.0,0.0,0.0,0.0,0.0,0.0,0.0,0.0,0.0,0.0,0.0,0.0,0.0,0.0,0.0,0.0,0.0,0.0,0.0,0.0,0.0,0.0,0.0,0.0,0.0,0.0,0.0,0.0,0.0,0.0,0.0,0.0,0.0,0.0,0.0,0.0,0.0,0.0,0.0,0.0,0.0,0.0,0.0,0.0,0.0,0.0,0.0,0.0,0.0,0.0,0.0,0.0,0.0,0.0,0.0,0.0,0.0,0.0,0.0,0.0,0.0,0.0,0.0,0.0,0.0,0.0,0.0,0.0,0.0,0.0,0.0,0.0,0.0,0.0,0.0,0.0,0.0,0.0,0.0,0.0,0.0,0.0,0.0,0.0,0.0,0.0,0.0,0.0,0.0,0.0,0.0,0.0,0.0,0.0,0.0,0.0,0.0,0.0,0.0,0.0,0.0,0.0,0.0,0.0,0.0,0.0,0.0,0.0,0.0,0.0,0.0,0.0,0.0,0.0,0.0,0.0,0.0,0.0,0.0,0.0,0.0,0.0,0.0,0.0,0.0,0.0,0.0,0.0,0.0,0.0,0.0,0.0,0.0,0.0,0.0,0.0,0.0,0.0,0.0,0.0,0.0,0.0,0.0,0.0,0.0,0.0,0.0,0.0,0.0,0.0,0.0,0.0,0.0,0.0,0.0,0.0,0.0,0.0,0.0,0.0,0.0,0.0,0.0,0.0,0.0,0.0,0.0,0.0,0.0,-1.8947,0.0,0.0,0.0,0.0,0.0,0.0,0.0,0.0,0.0,0.0,0.0,0.0,0.0,0.0,0.0,0.0,0.0,0.0,0.0,0.0,0.0,0.0,0.0,0.0,0.0,0.0,0.0,0.0,0.0,0.0,0.0,0.0,0.0,0.0,0.0,0.0,0.0,0.0,0.0,0.0,0.0,0.0,0.0,0.0,0.0,0.0,0.0,0.0,0.0,0.0,0.0,0.0,0.0,0.0,0.0,0.0,0.0,0.0,0.0,0.0,0.0,0.0,0.0,0.0,0.0,0.0,0.0,0.0,0.0,0.0,0.0,0.0,0.0,0.0,0.0,0.0,0.0,0.0,0.0,0.0,0.0,0.0,0.0,0.0,0.0,0.0,0.0,0.0,0.0,0.0,0.0,0.0,0.0,0.0,0.0,0.0,0.0,0.0,0.0,0.0,0.0,0.0,0.0,0.0,0.0,0.0,0.0,0.0,0.0,0.0,0.0,0.0,0.0,0.0,0.0,0.0,-1.8378,0.0,0.0,0.0,0.0,0.0,0.0,0.0,0.0,0.0,0.0,0.0,0.0,0.0,0.0,0.0,0.0,0.0,0.0,0.0,0.0,0.0,0.0,0.0,0.0,0.0,0.0,0.0,0.0,0.0,0.0,0.0,0.0,0.0,0.0,0.0,0.0,0.0,0.0,0.0,0.0,0.0,0.0,0.0,0.0,0.0,0.0,0.0,0.0,0.0,0.0,0.0,0.0,0.0,0.0,0.0,0.0,0.0,0.0,0.0,0.0,0.0,0.0,0.0,0.0,0.0,0.0,0.0,0.0,0.0,0.0,0.0,0.0,0.0,0.0,0.0,0.0,0.0,0.0,0.0,0.0,0.0,0.0,0.0,0.0,0.0,0.0,0.0,0.0,0.0,0.0,0.0,0.0,0.0,0.0,0.0,0.0,0.0,0.0,0.0,0.0,0.0,0.0,0.0,0.0,0.0,0.0,0.0,0.0,-2.2547,-2.2939,-2.2256,-2.3092,-2.2765,-2.1426,-1.9275,-1.8144,-1.7862,0.0,0.0,0.0,0.0,0.0,0.0,0.0,0.0,0.0,0.0,0.0,0.0,0.0,0.0,0.0,0.0,0.0,0.0,0.0,0.0,0.0,0.0,0.0,0.0,0.0,0.0,0.0,0.0,0.0,0.0,0.0,0.0,0.0,0.0,0.0,0.0,0.0,0.0,0.0,0.4907,0.4952,0.4557,0.382,0.0,0.0,0.0,0.0,0.0,0.0,0.0,0.0,0.0,0.0,0.0,0.0,0.0,0.0,0.0,0.0,0.0,0.0,0.0,0.0,0.0,0.0,0.0,0.0,0.0,0.0,0.0,0.0,0.0,0.0,0.0,0.0,0.0,0.0,0.0,0.0,0.0,0.0,0.0,0.0,0.0,0.0,0.0,0.0,-0.7829,-1.512,0.0,0.0,0.0,0.0,0.0,0.0,0.0,0.0,0.0,0.0,0.0,0.0,0.0,-2.041,-2.091,-2.1605,-2.163,-2.0989,-2.1249,-2.1325,-2.1204,-2.126,-2.1601,-2.2022,-2.0954,0.0,-1.972,-1.8412,0.0,0.0,0.0,0.0,0.0,0.0,0.0,0.0,0.0,0.0,0.0,0.0,0.0,0.0,0.0,0.0,0.0,0.0,0.0,0.0,0.0,0.0,0.0,0.0,0.0,0.0,0.0,0.0,0.0,0.0,0.0,0.0,0.0,0.0,0.0,0.0,0.5844,0.5689,0.5487,0.4751,0.426,0.3969,0.373,0.3328,0.2802,0.2805,0.0,0.0,0.0,0.0,0.0,0.0,0.0,0.0,0.0,0.0,0.0,0.0,0.0,0.0,0.0,0.0,0.0,0.0,0.0,0.0,0.0,0.0,0.0,0.0,0.0,0.0,0.0,0.0,0.0,0.0,0.0,0.0,0.0,0.0,0.0,0.0,0.0,0.0,0.0,-0.9639,-1.4523,-1.9467,-1.9735,-2.015,0.0,0.0,0.0,0.0,0.0,0.0,0.0,0.0,0.0,-1.9369,-2.0246,-2.0653,-2.0509,-2.1553,-2.1917,-2.1571,-2.2296,-2.2637,-2.2641,-2.2815,-2.3128,-2.3461,-2.2655,-2.219,-2.1832,-1.9694,-1.9125,-1.9588,0.0,0.0,0.0,0.0,-2.031,-2.0805,0.0,0.0,0.0,0.0,0.0,0.0,0.0,0.0,0.0,0.0,0.0,0.0,0.0,0.0,0.0,0.0,0.0,0.0,0.0,0.0,0.0,0.0,0.0,0.0,0.0,0.0,0.0,0.0,0.6438,0.611,0.5715,0.4665,0.4128,0.3981,0.3833,0.363,0.3501,0.344,0.3458,0.0,0.0,0.0,0.0,0.0,0.0,0.0,0.0,0.0,0.0,0.0,0.0,0.0,0.0,0.0,0.0,0.0,0.0,0.0,0.0,0.0,0.0,0.0,0.0,0.0,0.0,0.0,0.0,0.0,0.0,0.0,0.0,0.0,0.0,0.0,0.0,0.0,0.0,-1.5503,-1.9009,-2.1506,-2.0532,-2.016,0.0,0.0,0.0,0.0,0.0,0.0,-2.0103,-2.0079,-1.9991,-1.9856,-2.0771,-2.105,-2.066,-2.2084,-2.2823,-2.2823,-2.3799,-2.4154,-2.3967,-2.4318,-2.4376,-2.4209,-2.3668,-2.3477,-2.3375,-2.1001,-2.0036,-2.0041,-2.0095,-2.0219,-2.0464,-2.0822,-2.1161,-2.149,0.0,0.0,0.0,0.0,0.0,0.0,0.0,0.0,0.0,0.0,0.0,0.0,0.0,0.0,0.0,0.0,0.0,0.0,0.0,0.0,0.0,0.0,0.0,0.0,0.0,0.0,0.0,0.6811,0.7083,0.0,0.496,0.5123,0.4765,0.4003,0.4125,0.4078,0.3929,0.3287,0.3135,0.3341,0.0,0.0,0.0,0.0,0.0,0.0,0.0,0.0,0.0,0.0,0.0,0.0,0.0,0.0,0.0,0.0,0.0,0.0,0.0,0.0,0.0,0.0,0.0,0.0,0.0,0.0,0.0,0.0,0.0,0.0,0.0,0.0,0.0,0.0,0.0,0.0,0.0,0.0,0.0,-1.7872,-1.7612,0.0,0.0,0.0,0.0,-2.1291,-2.1528,-2.1147,-1.9975,-2.0271,-2.0317,-2.0001,-2.1636,-2.285,-2.3478,-2.452,-2.5048,-2.5048,-2.5182,-2.484,-2.4102,-2.4239,-2.4029,-2.3548,-2.3512,-2.3681,-2.3819,-2.1772,-2.1379,-2.1994,-2.1229,-2.1411,-2.1975,-2.1125,-2.1372,-2.2026,0.0,0.0,0.0,0.0,0.0,0.0,0.0,0.0,0.0,0.0,0.0,0.0,0.0,0.0,0.0,0.0,0.0,0.0,0.0,0.0,0.0,0.0,0.0,0.0,0.0,0.0,0.0,0.0,0.0,0.0,0.0,0.0,0.0,0.0,0.0,0.0,0.2491,0.332,0.3438,0.3123,0.3043,0.2722,0.0,0.0,0.0,0.0,0.0,0.0,0.0,0.0,0.0,0.0,0.0,0.0,0.0,0.0,0.0,0.0,0.0,0.0,0.0,0.0,0.0,0.0,0.0,0.0,0.0,0.0,0.0,0.0,0.0,0.0,0.0,0.0,0.0,0.0,0.0,0.0,0.0,-1.9123,-1.8658,0.0,-1.9588,-1.958,-1.9747,-2.0332,-1.9457,-1.9212,-1.987,-2.0453,-2.103,-2.1652,-2.2687,-2.3491,-2.4022,-2.4367,-2.4564,-2.4547,-2.4768,-2.4701,-2.4431,-2.4656,-2.4401,-2.3776,-2.3784,-2.3642,-2.3298,-2.2578,-2.2407,-2.2514,-2.1703,-2.1618,-2.1971,-2.2107,-2.238,-2.2736,0.0,0.0,0.0,0.0,0.0,0.0,0.0,0.0,0.0,0.0,0.0,0.0,0.0,0.0,0.0,0.0,0.0,0.0,0.0,0.0,0.0,0.0,0.0,0.0,0.0,0.0,0.0,0.0,0.0,0.0,0.0,0.0,0.0,0.0,0.0,0.0,0.0,0.0,0.0,0.2366,0.2403,0.2737,0.3152,0.0,0.0,0.0,0.0,0.0,0.0,0.0,0.0,0.0,0.0,0.0,0.0,0.0,0.0,0.0,0.0,0.0,0.0,0.0,0.0,0.0,0.0,0.0,0.0,0.0,0.0,0.0,0.0,0.0,0.0,0.0,0.0,0.0,0.0,0.0,-1.8053,-1.9805,-1.8738,-1.8396,-1.9677,-1.9076,-1.8997,-2.0022,-1.9252,-1.9267,-2.055,-2.107,-2.18,-2.2834,-2.3797,-2.4492,-2.488,-2.513,-2.5263,-2.5246,-2.5192,-2.5036,-2.4768,-2.4999,-2.4751,-2.4098,-2.4182,-2.3867,-2.3307,-2.3307,-2.3112,-2.28,-2.2417,-2.2298,-2.2447,-2.305,-2.3271,-2.3382,0.0,0.0,0.0,0.0,0.0,0.0,0.0,0.0,0.0,0.0,0.0,0.0,0.0,0.0,0.0,0.0,0.0,0.0,0.0,0.0,0.0,0.0,0.0,0.0,0.0,0.0,0.0,0.0,0.0,0.0,0.0,0.0,0.0,0.0,0.0,0.0,0.0,0.0,0.0,0.0,0.0,0.2117,0.2718,0.0,0.0,0.0,0.0,0.0,0.0,0.0,0.0,0.0,0.0,0.0,0.0,0.0,0.0,0.0,0.0,0.0,0.0,0.0,0.0,0.0,0.0,0.0,0.0,0.0,0.0,0.0,0.0,0.0,0.0,0.0,0.0,0.0,-1.9576,-1.8625,-1.8209,-1.9417,-1.7598,-1.695,-1.8783,-1.895,-1.9377,-2.0448,-2.1124,-2.1625,-2.1948,-2.2079,-2.2518,-2.343,-2.4912,-2.593,-2.636,-2.7002,-2.735,-2.7296,-2.664,-2.5926,-2.5142,-2.5296,-2.5044,-2.4506,-2.4598,-2.4362,-2.3917,-2.39,-2.3502,-2.2958,-2.3323,-2.3482,-2.3522,-2.3837,-2.3937,-2.3896,0.0,0.0,0.0,0.0,0.0,0.0,0.0,0.0,0.0,0.0,0.0,0.0,0.0,0.0,0.0,0.0,0.0,0.0,0.0,0.0,0.0,0.0,0.0,0.0,0.0,0.0,0.0,0.0,0.0,0.0,0.0,0.0,0.0,0.0,0.0,0.0,0.0,0.0,0.0,0.0,0.0,0.0,0.193,0.0,0.0,0.0,0.0,0.0,0.0,0.0,0.0,0.0,0.0,0.0,0.0,0.0,0.0,0.0,0.0,0.0,0.0,0.0,0.0,0.0,0.0,0.0,0.0,0.0,0.0,0.0,0.0,0.0,0.0,0.0,0.0,-1.9838,-1.9566,-1.7971,-1.7413,-1.8833,-1.8865,-1.9114,-1.9973,-2.0043,-2.0333,-2.1024,-2.1241,-2.1385,-2.149,-2.2438,-2.3431,-2.4379,-2.5782,-2.6913,-2.7815,-2.8014,-2.7888,-2.7525,-2.7313,-2.6857,-2.6113,-2.6135,-2.5724,-2.4946,-2.4946,-2.461,-2.4045,-2.4,-2.3607,-2.3068,-2.3057,-2.3111,-2.3218,-2.33,-2.3459,-2.3566,0.0,0.0,0.0,0.0,0.0,0.0,0.0,0.0,0.0,0.0,0.0,0.0,0.0,0.0,0.0,0.0,0.0,0.0,0.0,0.0,0.0,0.0,0.0,0.7187,0.0,0.0,0.0,0.0,0.0,0.0,0.0,0.0,0.0,0.0,0.0,0.0,0.0,0.0,0.0,0.0,0.0,0.0,-0.0524,-0.1237,-0.2816,-0.433,-0.1766,-0.0514,0.0321,0.2436,0.0,0.0,0.0,0.0,0.0,0.0,0.0,0.0,0.0,0.0,0.0,0.0,0.0,0.0,0.0,0.0,0.0,0.0,0.0,0.0,0.0,0.0,0.0,0.0,-2.0084,-2.033,-2.0567,-1.9016,-1.8215,-1.9336,-1.9615,-2.0013,-2.0789,-2.0923,-2.1401,-2.2422,-2.2481,-2.254,-2.2746,-2.3567,-2.4358,-2.513,-2.659,-2.7611,-2.8142,-2.8475,-2.8333,-2.7742,-2.7454,-2.7077,-2.6693,-2.6881,-2.6564,0.0,-2.5742,-2.531,-2.4605,-2.4326,-2.3935,0.0,0.0,0.0,0.0,0.0,-2.3153,-2.3312,0.0,0.0,0.0,0.0,0.0,0.0,0.0,0.0,0.0,0.0,0.0,0.0,0.0,0.0,0.0,0.0,0.0,0.0,0.0,0.0,0.0,0.0,0.7255,0.7684,0.0,0.0,0.0,0.0,0.0,0.0,0.0,0.0,0.0,0.0,0.0,0.0,0.0,0.0,0.0,0.0,0.0,0.0,-0.3644,-0.3185,-0.3822,-0.4768,-0.3159,-0.2481,-0.2,-0.0055,0.0,0.0,0.0,0.0,0.0,0.0,0.0,0.0,0.0,0.0,0.0,0.0,0.0,0.0,0.0,0.0,0.0,0.0,0.0,0.0,0.0,0.0,0.0,0.0,-1.9922,-2.0372,-2.2242,-2.1116,-2.0235,-2.054,-2.0076,-2.0188,-2.1368,-2.1616,-2.2427,-2.4039,-2.4239,-2.4497,-2.5003,0.0,0.0,0.0,0.0,-2.8258,-2.8122,-2.8826,-2.8872,-2.8243,-2.7523,-2.7118,-2.7083,-2.7386,-2.7322,-2.6902,-2.6695,-2.6228,-2.5522,-2.5061,-2.4634,-2.4264,-2.368,-2.313,-2.2737,-2.2842,-2.303,-2.3165,0.0,0.0,0.0,0.0,0.0,0.0,0.0,0.0,0.0,0.0,0.0,0.0,0.0,0.0,0.0,0.0,0.0,0.0,0.0,0.0,0.6171,0.796,0.7821,0.7508,0.0,0.0,0.0,0.0,0.0,0.0,0.0,0.0,0.0,0.0,0.0,0.0,0.0,0.0,0.0,0.0,0.0,0.0,-0.4161,-0.4601,-0.5108,-0.5555,-0.5633,-0.4757,-0.3586,-0.3049,-0.0056,0.3493,0.3131,0.0,0.0,0.0,0.0,0.0,0.0,0.0,0.0,0.0,0.0,0.0,0.0,0.0,0.0,0.0,0.0,0.0,0.0,0.0,0.0,-2.1671,-2.2041,-2.2652,-2.3542,-2.3517,-2.2985,-2.1868,-2.1151,-2.0971,-2.1677,-2.2279,-2.3186,-2.4465,-2.5084,-2.5714,-2.6402,-2.6895,0.0,-2.8101,-2.8906,-2.9602,-3.0219,-3.0344,-3.0261,-2.9867,0.0,0.0,-2.7919,-2.7473,-2.7157,-2.6891,-2.6878,-2.6735,-2.6635,-2.6888,-2.6472,-2.5524,-2.3825,-2.3526,-2.389,-2.2779,-2.2901,-2.3532,0.0,0.0,0.0,0.0,0.0,0.0,0.0,0.0,0.0,0.0,0.0,0.0,0.0,0.0,0.0,0.0,0.0,0.0,0.0,0.6234,0.6608,0.7778,0.7819,0.7481,0.0,0.0,0.0,0.0,0.0,0.0,0.0,0.0,0.0,0.0,0.0,0.0,0.0,0.0,0.0,0.0,0.0,0.0,-0.4944,-0.5498,-0.5735,-0.5785,-0.5981,-0.5711,-0.5298,-0.536,-0.2641,0.097,0.2159,0.4125,0.5939,0.0,0.0,0.0,0.0,0.0,0.0,0.0,0.0,0.0,0.0,0.0,0.0,0.0,0.0,-2.0116,0.0,0.0,-2.1872,-2.2505,-2.336,-2.4177,-2.4941,-2.4826,-2.43,-2.3331,-2.2764,-2.2592,-2.2884,-2.3389,-2.4253,-2.5513,-2.5958,-2.6665,-2.7668,-2.8332,-2.8633,-2.8542,-2.9596,-3.0052,-2.9713,-3.0182,-3.0144,-2.9559,-2.9229,-2.8899,-2.8621,-2.8566,-2.8247,-2.7747,-2.7643,-2.7394,-2.7081,-2.7173,-2.6824,-2.6129,-2.4748,-2.4216,-2.4175,-2.3547,-2.341,-2.3471,0.0,0.0,0.0,0.0,0.0,0.0,0.0,0.0,0.0,0.0,0.0,0.0,0.0,0.0,0.0,0.0,0.0,0.0,0.0,0.6501,0.6896,0.7144,0.7469,0.7253,0.6454,0.0,0.0,0.0,0.0,0.0,0.0,0.0,0.0,0.0,0.0,0.0,0.0,0.0,0.0,0.0,0.0,0.0,-0.5367,-0.5609,-0.57,-0.5653,-0.5596,-0.6013,-0.6645,-0.6713,-0.4529,-0.133,0.1284,0.3993,0.6267,0.6518,0.7047,0.0,0.0,0.0,0.0,0.0,0.0,0.0,0.0,0.0,-1.598,-1.7248,-1.8287,-1.9233,-1.9932,-2.0989,-2.2115,-2.317,-2.4277,-2.539,-2.6268,-2.582,-2.5178,-2.4749,-2.4286,-2.3996,-2.4093,-2.4455,-2.5214,-2.6449,-2.6912,-2.7687,-2.8929,-2.9592,-2.9693,-2.913,-3.0422,-3.0511,-2.9392,-3.0105,-3.0104,-2.9303,-2.9187,-2.9168,-2.9234,-2.9441,-2.922,-2.8583,-2.8516,-2.811,-2.7579,-2.7254,-2.6961,-2.6598,-2.5855,-2.5222,-2.4678,-2.4379,-2.4022,-2.3617,0.0,0.0,0.0,0.0,0.0,0.0,0.0,0.0,0.0,0.0,0.0,0.0,0.0,0.0,0.0,0.0,0.0,0.0,0.0,0.5022,0.5834,0.6635,0.6588,0.6373,0.5883,0.0,0.0,0.0,0.0,0.0,0.0,0.0,0.0,0.0,0.0,0.0,0.0,0.0,0.0,0.0,0.0,0.0,-0.4359,-0.4408,-0.4696,-0.5124,-0.5387,-0.6034,-0.668,-0.6523,-0.4431,-0.1463,0.0875,0.3547,0.6034,0.7026,0.0,0.4029,-0.2066,-0.6034,-0.881,-1.0157,-1.277,-1.5073,0.0,0.0,-1.7481,-1.7132,-1.8306,-1.9371,-1.9488,-2.1049,-2.2781,-2.3871,-2.5159,-2.6305,-2.742,-2.6797,-2.6214,-2.6141,-2.4752,-2.4008,-2.4386,-2.5075,-2.5896,-2.6809,-2.7885,-2.8995,-3.0001,-3.074,-3.1324,-3.176,-3.1968,-3.2032,-3.2077,-3.2023,-3.1734,-3.1192,-3.0611,-3.006,-2.9551,-2.897,-2.8679,-2.8621,-2.8906,-2.9027,-2.9024,-2.8266,-2.786,-2.7554,-2.682,-2.6714,-2.668,-2.4634,-2.4265,-2.4746,0.0,0.0,0.0,0.0,0.0,0.0,0.0,0.0,0.0,0.0,0.0,0.0,0.0,0.0,0.0,0.0,0.0,0.0,0.3614,0.4271,0.5065,0.5901,0.5925,0.5688,0.5143,0.5031,0.4755,0.0,0.0,0.0,0.0,0.0,0.0,0.0,0.0,0.0,0.0,0.0,0.0,0.0,0.0,0.0,-0.381,-0.3315,-0.335,-0.39,-0.5132,-0.6443,0.0,0.0,-0.486,-0.2562,0.0402,0.1998,0.2862,0.3091,0.1057,0.0,-0.8425,-1.0359,0.0,0.0,-1.4261,-1.5157,-1.551,-1.6534,-1.7486,-1.782,-1.8839,-2.0083,-2.1239,-2.2343,-2.3746,0.0,-2.663,-2.7333,-2.7964,-2.736,-2.6528,-2.5751,-2.511,-2.4747,-2.4963,-2.5764,-2.6565,-2.7378,-2.8739,-2.9858,-3.0654,-3.1678,-3.2127,-3.1931,-3.2325,-3.2419,-3.2047,-3.2047,-3.1904,-3.1632,-3.1002,-3.0559,-3.038,-2.9777,-2.9347,-2.9146,-2.8939,-2.862,-2.836,-2.8002,-2.7615,-2.7132,-2.681,-2.6777,-2.6772,-2.5744,-2.5468,-2.5502,0.0,0.0,0.0,0.0,0.0,0.0,0.0,0.0,0.0,0.0,0.0,0.0,0.0,0.0,0.0,0.0,0.0,0.0,0.0,0.3589,0.4367,0.4771,0.5054,0.0,0.4568,0.4531,0.4484,0.437,0.0,0.0,0.0,0.0,0.0,0.0,0.0,0.0,0.0,0.0,0.0,0.0,0.0,0.0,-0.3125,-0.2379,-0.2661,-0.3646,-0.5153,-0.6622,0.0,0.0,-0.6412,-0.4898,-0.256,-0.1686,-0.1596,-0.2001,-0.5641,-1.0195,-1.31,0.0,0.0,-1.5994,-1.6299,-1.6187,-1.6645,-1.7479,-1.836,-1.8904,-1.9584,-2.0492,-2.1814,-2.2473,-2.3587,-2.6154,-2.6639,-2.7109,-2.8021,-2.7155,-2.6054,-2.5066,-2.4973,-2.5064,-2.5206,-2.6154,-2.7125,-2.791,-2.9139,-3.01,-3.0733,-3.1765,-3.2248,-3.1963,-3.252,-3.267,-3.2231,-3.2245,-3.2146,-3.191,-3.1457,-3.1211,-3.1126,-3.0515,-3.0025,-2.9694,-2.9232,-2.8727,-2.819,-2.819,-2.7797,-2.7111,-2.7111,-2.7094,-2.7022,-2.6767,-2.6495,-2.6271,0.0,0.0,0.0,0.0,0.0,0.0,0.0,0.0,0.0,0.0,0.0,0.0,0.0,0.0,0.0,0.0,0.0,0.0,0.0,0.2715,0.3715,0.3094,0.3843,0.4207,0.421,0.4545,0.4508,0.4206,0.2642,0.0,0.0,0.0,0.0,0.0,0.0,0.0,0.0,0.0,0.0,0.0,0.0,0.0,-0.2181,-0.1779,-0.3086,-0.5185,-0.561,0.0,0.0,0.0,-0.9322,-0.8922,-0.9245,-0.8372,0.0,-0.7554,-1.304,-1.8351,0.0,0.0,-1.7991,-1.8807,-1.8715,-1.8637,-1.9331,-2.0275,-2.0936,-2.0274,-2.0372,-2.0497,-2.0066,-2.0441,-2.165,-2.422,-2.4329,-2.5011,-2.7484,-2.5882,-2.4489,-2.4388,-2.4281,-2.4303,0.0,-2.6315,-2.7468,-2.8233,-2.8994,-2.9517,-2.9805,-3.0581,-3.1462,-3.2635,-3.2662,-3.296,-3.3548,-3.3325,-3.296,-3.237,-3.2356,-3.2033,-3.1429,-3.0783,-3.0354,-3.0083,-3.0068,-2.9878,-2.9566,-2.9566,-2.898,-2.808,-2.808,-2.8098,-2.8082,-2.7361,-2.71,-2.7174,0.0,0.0,0.0,0.0,0.0,0.0,0.0,0.0,0.0,0.0,0.0,0.0,0.0,0.0,0.0,0.0,0.0,0.0,0.0,0.0848,0.1731,0.1945,0.2347,0.2747,0.3284,0.3436,0.3817,0.4376,0.3012,0.2165,0.0,0.0,0.0,0.0,0.0,0.0,0.0,0.0,0.0,0.0,0.0,0.0,-0.1269,-0.2388,-0.4089,-0.6219,0.0,0.0,0.0,0.0,-1.1948,-1.1047,-1.0292,0.0,0.0,-1.3201,-1.657,-1.8981,-1.6432,0.0,-1.7326,-1.6674,-1.6989,-1.7673,-1.8529,-1.9576,-2.0163,-1.9402,-1.9478,-1.9614,-1.9243,-1.9588,-2.0762,-2.3176,-2.3817,-2.4614,-2.6411,-2.5588,-2.44,-2.3313,-2.3764,0.0,0.0,0.0,0.0,-2.8041,-2.9262,-3.0012,-3.0136,-3.0878,-3.1502,-3.1882,-3.1882,-3.2028,-3.2187,-3.2114,-3.2006,-3.1816,-3.1789,-3.1282,-3.0337,-3.0486,-3.0127,-2.9274,-2.9274,-2.8958,-2.8451,-2.8451,-2.845,-2.8513,-2.8513,-2.8497,-2.8439,-2.8212,-2.7997,-2.7752,0.0,0.0,0.0,0.0,0.0,0.0,0.0,0.0,0.0,0.0,0.0,0.0,0.0,0.0,0.0,0.0,0.0,0.0,0.0,0.0,-0.0399,0.0592,0.0955,0.1387,0.1865,0.2295,0.2842,0.3508,0.2811,0.2058,0.0,0.0,0.0,0.0,0.0,0.0,0.0,0.0,0.0,0.0,0.0,0.0,-0.1304,-0.3581,-0.5998,0.0,0.0,0.0,0.0,0.0,0.0,-1.3282,-1.2757,-1.3114,-1.4129,-1.6153,-1.7388,-1.7787,-1.6468,-1.6461,-1.6768,-1.6349,-1.696,-1.7681,-1.8246,-1.9093,-1.9477,-1.8399,-1.8397,-1.8449,-1.7955,-1.7905,-1.888,-2.145,-2.1892,-2.2606,-2.4838,-2.4324,-2.3398,-2.2676,-2.3447,0.0,0.0,0.0,0.0,-2.8256,-2.9471,-3.0173,-3.0173,-3.0612,-3.0905,-3.1146,-3.1013,-3.1057,-3.1281,-3.1429,-3.1516,-3.1502,-3.1505,-3.1007,-3.0007,-3.0441,-3.0048,-2.9225,-2.9225,-2.8866,-2.8443,-2.8443,-2.851,-2.8656,-2.8828,-2.8686,-2.8314,-2.854,-2.8327,-2.7902,0.0,0.0,0.0,0.0,0.0,0.0,0.0,0.0,0.0,0.0,0.0,0.0,0.0,0.0,0.0,0.0,0.0,0.0,0.0,0.0,0.0,-0.1003,-0.0305,0.0093,0.0093,0.1116,0.1688,0.1692,0.1899,0.145,0.025,0.0,0.0,0.0,0.0,0.0,0.0,0.0,0.0,0.0,0.0,0.0,-0.2263,-0.5081,0.0,0.0,0.0,0.0,0.0,0.0,0.0,0.0,0.0,-1.6739,-1.6618,-1.6432,-1.5877,-1.5348,-1.5565,-1.5988,-1.6557,-1.775,-1.8345,-1.8588,-1.8475,-1.8837,-1.878,-1.7374,-1.7149,-1.6908,0.0,0.0,-1.6258,-1.9114,-1.8724,-1.9362,-2.295,-2.2221,-2.166,0.0,0.0,0.0,0.0,0.0,0.0,-2.8718,0.0,-2.9873,-2.9898,-2.9724,-2.9942,-3.0453,-3.0161,-3.0241,-3.082,-3.1206,-3.1442,-3.1442,-3.1442,-3.115,-3.0546,-3.0618,-3.0228,-2.9684,-2.9684,-2.956,-2.9335,-2.9335,-2.91,-2.8675,-2.914,-2.8741,-2.7958,-2.8524,-2.8263,-2.7765,0.0,0.0,0.0,0.0,0.0,0.0,0.0,0.0,0.0,0.0,0.0,0.0,0.0,0.0,0.0,0.0,0.0,0.0,0.0,0.0,0.0,0.0,0.0,0.0,0.0,0.0,0.0,0.0,0.0,0.0233,-0.1287,0.0,0.0,0.0,0.0,0.0,0.0,0.0,0.0,0.0,0.0,0.0,-0.2667,0.0,0.0,0.0,0.0,0.0,0.0,0.0,0.0,0.0,0.0,-1.5142,-1.471,-1.4563,-1.5023,-1.547,-1.4739,-1.544,-1.6342,-1.6138,-1.6232,-1.6168,-1.5708,-1.5748,-1.5589,-1.4159,-1.3913,-1.3694,0.0,0.0,0.0,-1.735,-1.8981,0.0,-2.2859,-2.3162,0.0,-2.2988,0.0,-2.4504,-2.511,-2.6444,0.0,0.0,-2.9318,-2.987,-3.0284,-3.0379,-3.0347,-3.0103,-2.985,-2.9737,-2.9793,-3.005,-3.0228,-3.0228,-3.0633,-3.0556,-3.0012,-3.0413,-3.0028,-2.9071,-2.9071,-2.8885,-2.8454,-2.8715,-2.8849,-2.8969,-2.9736,-2.9754,-2.9329,-2.9848,-2.9609,-2.9049,0.0,0.0,0.0,0.0,0.0,0.0,0.0,0.0,0.0,0.0,0.0,0.0,0.0,0.0,0.0,0.0,0.0,0.0,0.0,0.0,0.0,0.0,0.0,0.0,0.0,0.0,0.0,0.0,0.0,0.0,0.0,0.0,0.0,0.0,0.0,0.0,0.0,0.0,0.0,0.0,0.0,0.0,0.0,0.0,0.0,0.0,0.0,0.0,0.0,0.0,0.0,-1.3647,-1.3518,-1.3354,-1.3233,-1.3725,0.0,-1.514,-1.465,-1.5315,-1.6092,-1.5631,-1.5398,-1.5017,-1.4295,-1.4043,-1.3636,-1.2262,-1.2103,0.0,0.0,0.0,0.0,0.0,0.0,0.0,-2.2012,-2.2842,-2.3281,0.0,-2.418,0.0,-2.5324,-2.6315,-2.7298,0.0,-2.9432,-3.0277,-3.0592,-3.0604,-3.0362,-2.9723,-2.9482,-2.9177,-2.8882,-2.93,-2.9456,-2.9378,-2.9973,-3.0062,-2.9792,-3.0139,-2.9885,-2.9302,0.0,-2.8885,-2.8331,-2.8529,-2.8515,-2.8454,-2.9296,-2.9426,-2.9097,-2.974,-2.9699,-2.9297,0.0,0.0,0.0,0.0,0.0,0.0,0.0,0.0,0.0,0.0,0.0,0.0,0.0,0.0,0.0,0.0,0.0,0.0,0.0,0.0,0.0,0.0,0.0,0.0,0.0,0.0,0.0,0.0,0.0,0.0,0.0,0.0,0.0,0.0,0.0,0.0,0.0,0.0,0.0,0.0,0.0,0.0,0.0,0.0,0.0,0.0,0.0,0.0,0.0,0.0,-0.974,-1.1506,-1.1567,-1.1833,-1.2366,-1.3493,-1.4288,-1.4809,-1.4974,-1.5418,-1.5724,-1.5778,-1.5304,-1.4603,-1.3674,-1.3063,-1.2371,-1.1119,0.0,-1.1035,-1.0624,0.0,-1.2894,-1.463,0.0,-1.8308,-2.0787,-2.2055,-2.2978,-2.3779,-2.4678,-2.5446,-2.5717,-2.6249,-2.694,-2.7796,-2.9515,-3.0703,-3.079,-3.064,-3.0107,-2.9409,-2.9059,-2.8702,-2.8099,-2.8645,-2.8803,-2.8712,-2.9378,-2.9702,-2.9702,-2.9792,-2.9792,-2.9792,0.0,0.0,-2.8622,-2.8605,-2.8177,-2.7628,-2.8444,-2.8538,-2.8318,-2.9152,-2.9363,-2.9219,0.0,0.0,0.0,0.0,0.0,0.0,0.0,0.0,0.0,0.0,0.4828,0.0,0.0,0.0,0.0,0.0,0.0,0.0,0.0,0.0,0.0,0.0,0.0,0.0,0.0,0.0,0.0,0.0,0.0,0.0,0.0,0.0,0.0,0.0,0.0,0.0,0.0,0.0,0.0,0.0,0.0,0.0,0.0,0.0,0.0,0.0,0.0,0.0,0.0,0.0,-0.898,-1.0864,-1.1281,-1.2128,-1.3108,-1.3811,-1.444,-1.4994,-1.5302,-1.5478,-1.5582,-1.5438,-1.4665,-1.3677,-1.2716,-1.1769,0.0,0.0,0.0,-0.9221,-0.9173,-1.0361,0.0,-1.3691,0.0,0.0,0.0,0.0,-2.375,0.0,0.0,0.0,0.0,0.0,0.0,0.0,0.0,-2.9477,-3.0314,-3.0055,-2.9742,-2.9188,-2.882,-2.8375,-2.7603,-2.7903,-2.7971,-2.7971,-2.8633,-2.8961,-2.8961,-2.9546,-2.9792,-2.9792,-2.9792,0.0,-2.8824,-2.8698,-2.8254,-2.7821,-2.8527,-2.8848,-2.8976,-2.9822,-3.0201,-3.0265,0.0,0.0,0.0,0.0,0.0,0.0,0.0,0.0,0.0,0.0,0.3821,0.276,0.0,0.0,0.0,0.0,0.0,0.0,0.0,0.0,0.0,0.0,0.0,0.0,0.0,0.0,0.0,0.0,0.0,0.0,0.0,0.0,0.0,0.0,0.0,0.0,0.0,0.0,0.0,0.0,0.0,0.0,0.0,0.0,0.0,0.0,0.0,0.0,0.0,0.0,-0.8587,-1.0481,-1.1376,-1.2258,-1.3061,-1.3269,-1.4076,-1.4779,-1.3978,-1.4177,-1.45,-1.3848,-1.3073,-1.2116,-1.0875,0.0,0.0,0.0,0.0,-0.8368,-0.8752,0.0,0.0,0.0,0.0,0.0,0.0,0.0,0.0,0.0,0.0,0.0,0.0,0.0,0.0,0.0,0.0,-2.7755,-2.906,-2.8756,-2.8471,-2.8355,-2.8133,-2.7641,-2.6798,-2.7531,-2.7684,-2.7348,-2.7983,-2.8303,-2.8303,-2.8633,-2.8961,-2.9287,-2.9287,0.0,-2.89,-2.8785,-2.8312,-2.7583,-2.8114,-2.8199,-2.8182,-2.9058,-2.9637,-2.9907,0.0,0.0,0.0,0.0,0.0,0.0,0.0,0.5853,0.4692,0.281,0.1904,0.0829,-0.0835,-0.3941,0.0,0.0,0.0,0.0,0.0,0.0,0.0,0.0,0.0,0.0,0.0,0.0,0.0,0.0,0.0,0.0,0.0,0.0,0.0,0.0,0.0,0.0,0.0,0.0,0.0,0.0,0.0,0.0,0.0,0.0,0.0,0.0,0.0,0.0,0.0,0.0,-0.8143,-0.9864,-1.0955,-1.1847,-1.2466,-1.2391,-1.3233,-1.3956,-1.2533,-1.278,-1.3132,-1.2172,-1.1402,-1.0499,-0.9264,-0.8614,0.0,0.0,-0.7557,-0.7723,-0.8646,0.0,0.0,0.0,0.0,0.0,0.0,0.0,0.0,0.0,0.0,0.0,0.0,0.0,0.0,0.0,0.0,0.0,-2.7791,-2.7514,-2.7433,-2.7536,-2.7364,-2.6981,-2.624,-2.7015,-2.7182,-2.6727,-2.7348,-2.758,-2.758,-2.773,-2.8051,-2.8621,-2.8712,0.0,0.0,-2.89,-2.8348,-2.7528,-2.7857,-2.7708,-2.7504,-2.8452,-2.8988,-2.9372,0.0,0.0,0.0,0.0,0.0,0.0,0.0,0.4924,0.3279,0.1344,-0.0274,-0.1458,-0.1994,-0.4213,0.0,0.0,0.0,0.0,0.0,0.0,0.0,0.0,0.0,0.0,0.0,0.0,0.0,0.0,0.0,0.0,0.0,0.0,0.0,0.0,0.0,0.0,0.0,0.0,0.0,0.0,0.0,0.0,0.0,0.0,0.0,0.0,0.0,0.0,0.0,0.0,0.0,-0.8453,-0.9083,-1.0227,-1.1415,-1.1576,0.0,0.0,-1.1764,-1.1793,-1.1748,-1.1419,-1.0389,-0.9324,-0.8739,0.0,0.0,-0.762,-0.7182,-0.7128,-0.8533,-0.8334,0.0,0.0,0.0,0.0,0.0,0.0,0.0,0.0,0.0,0.0,0.0,0.0,0.0,0.0,0.0,0.0,-2.6958,-2.7423,-2.7597,-2.7315,-2.6759,-2.6365,-2.624,-2.6107,-2.6023,-2.5979,-2.6644,-2.6974,-2.6962,-2.758,-2.781,-2.7971,-2.8554,0.0,0.0,-2.8898,-2.8574,-2.8021,-2.8371,-2.8312,-2.8097,-2.9022,-2.9415,-2.9597,0.0,0.0,0.0,0.0,0.0,0.0,0.0,0.2847,0.1059,-0.0875,-0.195,-0.2572,-0.2728,-0.3748,-0.4868,0.0,0.0,0.0,0.0,0.0,0.0,0.0,0.0,0.0,0.0,0.0,0.0,0.0,0.0,0.0,0.0,0.0,0.0,0.0,0.0,0.0,0.0,0.0,0.0,0.0,0.0,0.0,0.0,0.0,0.0,0.0,0.0,0.0,0.0,0.0,0.0,0.0,-0.7491,-0.7768,0.0,0.0,-1.088,-1.1643,-1.0876,-1.167,-1.2331,-1.0808,-0.9841,-0.8908,-0.7245,0.0,0.0,-0.6322,-0.614,-0.6416,-0.7883,-0.7889,-0.8391,0.0,0.0,0.0,0.0,0.0,0.0,0.0,0.0,0.0,0.0,0.0,0.0,0.0,0.0,0.0,-2.6197,-2.6013,-2.5951,-2.5965,-2.5883,-2.5765,-2.5633,-2.5477,-2.5477,-2.5464,-2.5443,-2.5443,-2.5443,-2.5663,-2.6069,-2.6483,-2.6987,0.0,0.0,-2.8717,-2.851,-2.8109,-2.8243,-2.8045,-2.7678,-2.7954,-2.8323,-2.8797,0.0,0.0,0.0,0.0,0.0,0.0,0.2529,0.0955,-0.0613,-0.2395,-0.2867,-0.3059,-0.3059,-0.3212,-0.3689,-0.4589,0.0,0.0,0.0,0.0,0.0,0.0,0.0,0.0,0.0,0.0,0.0,0.0,0.0,0.0,0.0,0.0,0.0,0.0,0.0,0.0,0.0,0.0,0.0,0.0,0.0,0.0,0.0,0.0,0.0,0.0,0.0,0.0,0.0,0.0,0.0,0.0,0.0,0.0,0.0,0.0,-0.917,-1.0139,-0.9135,-1.0234,-1.1146,-0.9354,-0.8604,-0.7807,0.0,0.0,0.0,-0.5487,-0.5324,-0.5655,-0.7122,-0.7458,-0.8135,0.0,0.0,0.0,0.0,0.0,0.0,0.0,0.0,0.0,0.0,0.0,0.0,0.0,0.0,0.0,0.0,-2.5083,-2.4836,-2.5057,-2.5173,-2.5159,-2.5031,-2.5149,-2.5211,-2.5156,-2.4742,-2.4571,-2.4705,-2.456,-2.4744,-2.5242,0.0,0.0,0.0,-2.8279,-2.8309,-2.7879,-2.8188,-2.8009,-2.7553,-2.7474,-2.7765,-2.8196,0.0,0.0,0.0,0.0,0.0,0.0,0.0,-0.0486,-0.1372,-0.2727,-0.291,-0.291,-0.291,-0.2774,-0.2944,-0.3558,0.0,0.0,0.0,0.0,0.0,0.0,0.0,0.0,0.0,0.0,0.0,0.0,0.0,0.0,0.0,0.0,0.0,0.0,0.0,0.0,0.0,0.0,0.0,0.0,0.0,0.0,0.0,0.0,0.0,0.0,0.0,0.0,0.0,0.0,0.0,0.0,0.0,0.0,0.0,0.0,-0.6297,-0.6373,-0.6524,-0.6807,-0.7078,-0.6783,-0.6254,-0.5728,0.0,0.0,0.0,-0.5378,-0.4948,-0.4952,-0.6372,-0.688,-0.7442,-0.8446,0.0,0.0,0.0,0.0,0.0,0.0,0.0,0.0,0.0,0.0,0.0,0.0,0.0,0.0,0.0,-2.4893,-2.4598,-2.5067,-2.4736,-2.4547,-2.4509,-2.4985,-2.5223,-2.5213,-2.4726,-2.4757,-2.5213,-2.4716,-2.4498,0.0,0.0,0.0,0.0,-2.736,-2.7775,-2.7389,-2.851,-2.8586,-2.8097,-2.8097,-2.8092,-2.8179,0.0,0.0,0.0,0.0,0.0,0.0,0.0,-0.1653,-0.2276,-0.3076,-0.3078,-0.3052,-0.3052,-0.2924,-0.2973,-0.3381,0.0,0.0,0.0,0.0,0.0,0.0,0.0,0.0,0.0,0.0,0.0,0.0,0.0,0.0,0.0,0.0,0.0,0.0,0.0,0.0,0.0,0.0,0.0,0.0,0.0,0.0,0.0,0.0,0.0,0.0,0.0,0.0,0.0,0.0,0.0,0.0,0.0,0.0,0.0,0.0,0.0,0.0,-0.7292,-0.8152,-0.8672,-0.7791,-0.7225,-0.6509,-0.5441,0.0,0.0,-0.4787,-0.4625,-0.4791,-0.571,-0.6365,-0.7415,-0.9453,-1.0425,0.0,0.0,0.0,0.0,0.0,0.0,0.0,0.0,0.0,0.0,0.0,0.0,0.0,0.0,-2.4113,-2.4212,-2.4588,-2.39,-2.372,-2.4003,-2.3894,-2.3964,-2.4226,-2.3814,-2.364,-2.3779,-2.363,0.0,0.0,0.0,0.0,0.0,-2.6318,-2.7002,-2.7353,-2.7563,-2.7866,-2.8059,-2.7682,-2.7814,-2.8206,0.0,0.0,0.0,0.0,0.0,0.0,0.0,-0.2142,-0.2506,-0.3007,-0.3123,-0.3166,-0.3166,-0.3353,-0.3553,-0.3755,0.0,0.0,0.0,0.0,0.0,0.0,0.0,0.0,0.0,0.0,0.0,0.0,0.0,0.0,0.0,0.0,0.0,0.0,0.0,0.0,0.0,0.0,0.0,0.0,0.0,0.0,-0.3785,0.0,0.0,0.0,0.0,0.0,0.0,0.0,0.0,0.0,0.0,0.0,0.0,0.0,-0.5232,0.0,0.0,-0.7395,-0.7859,-0.7093,-0.6631,0.0,0.0,0.0,0.0,-0.4519,-0.4519,-0.4625,-0.5058,-0.5832,-0.6954,-0.8485,-0.9862,0.0,0.0,0.0,0.0,0.0,0.0,0.0,0.0,0.0,0.0,0.0,0.0,0.0,0.0,-2.336,-2.3635,-2.3895,-2.3573,-2.3389,-2.3493,-2.3389,-2.3477,-2.3819,-2.33,-2.3223,-2.3379,-2.3213,0.0,0.0,0.0,0.0,0.0,-2.5231,-2.6046,-2.6679,-2.7038,-2.7419,-2.7729,-2.741,-2.7369,-2.7578,0.0,0.0,0.0,0.0,0.0,0.0,0.0,0.0,0.0,0.0,-0.3137,-0.3394,-0.3394,-0.4019,-0.4516,0.0,0.0,0.0,0.0,0.0,0.0,0.0,0.0,0.0,0.0,0.0,0.0,0.0,-0.4851,-0.3655,-0.2363,0.0,0.0,0.0,0.0,0.0,0.0,0.0,0.0,0.0,0.0,0.0,0.0,0.0,0.0,0.0,0.0,0.0,0.0,0.0,0.0,0.0,0.0,0.0,0.0,0.0,0.0,0.0,0.0,-0.5087,0.0,0.0,0.0,0.0,0.0,0.0,0.0,0.0,0.0,0.0,-0.4546,-0.5459,-0.6284,-0.635,-0.8297,0.0,0.0,0.0,0.0,0.0,0.0,0.0,0.0,0.0,0.0,0.0,0.0,0.0,0.0,-2.2676,-2.2928,-2.2928,-2.3471,-2.3545,-2.3144,-2.3545,-2.374,-2.374,-2.333,-2.335,-2.373,-2.332,0.0,0.0,0.0,0.0,0.0,-2.4296,-2.4967,-2.5597,-2.6724,-2.7179,-2.715,-2.7232,-2.7042,-2.6773,0.0,0.0,0.0,0.0,0.0,0.0,0.0,0.0,0.0,0.0,0.0,-0.4296,-0.4296,-0.4676,0.0,0.0,0.0,0.0,0.0,0.0,0.0,0.0,0.0,0.0,0.0,0.0,0.0,-0.69,-0.6187,-0.5161,-0.3889,-0.3138,0.0,0.0,0.0,0.0,0.0,0.0,0.0,0.0,0.0,0.0,0.0,0.0,0.0,0.0,-0.4519,-0.4519,0.0,0.0,0.0,0.0,0.0,0.0,0.0,0.0,-0.4519,-0.4532,-0.4551,0.0,-0.4721,-0.4626,-0.4596,0.0,0.0,0.0,0.0,0.0,0.0,0.0,0.0,0.0,0.0,0.0,0.0,0.0,0.0,0.0,0.0,0.0,0.0,0.0,0.0,0.0,0.0,0.0,0.0,0.0,0.0,-2.0919,-2.1715,-2.1715,-2.2742,-2.3242,-2.3135,-2.3242,-2.3291,-2.3291,-2.3184,-2.3193,-2.3291,-2.3184,0.0,0.0,0.0,0.0,-2.3135,-2.382,-2.4392,-2.4999,-2.5529,-2.638,-2.7227,-2.7174,-2.7631,-2.836,0.0,0.0,0.0,0.0,0.0,0.0,0.0,0.0,0.0,0.0,0.0,0.0,0.0,0.0,0.0,0.0,0.0,0.0,0.0,0.0,0.0,0.0,0.0,0.0,0.0,0.0,0.0,0.0,0.0,-0.72,0.0,0.0,0.0,0.0,0.0,0.0,0.0,0.0,0.0,0.0,-0.2259,0.0,0.0,0.0,0.0,0.0,-0.4519,-0.4519,0.0,-0.4519,-0.4519,-0.4519,0.0,0.0,0.0,0.0,-0.4519,-0.4519,-0.4519,-0.457,-0.4568,-0.4568,-0.4568,-0.4568,0.0,0.0,0.0,0.0,0.0,0.0,0.0,0.0,0.0,0.0,0.0,0.0,0.0,0.0,0.0,0.0,0.0,0.0,0.0,0.0,0.0,0.0,0.0,0.0,0.0,-1.9412,-2.0223,-2.0503,-2.1676,-2.258,-2.3047,-2.3135,-2.3135,-2.3135,-2.3135,-2.3135,-2.3135,-2.3135,-2.3135,0.0,0.0,0.0,-2.3135,-2.3396,-2.382,-2.4372,-2.512,-2.5639,-2.6147,-2.6808,-2.736,-2.7829,0.0,0.0,0.0,0.0,0.0,0.0,0.0,0.0,0.0,0.0,0.0,0.0,0.0,0.0,0.0,0.0,0.0,0.0,0.0,0.0,0.0,0.0,0.0,0.0,0.0,0.0,0.0,0.0,0.0,0.0,0.0,0.0,0.0,0.0,0.0,0.0,0.0,0.0,0.0,0.0,-0.1838,0.0,0.0,0.0,0.0,0.0,0.0,0.0,0.0,-0.4519,-0.4519,-0.4519,-0.4519,0.0,0.0,0.0,0.0,0.0,-0.4519,-0.4592,-0.4714,-0.4667,-0.4691,-0.4718,0.0,0.0,0.0,0.0,0.0,0.0,0.0,0.0,0.0,0.0,0.0,0.0,0.0,0.0,0.0,0.0,0.0,0.0,0.0,0.0,0.0,0.0,0.0,0.0,0.0,-1.8115,-1.8796,-1.9255,-2.0494,-2.1667,-2.2687,-2.296,-2.3135,-2.3135,-2.3135,-2.3135,-2.3135,-2.3135,-2.3135,0.0,0.0,0.0,-2.3135,-2.3135,-2.3319,-2.3831,-2.4756,-2.4973,-2.4791,-2.6188,-2.66,-2.6651,0.0,0.0,0.0,0.0,0.0,0.0,0.0,0.0,0.0,0.0,0.0,0.0,0.0,0.0,0.0,0.0,0.0,0.0,0.0,0.0,0.0,0.0,0.0,0.0,0.0,0.0,0.0,0.0,0.0,0.0,-0.8934,-0.8526,-0.6172,0.0,0.0,0.0,0.0,0.0,-0.0056,-0.028,-0.1664,0.0,0.0,0.0,0.0,0.0,0.0,0.0,0.0,-0.4519,-0.4519,-0.4519,-0.4519,0.0,0.0,0.0,0.0,0.0,-0.4519,-0.4667,-0.4823,-0.4562,-0.4694,-0.485,0.0,0.0,0.0,0.0,0.0,0.0,0.0,0.0,0.0,0.0,0.0,0.0,0.0,0.0,0.0,0.0,0.0,0.0,0.0,0.0,0.0,0.0,0.0,0.0,0.0,-1.7153,-1.787,-1.7963,-1.9778,-2.0773,-2.0962,-2.2413,-2.3135,-2.3135,-2.3135,-2.3135,-2.3135,-2.3135,-2.3135,0.0,0.0,-2.3135,-2.3135,-2.3135,-2.3144,-2.3193,-2.3428,-2.4085,-2.481,-2.4702,-2.5749,-2.714,0.0,0.0,0.0,0.0,0.0,0.0,0.0,0.0,0.0,0.0,0.0,0.0,0.0,0.0,0.0,0.0,0.0,0.0,0.0,0.0,0.0,0.0,0.0,0.0,0.0,0.0,0.0,0.0,0.0,-1.2643,-1.0705,-0.8225,-0.5536,-0.2722,0.0,0.0,0.0,0.0,-0.0224,-0.0671,0.0,0.0,0.0,0.0,0.0,0.0,0.0,0.0,0.0,0.0,-0.4519,-0.4519,-0.4519,0.0,0.0,0.0,0.0,0.0,-0.4519,-0.4626,-0.4762,-0.4619,-0.5166,-0.569,0.0,0.0,0.0,0.0,0.0,0.0,0.0,0.0,0.0,0.0,0.0,0.0,0.0,0.0,0.0,0.0,0.0,0.0,0.0,0.0,0.0,0.0,0.0,0.0,0.0,0.0,-1.6857,-1.7138,-1.8326,-1.933,-1.9977,-2.1409,-2.2315,-2.2696,-2.296,-2.3135,-2.3135,-2.3135,-2.3135,-2.3135,0.0,-2.3135,-2.3135,-2.3135,-2.3008,-2.2783,-2.3098,-2.3206,-2.3259,-2.4073,-2.5413,-2.6785,0.0,0.0,0.0,0.0,0.0,0.0,0.0,0.0,0.0,0.0,0.0,0.0,0.0,0.0,0.0,0.0,0.0,0.0,0.0,0.0,0.0,0.0,0.0,0.0,0.0,0.0,0.0,-1.3175,-1.3577,-1.3003,-1.1495,-0.7665,-0.5054,0.0,0.0,0.0,-0.0224,-0.0056,-0.0448,-0.1174,0.0,0.0,0.0,0.0,0.0,0.0,0.0,0.0,0.0,0.0,0.0,0.0,0.0,0.0,0.0,-0.4519,-0.4519,-0.4519,-0.4519,-0.4575,-0.4691,-0.4691,0.0,0.0,0.0,0.0,0.0,0.0,0.0,0.0,0.0,0.0,0.0,0.0,0.0,0.0,0.0,0.0,0.0,0.0,0.0,0.0,0.0,0.0,0.0,0.0,0.0,0.0,0.0,0.0,-1.6021,-1.64,-1.7138,-1.7963,-1.8888,-2.0133,-2.132,-2.2441,-2.2882,-2.3057,-2.3057,-2.3047,-2.3057,-2.3057,-2.3047,-2.3135,-2.3135,-2.3027,-2.2803,-2.25,-2.2715,-2.2321,-2.1934,-2.3579,-2.4865,-2.5937,0.0,0.0,0.0,0.0,0.0,0.0,0.0,0.0,0.0,0.0,0.0,0.0,0.0,0.0,0.0,0.0,0.0,0.0,0.0,0.0,0.0,0.0,0.0,0.0,0.0,-1.0426,-1.1444,-1.3452,-1.2952,-1.1831,-1.0101,-0.8006,-0.6034,-0.4258,0.0,0.0,-0.095,-0.028,-0.0448,-0.1174,-0.1898,0.0,0.0,0.0,0.0,0.0,0.0,0.0,0.0,0.0,0.0,0.0,0.0,0.0,-0.4519,-0.4519,-0.4519,-0.4519,-0.4519,-0.4575,-0.4691,-0.4691,-0.4872,0.0,-0.5528,-0.6753,0.0,0.0,0.0,0.0,0.0,0.0,0.0,0.0,0.0,0.0,0.0,0.0,0.0,0.0,0.0,0.0,0.0,0.0,0.0,0.0,0.0,0.0,0.0,0.0,0.0,-1.5832,-1.6669,-1.7131,-1.7225,-1.8419,-2.0158,-2.2441,-2.2882,-2.2969,-2.2803,-2.2969,-2.2969,-2.2803,-2.3057,-2.3135,-2.3105,-2.2715,-2.2539,-2.2432,-2.1641,-2.1431,-2.1706,-2.3172,-2.3824,-2.4342,0.0,0.0,0.0,0.0,0.0,0.0,0.0,0.0,0.0,0.0,0.0,0.0,0.0,0.0,0.0,0.0,0.0,0.0,0.0,0.0,0.0,0.0,0.0,-0.9191,-1.0023,-1.0693,-1.1589,-1.2654,-1.1985,-1.1197,-1.0236,-0.7909,0.0,0.0,0.0,0.0,-0.1062,-0.0336,-0.0448,-0.1118,-0.1396,-0.2287,0.0,0.0,0.0,0.0,0.0,0.0,0.0,0.0,-0.4184,-0.3901,0.0,-0.4519,-0.4519,-0.4519,-0.4519,-0.4519,-0.4519,-0.4643,-0.4833,-0.4833,-0.4942,0.0,0.0,-0.7472,0.0,0.0,0.0,0.0,0.0,0.0,0.0,0.0,0.0,0.0,0.0,0.0,0.0,0.0,0.0,0.0,0.0,0.0,0.0,0.0,0.0,0.0,0.0,0.0,0.0,-1.4867,-1.5645,-1.6292,-1.6943,-1.7777,-1.8788,-2.0158,-2.1141,-2.1793,-2.2097,-2.253,-2.2441,-2.2167,-2.2515,-2.2572,-2.2284,-2.2211,-2.1963,-2.166,-2.1055,-2.1035,-2.1389,-2.2328,-2.3144,-2.3847,0.0,0.0,0.0,0.0,0.0,0.0,0.0,0.0,0.0,0.0,0.0,0.0,0.0,0.0,0.0,0.0,0.0,0.0,0.0,0.0,0.0,0.0,0.0,-0.8854,-0.9458,-1.0241,-1.1062,-1.191,-1.1249,-1.0582,-0.9936,0.0,0.0,0.0,0.0,0.0,0.0,0.0,-0.0448,-0.1118,-0.1118,-0.1898,0.0,0.0,0.0,0.0,0.0,0.0,0.0,0.0,-0.3566,-0.3456,0.0,0.0,0.0,0.0,-0.4519,-0.4519,-0.4519,-0.4616,-0.4785,0.0,0.0,0.0,-0.6683,0.0,0.0,0.0,0.0,0.0,0.0,0.0,0.0,0.0,0.0,0.0,0.0,0.0,0.0,0.0,0.0,0.0,0.0,0.0,0.0,0.0,0.0,0.0,0.0,0.0,0.0,0.0,-1.4612,-1.5436,-1.638,-1.665,-1.7202,-1.7918,-1.883,-1.985,-2.0898,-2.1526,-2.1704,-2.1516,-2.1727,-2.1902,-2.1959,-2.1396,-2.1082,-2.0996,-2.0684,-2.0809,-2.1081,-2.1693,-2.2363,-2.3108,0.0,0.0,0.0,0.0,0.0,0.0,0.0,0.0,0.0,0.0,0.0,0.0,0.0,0.0,0.0,0.0,0.0,0.0,0.0,0.0,0.0,0.0,0.0,-0.8804,-0.8804,-0.8804,-0.9669,-1.1464,-1.0832,-0.9875,-0.8752,-0.7289,0.0,0.0,0.0,0.0,0.0,0.0,-0.0448,-0.1062,-0.1062,-0.1507,-0.2174,0.0,0.0,0.0,0.0,0.0,0.0,0.0,-0.2676,-0.3287,0.0,0.0,0.0,-0.4519,-0.4519,-0.4519,-0.4519,-0.4519,-0.456,0.0,0.0,0.0,0.0,0.0,0.0,0.0,0.0,0.0,0.0,0.0,0.0,0.0,0.0,0.0,0.0,0.0,0.0,0.0,0.0,0.0,0.0,0.0,0.0,0.0,0.0,0.0,0.0,0.0,0.0,0.0,-1.367,-1.4224,-1.4963,-1.4963,-1.5404,-1.6094,-1.6321,-1.7439,-1.9131,-2.0133,-2.0764,-2.0926,-2.0448,-2.108,-2.2347,-2.0375,-1.9962,-2.0566,-2.0566,-2.0566,-2.0644,-2.1282,-2.1512,-2.1783,0.0,0.0,0.0,0.0,0.0,0.0,0.0,0.0,0.0,0.0,0.0,0.0,0.0,0.0,0.0,0.0,0.0,0.0,0.0,0.0,0.0,0.0,0.0,0.0,0.0,0.0,-0.9056,-0.9602,-0.9397,-0.8878,0.0,0.0,0.0,-0.5706,0.0,0.0,0.0,0.0,-0.0112,-0.0336,-0.0336,-0.0783,-0.1452,0.0,0.0,0.0,0.0,0.0,0.0,0.0,0.0,0.0,-0.3176,0.0,0.0,-0.4349,-0.4125,-0.379,-0.4349,-0.4619,0.0,0.0,0.0,0.0,0.0,0.0,0.0,0.0,0.0,0.0,0.0,0.0,0.0,0.0,0.0,0.0,0.0,0.0,0.0,0.0,0.0,0.0,0.0,0.0,0.0,0.0,0.0,0.0,0.0,0.0,0.0,0.0,-1.2754,-1.3742,-1.4963,-1.4963,-1.5143,-1.5315,-1.5404,-1.6314,-1.8076,-1.8685,-1.9312,-1.9829,-1.953,-1.9847,-2.066,-2.0018,-2.0115,-2.0566,-2.0566,-2.0566,-2.0683,-2.1155,-2.1399,-2.164,0.0,0.0,0.0,0.0,0.0,0.0,0.0,0.0,0.0,0.0,0.0,0.0,0.0,0.0,0.0,0.0,0.0,0.0,0.0,0.0,0.0,0.0,0.0,0.0,0.0,-0.8804,-0.8804,0.0,0.0,0.0,0.0,0.0,0.0,-0.4984,0.0,-0.2063,0.0,0.0,0.0,0.0,0.0,-0.028,-0.0671,0.0,0.0,0.0,0.0,0.0,0.0,0.0,0.0,0.0,0.0,0.0,0.0,-0.4349,-0.4181,-0.3901,-0.4349,-0.4684,0.0,0.0,0.0,0.0,0.0,0.0,0.0,0.0,0.0,0.0,0.0,0.0,0.0,0.0,0.0,0.0,0.0,0.0,0.0,0.0,0.0,0.0,0.0,0.0,0.0,0.0,0.0,0.0,0.0,0.0,0.0,0.0,-1.1484,-1.2531,-1.3649,-1.4091,-1.4322,-1.4442,-1.4556,-1.5293,-1.6381,-1.7115,-1.7791,-1.829,-1.849,-1.8733,-1.8894,-1.914,-1.9781,-2.0547,-2.0371,-2.041,-2.0596,-2.0869,-2.1036,-2.1225,0.0,0.0,0.0,0.0,0.0,0.0,0.0,0.0,0.0,0.0,0.0,0.0,0.0,0.0,0.0,0.0,0.0,0.0,0.0,0.0,0.0,0.0,0.0,0.0,0.0,0.0,0.0,0.0,0.0,0.0,0.0,0.0,-0.5756,-0.4262,0.0,-0.1786,0.0,-0.0336,0.0,0.0,0.0,0.0,0.0,0.0,0.0,0.0,0.0,0.0,0.0,0.0,0.0,0.0,-0.2174,-0.3178,-0.4294,-0.446,-0.446,-0.4408,-0.448,0.0,0.0,0.0,0.0,0.0,0.0,0.0,0.0,0.0,0.0,0.0,0.0,0.0,0.0,0.0,0.0,0.0,0.0,0.0,0.0,0.0,0.0,0.0,0.0,0.0,0.0,0.0,0.0,0.0,0.0,0.0,0.0,-0.8405,-0.9893,-1.0985,-1.1582,-1.2638,-1.326,0.0,-1.3791,-1.4142,-1.4409,-1.5448,-1.6199,-1.6658,-1.7548,-1.7648,-1.7309,-1.797,-1.9121,-2.0382,-2.0068,-2.0156,-2.0508,-2.0547,-2.0566,-2.0644,0.0,0.0,0.0,0.0,0.0,0.0,0.0,0.0,0.0,0.0,0.0,0.0,0.0,0.0,0.0,0.0,0.0,0.0,0.0,0.0,0.0,0.0,0.0,0.0,0.0,0.0,0.0,0.0,0.0,0.0,0.0,0.0,0.0,-0.3561,0.0,-0.1786,-0.1062,-0.0336,0.0,0.0,0.0,0.0,0.0,0.0,0.0,0.0,0.0,0.0,0.0,0.0,0.0,0.0,-0.2009,-0.2452,-0.2954,-0.4125,-0.407,-0.3814,0.0,-0.4775,0.0,0.0,0.0,0.0,0.0,0.0,0.0,0.0,0.0,0.0,0.0,0.0,0.0,0.0,0.0,0.0,0.0,0.0,0.0,0.0,0.0,0.0,0.0,0.0,0.0,0.0,0.0,0.0,0.0,0.0,0.0,-0.8401,-0.9019,-0.9759,-1.0525,-1.1816,-1.2338,0.0,-1.2952,-1.3434,-1.3514,-1.444,-1.5081,-1.5522,-1.6518,-1.6926,-1.6911,-1.7578,-1.8175,-1.8874,-1.9639,-1.9971,-2.0098,-2.0439,-2.0566,-2.0644,0.0,0.0,0.0,0.0,0.0,0.0,0.0,0.0,0.0,0.0,0.0,0.0,0.0,0.0,0.0,0.0,0.0,0.0,0.0,0.0,0.0,0.0,0.0,0.0,0.0,0.0,0.0,0.0,0.0,0.0,0.0,0.0,0.0,-0.2788,0.0,-0.1285,-0.056,-0.0168,0.0,0.0,0.0,0.0,0.0,0.0,0.0,0.0,0.0,0.0,0.0,0.0,0.0,0.0,0.0,0.0,-0.2954,-0.3735,-0.3959,-0.403,0.0,0.0,0.0,0.0,0.0,0.0,0.0,0.0,0.0,0.0,0.0,0.0,0.0,0.0,0.0,0.0,0.0,0.0,0.0,0.0,0.0,0.0,0.0,0.0,0.0,0.0,0.0,0.0,0.0,0.0,0.0,-0.6556,-0.688,-0.7358,-0.815,-0.8791,-0.9326,-1.0806,-1.1654,-1.1793,-1.259,-1.3066,-1.3227,-1.3681,-1.3973,-1.4239,-1.4938,-1.5561,-1.6009,-1.6377,-1.7184,-1.8344,-1.9005,-1.9502,-1.9971,-2.041,-2.0566,-2.0537,0.0,0.0,0.0,0.0,0.0,0.0,0.0,0.0,0.0,0.0,0.0,0.0,0.0,0.0,0.0,0.0,0.0,0.0,0.0,0.0,0.0,0.0,0.0,0.0,0.0,0.0,0.0,0.0,0.0,0.0,0.0,0.0,0.0,-0.2174,0.0,0.0,0.0,0.0,0.0,0.0,0.0,0.0,0.0,0.0,0.0,0.0,0.0,0.0,0.0,0.0,0.0,0.0,0.0,0.0,-0.301,-0.3176,-0.3735,-0.4298,0.0,0.0,0.0,0.0,0.0,0.0,0.0,0.0,0.0,0.0,0.0,0.0,0.0,0.0,0.0,0.0,0.0,0.0,0.0,0.0,0.0,0.0,0.0,0.0,0.0,0.0,0.0,0.0,0.0,0.0,-0.622,-0.6332,-0.6352,-0.6264,-0.7278,-0.7892,-0.8156,-0.9772,-1.0935,-1.1591,-1.2361,-1.2806,-1.3053,-1.3053,-1.3113,-1.3227,-1.346,-1.404,-1.4954,-1.5103,-1.6114,-1.7737,-1.8184,-1.8908,-1.9703,-2.0293,-2.0498,-2.0508,0.0,0.0,0.0,0.0,0.0,0.0,0.0,0.0,0.0,0.0,0.0,0.0,0.0,0.0,0.0,0.0,0.0,0.0,0.0,0.0,0.0,0.0,0.0,0.0,0.0,0.0,0.0,0.0,0.0,0.0,0.0,0.0,0.0,-0.2174,0.0,0.0,0.0,0.0,0.0,0.0,0.0,0.0,0.0,0.0,0.0,0.0,0.0,0.0,0.0,0.0,-0.0057,0.0,0.0,0.0,-0.1507,-0.2174,-0.2899,-0.3477,0.0,0.0,0.0,0.0,0.0,0.0,0.0,0.0,0.0,0.0,0.0,0.0,0.0,0.0,0.0,0.0,0.0,0.0,0.0,0.0,0.0,0.0,0.0,0.0,0.0,0.0,0.0,0.0,0.0,0.0,-0.6054,-0.6078,-0.6142,-0.6257,-0.6605,-0.6897,-0.7092,-0.8956,-0.9939,-1.017,-1.1683,-1.2385,-1.2425,-1.2425,-1.2712,-1.3213,-1.3253,-1.3346,-1.355,-1.444,-1.4997,-1.5476,-1.7207,-1.8253,-1.8815,-1.9694,-2.0244,-2.0557,0.0,0.0,0.0,0.0,0.0,0.0,0.0,0.0,0.0,0.0,0.0,0.0,0.0,0.0,0.0,0.0,0.0,0.0,0.0,0.0,0.0,0.0,-0.4948,0.0,0.0,0.0,0.0,0.0,0.0,0.0,0.0,-0.4097,-0.289,0.0,0.0,0.0,0.0,0.0,0.0392,0.0056,0.0462,0.0352,0.0,0.0,0.0,0.0061,0.0552,0.0419,0.0058,0.0585,0.0403,-0.0056,-0.0392,0.0,0.0,0.0,-0.212,0.0,-0.3349,0.0,0.0,0.0,0.0,0.0,0.0,0.0,0.0,0.0,0.0,0.0,0.0,0.0,0.0,0.0,0.0,0.0,0.0,0.0,0.0,0.0,0.0,0.0,0.0,0.0,0.0,0.0,0.0,-0.583,-0.5898,-0.5901,-0.5932,-0.6,-0.6086,-0.6298,-0.6589,-0.7965,-0.9253,-1.0595,-1.1616,-1.2144,-1.2291,-1.2131,-1.2298,-1.2712,-1.2879,-1.2953,-1.3017,-1.3701,-1.4163,-1.4605,-1.601,-1.7062,-1.7861,-1.8796,-1.9599,-2.0166,0.0,0.0,0.0,0.0,0.0,0.0,0.0,0.0,0.0,0.0,0.0,0.0,0.0,0.0,0.0,0.0,0.0,0.0,0.0,0.0,0.0,-0.4519,-0.4519,-0.4519,-0.4519,0.0,0.0,0.0,0.0,0.0,-0.5503,-0.3465,-0.2504,0.0,-0.0775,0.0,0.0,0.0,0.0,0.0,0.1016,0.0805,0.0,0.0,0.0,0.0122,0.1239,0.1033,0.0412,0.1067,0.0874,0.0283,0.0056,-0.0392,0.0,0.0,0.0,0.0,0.0,0.0,0.0,0.0,0.0,0.0,0.0,0.0,0.0,0.0,0.0,0.0,0.0,0.0,0.0,0.0,0.0,0.0,0.0,0.0,0.0,0.0,0.0,0.0,0.0,0.0,0.0,0.0,0.0,-0.5705,-0.5745,-0.5749,-0.5766,-0.58,-0.5766,-0.598,-0.6376,-0.7433,-0.8928,-1.0836,-1.1333,-1.1728,-1.2071,-1.1857,-1.1917,-1.2211,-1.2505,-1.2632,-1.2708,-1.3085,-1.3454,-1.397,-1.4843,-1.5853,-1.6855,-1.7816,-1.8777,-1.9558,0.0,0.0,0.0,0.0,0.0,0.0,0.0,0.0,0.0,0.0,0.0,0.0,0.0,0.0,0.0,-0.4519,0.0,0.0,0.0,0.0,0.0,-0.4519,-0.4519,0.0,-0.4519,0.0,0.0,0.0,0.0,0.0,-0.5755,-0.4088,-0.3038,-0.2456,-0.0775,0.0,0.0056,0.0,0.0,0.0,0.156,0.1289,0.0177,0.0,0.0,0.0,0.0,0.0,0.1239,0.1277,0.1264,0.1107,0.0283,0.0,-0.0056,0.0,0.0,0.0,0.0,0.0,0.0,0.0,0.0,0.0,0.0,0.0,0.0,0.0,0.0,0.0,0.0,0.0,0.0,0.0,0.0,0.0,0.0,0.0,0.0,0.0,0.0,0.0,0.0,0.0,0.0,0.0,0.0,-0.5447,-0.5593,-0.5599,-0.5661,-0.5796,-0.5671,-0.5878,-0.6373,-0.7792,-0.9066,-1.0124,-1.0559,-1.0987,-1.147,-1.1456,-1.161,-1.1911,-1.2198,-1.2325,-1.2325,-1.2774,-1.2921,-1.3068,-1.3977,-1.4824,-1.5716,-1.6837,-1.7834,-1.8637,0.0,0.0,0.0,0.0,0.0,0.0,0.0,0.0,0.0,0.0,0.0,0.0,0.0,-0.4519,-0.4519,-0.4519,-0.4519,0.0,0.0,0.0,0.0,-0.4519,-0.4519,-0.4519,-0.4519,0.0,0.0,0.0,0.0,-0.4653,-0.493,-0.3362,-0.2508,-0.2256,-0.1169,-0.0175,0.075,0.1465,0.0,0.0,0.1809,0.1592,0.0686,0.0,0.0,0.0,0.0,0.0,0.0,0.1288,0.171,0.1926,0.0467,0.0405,0.0748,0.0169,0.0,0.0,0.0,0.0,0.0,0.0,0.0,0.0,0.0,0.0,0.0,0.0,0.0,0.0,0.0,0.0,0.0,0.0,0.0,0.0,0.0,0.0,0.0,0.0,0.0,0.0,0.0,0.0,0.0,0.0,0.0,0.0,-0.5155,-0.5247,-0.5318,-0.5369,-0.5416,-0.567,-0.6063,-0.7327,-0.8412,-0.9304,-1.0067,-1.0708,-1.1416,-1.1236,-1.1309,-1.159,-1.169,-1.1957,-1.2291,-1.2249,-1.2356,-1.2599,-1.3178,-1.382,-1.4429,-1.5369,-1.6552,-1.776,0.0,0.0,0.0,0.0,0.0,0.0,0.0,0.0,0.0,0.0,0.0,0.0,0.0,0.0,-0.4181,-0.446,-0.4294,-0.4125,-0.4125,-0.3846,-0.3846,-0.407,-0.4125,-0.4236,0.0,0.0,0.0,0.0,0.0,0.0,0.0,-0.2795,-0.2052,-0.1788,-0.1316,-0.0404,0.0,0.0,0.0,0.0838,0.0,0.2023,0.1197,0.0,0.0,0.0,0.0,0.0,0.0,0.0,0.0,0.0,0.0935,0.0579,0.0749,0.0169,0.0,0.0,-0.0895,0.0,0.0,0.0,0.0,0.0,0.0,0.0,0.0,0.0,0.0,0.0,0.0,0.0,0.0,0.0,0.0,0.0,0.0,0.0,0.0,0.0,0.0,0.0,0.0,0.0,0.0,0.0,0.0,0.0,-0.4918,-0.5009,-0.5081,-0.5128,-0.523,-0.5439,-0.5756,-0.6589,-0.7449,-0.8317,-0.919,-1.0085,-1.0849,-1.0863,-1.1009,-1.1276,-1.1176,-1.147,-1.1991,-1.1804,-1.1891,-1.2144,-1.2339,-1.2848,-1.352,-1.4126,-1.53,-1.6625,0.0,0.0,0.0,0.0,0.0,0.0,0.0,0.0,0.0,0.0,0.0,0.0,0.0,0.0,0.0,-0.4405,-0.379,-0.3345,-0.3287,-0.2619,-0.2508,-0.3231,0.0,0.0,0.0,0.0,0.0,0.0,0.0,0.0,0.0,0.0,-0.1786,-0.1118,-0.1062,-0.0671,0.0056,0.0,0.0671,0.0224,0.0,0.2503,0.1583,0.0,0.0,0.0,0.429,0.4354,0.0,0.3613,0.0,0.0,0.0,0.0616,0.0,0.0,0.0,0.0,0.0,0.0,0.0,0.0,0.0,0.0,0.0,0.0,0.0,0.0,0.0,0.0,0.0,0.0,0.0,0.0,0.0,0.0,0.0,0.0,0.0,0.0,0.0,0.0,0.0,0.0,0.0,0.0,0.0,-0.4904,-0.4904,-0.4911,-0.4975,-0.5121,-0.5125,-0.5196,-0.5415,-0.5745,-0.633,-0.7172,-0.8021,-0.893,-0.9773,-1.0295,-1.0715,-1.0962,-1.0681,-1.0882,-1.1403,-1.141,-1.159,-1.183,-1.155,-1.1995,-1.2903,-1.3182,-1.4112,-1.5321,0.0,0.0,0.0,0.0,0.0,0.0,0.0,0.0,0.0,0.0,0.0,0.0,0.0,0.0,0.0,-0.3735,-0.3456,-0.3065,-0.2565,-0.2286,-0.2286,-0.2508,-0.3067,0.0,0.0,0.0,0.0,0.0,0.0,0.0,0.0,0.0,0.0,0.0,-0.056,-0.0168,0.0056,0.0783,0.0,0.0,0.1507,0.1796,0.0,0.0,0.0,0.0,0.0,0.3261,0.3559,0.0,0.3451,0.4285,0.0,0.0,0.0,0.0,0.0,0.0,-0.0224,0.0,0.0,0.0,0.0,0.0,0.0,0.0,0.0,0.0,0.0,0.0,0.0,0.0,0.0,0.0,0.0,0.0,0.0,0.0,0.0,0.0,0.0,0.0,0.0,0.0,0.0,0.0,-0.4565,-0.4589,-0.4589,-0.4694,-0.4823,-0.4972,-0.4975,-0.4999,-0.504,-0.5351,-0.5903,-0.665,-0.7161,-0.8133,-0.946,-0.9594,-1.0021,-1.0739,-1.0658,-1.0648,-1.0815,-1.1022,-1.1283,-1.1563,-1.1697,-1.1787,-1.192,-1.2706,-1.3521,-1.4337,0.0,0.0,0.0,0.0,0.0,0.0,0.0,0.0,0.0,0.0,0.0,0.0,0.0,0.0,0.0,-0.34,-0.2788,-0.2174,-0.1786,-0.1452,-0.1396,-0.173,-0.2174,-0.2565,0.0,0.0,0.0,0.0,0.0,0.0,0.0,0.0,0.0,0.0,0.0,0.0,0.0,0.0,0.0,0.0,0.1284,0.0,0.0,0.2391,0.2987,0.0,0.0,0.0,0.405,0.336,0.3663,0.0,0.0,0.0,0.0,0.0,0.0,0.0,0.0,0.0,0.0,0.0,0.0,0.0,-0.2343,-0.2676,0.0,0.0,0.0,0.0,0.0,0.0,0.0,0.0,0.0,0.0,0.0,0.0,0.0,0.0,0.0,0.0,0.0,0.0,0.0,-0.4519,-0.4519,-0.4519,-0.4519,-0.4548,-0.4667,-0.4819,-0.4823,-0.4853,-0.4918,-0.516,-0.5512,-0.5972,-0.6619,-0.7413,-0.835,-0.8768,-0.9268,-0.9716,-0.9977,-1.011,-1.0308,-1.0484,-1.085,-1.1249,-1.1303,-1.1443,-1.1637,-1.2141,-1.2835,-1.3704,0.0,0.0,0.0,0.0,0.0,0.0,0.0,0.0,0.0,0.0,0.0,0.0,0.0,0.0,0.0,0.0,-0.1842,-0.1062,-0.1006,-0.0392,-0.028,-0.095,-0.1062,-0.1396,-0.2063,0.0,0.0,0.0,0.0,0.0,0.0,0.0,0.0,0.0,0.0,0.0,0.0,0.0,0.0,0.0112,0.1507,0.1819,0.0,0.0,0.4274,0.0,0.4478,0.4752,0.4826,0.4555,0.3956,0.0,0.0,0.0,0.0,0.0,0.0504,0.0,0.0,0.0,0.0,0.0,0.0,0.0,-0.1062,-0.1619,-0.212,0.0,0.0,0.0,0.0,0.0,0.0,0.0,0.0,0.0,0.0,0.0,0.0,0.0,0.0,0.0,0.0,-0.4519,-0.4519,-0.4519,-0.4519,-0.4519,-0.4519,-0.4519,-0.458,-0.466,-0.4667,-0.4731,-0.4867,-0.4992,-0.5126,-0.5317,-0.6117,-0.6642,-0.6929,-0.783,-0.8318,-0.8447,-0.8937,-0.9406,-0.9773,-0.985,-1.0328,-1.0922,-1.0759,-1.1135,-1.1703,-1.1536,-1.2122,-1.3049,0.0,0.0,0.0,0.0,0.0,0.0,0.0,0.0,0.0,0.0,0.0,0.0,0.0,0.0,0.0,0.0,0.0,-0.0838,-0.028,-0.0056,-0.0056,-0.0224,-0.0783,-0.1174,-0.1284,-0.1898,0.0,0.0,0.0,0.0,0.0,0.0,0.0,0.0,0.0,0.0,0.0,0.0,0.0,0.0056,0.095,0.0,0.214,0.3266,0.3958,0.4376,0.4518,0.458,0.4545,0.0,0.3956,0.3176,0.0,0.0,0.0,0.0,0.0,0.0,0.0,0.0,0.0,0.0,0.0,0.0,-0.095,-0.1229,-0.1507,0.0,0.0,0.0,0.0,0.0,0.0,0.0,0.0,0.0,0.0,0.0,0.0,0.0,0.0,0.0,0.0,-0.4519,-0.4519,-0.4519,-0.4519,-0.4519,-0.4519,-0.4519,-0.4532,-0.4563,-0.4563,-0.4577,-0.4551,-0.4579,-0.4697,-0.4855,-0.5097,-0.5655,-0.6345,-0.6666,-0.7191,-0.7861,-0.8122,-0.8701,-0.9366,-0.9254,-0.9788,-1.0661,-1.0835,-1.0868,-1.096,-1.1543,-1.1833,-1.2034,0.0,0.0,0.0,0.0,0.0,0.0,0.0,0.0,0.0,0.0,0.0,0.0,0.0,0.0,0.0,0.0,0.0,0.0,0.0,0.0,0.0392,0.0,-0.0336,-0.056,-0.056,-0.0895,0.0,0.0,0.0,0.0,0.0,0.0,0.0,0.0,0.0,0.0,0.0,0.0,0.0448,0.1118,0.1118,0.0,0.1229,0.2343,0.301,0.34,0.379,0.4184,0.4529,0.4551,0.407,0.0,0.0,0.2174,0.1898,0.0,0.0504,0.095,0.0,0.0,0.0,0.0,0.0,0.0,0.0,-0.056,-0.0671,0.0,0.0,0.0,0.0,0.0,0.0,0.0,0.0,0.0,0.0,0.0,0.0,0.0,0.0,0.0,0.0,-0.4419,-0.4519,-0.4519,-0.4519,-0.4519,-0.4519,-0.4519,-0.4519,-0.4519,-0.4519,-0.4519,-0.4519,-0.4594,-0.4575,-0.4579,-0.4809,-0.5115,-0.5447,-0.5746,-0.6129,-0.6546,-0.694,-0.7436,-0.7989,-0.799,-0.8468,-0.9262,-1.0173,-1.0428,-1.0373,-1.1149,-1.1472,-1.1566,0.0,0.0,0.0,0.0,0.0,0.0,0.0,0.0,0.0,0.0,0.0,0.0,0.0,0.0,0.0,0.0,0.0,0.0,0.0,0.0,0.0,0.0224,0.0056,0.0,0.0,0.0,0.0,0.0,0.0,0.0,0.0,0.0,0.0,0.0,0.0,0.0,0.0,0.0,0.0,0.212,0.0,0.0955,0.0847,0.2198,0.2701,0.2755,0.3408,0.4015,0.4536,0.4606,0.0,0.3456,0.2676,0.2508,0.0,0.0,0.0,0.0,0.0,0.0,0.0,0.0,0.0,0.0392,0.0,0.0,0.0,0.0,0.0,0.0,0.0,0.0,0.0,0.0,0.0,0.0,0.0,0.0,0.0,0.0,0.0,0.0,0.0,-0.4136,-0.4255,-0.4255,-0.4278,-0.4294,-0.4294,-0.4405,-0.4519,-0.4519,-0.4519,-0.4519,-0.4519,-0.4585,-0.4585,-0.4522,-0.4745,-0.4796,-0.4653,-0.5103,-0.5235,-0.5292,-0.5731,-0.6223,-0.6639,-0.6776,-0.712,-0.7624,-0.9095,-0.9594,-0.9682,-1.0483,-1.0902,-1.1106,-0.0952,-0.1155,0.0,0.0,0.0,0.0,0.0,0.0,0.0,0.0,0.0,0.0,0.0,0.0,0.0,0.0,0.0,0.0,0.0971,0.0,0.0,0.0,0.0336,0.0,0.0,0.0,0.0,0.0,0.0,0.0,0.0,0.0,0.0,0.0,0.0,0.0,0.0,0.0,0.0838,0.0,0.1396,0.1932,0.0,0.4079,0.4429,0.4413,0.4396,0.4408,0.4522,0.0,0.4477,0.4236,0.0,0.3735,0.0,0.0,0.0,0.0,0.0,0.0,0.0,0.0,0.1452,0.0,0.0,0.0,0.0,0.0,0.0,0.0,0.0,0.0,0.0,0.0,0.0,0.0,0.0,0.0,0.0,0.0,0.0,0.0,0.0,0.0,-0.3255,-0.3255,-0.34,-0.3511,-0.3456,-0.4125,-0.4519,-0.4519,-0.4519,-0.4519,-0.4519,-0.4536,-0.4536,-0.4519,-0.4633,-0.4636,-0.4549,-0.4704,-0.4776,-0.4766,-0.4964,-0.5518,-0.6271,-0.6276,-0.6492,-0.6875,-0.7665,-0.8133,-0.8501,-0.9484,-0.979,-0.9913,-0.0383,-0.0464,0.0,0.0,0.0,0.0,0.0,0.0,0.0,0.0,0.0,0.0,0.0,0.0,0.0,0.0,0.0,0.1097,0.0,0.0,0.0,0.0,0.0,0.0,0.0615,0.0224,0.0,0.0,0.0,0.0,0.0,0.0,0.0,0.0,0.0,0.0,0.1682,0.0,0.0,0.0,0.0,0.0,0.0,0.3499,0.3529,0.3922,0.4373,0.4519,0.4519,0.0,0.4184,0.0,0.0,0.0,0.0,0.0,0.0,0.0,0.0,0.0,0.0,0.0,0.0,0.0,0.1786,0.0,0.1507,0.0,0.0,0.0,0.0,0.0,0.0,0.0,0.0,0.0,0.0,0.0,0.0,0.0,0.0,0.0,0.0,0.0,0.0,0.0,-0.3239,-0.3466,-0.3794,-0.4249,-0.4519,-0.4519,-0.4519,-0.4519,-0.4519,-0.4519,-0.4519,-0.4519,-0.4584,-0.458,-0.4519,-0.4584,-0.4558,-0.4611,-0.4657,-0.4867,-0.5216,-0.5304,-0.5479,-0.5711,-0.6059,-0.6678,-0.7541,-0.8614,-0.9162,-0.9532,0.0,0.0,0.0,0.0,0.0,0.0,0.0,0.0,0.0,0.0,0.0,0.0,0.0,0.0,0.0,0.0,0.0,0.1182,0.0,0.0,0.1507,0.0,0.0,0.0,0.0,0.0,0.028,0.028,0.0,0.0,0.0,0.0,0.0,0.0,0.0,0.0828,0.2152,0.0,0.0,0.4415,0.3778,0.3989,0.4505,0.3354,0.3203,0.368,0.4294,0.4519,0.4519,0.4519,0.4125,0.0,0.368,0.0,0.0,0.0,0.0,0.0,0.2287,0.0,0.0,0.0,0.0,0.0,0.0,0.0,0.0,0.0,0.0,0.0,0.0,0.0,0.0,0.0,0.0,0.0,0.0,0.0,0.0,0.0,0.0,0.0,0.0,0.0,0.0,-0.2721,-0.289,-0.3284,-0.3875,-0.4273,-0.4519,-0.4519,-0.4519,-0.4519,-0.4519,-0.4519,-0.4519,-0.4519,-0.4519,-0.4519,-0.4519,-0.4519,-0.4519,-0.4519,-0.4519,-0.4543,-0.4591,-0.4691,-0.4843,-0.4992,-0.5135,-0.5702,-0.6608,-0.7648,-0.8361,-0.8916,0.0,0.0,0.0,0.0,0.0,0.0,0.0,0.0,0.0,0.0,0.0,0.0,0.0,0.0,0.0,0.0,0.0,0.143,0.2107,0.0,0.1786,0.0,0.0,0.1396,0.0,0.0,0.0,0.0,0.0,0.0,0.0,0.0,0.0,0.0,0.0,0.0838,0.2171,0.1396,0.2397,0.4408,0.3627,0.3796,0.4539,0.0,0.4532,0.446,0.4519,0.0,0.0,0.4519,0.4463,0.0,0.0,0.0,0.0,0.0,0.0,0.0,0.0,0.0,0.0,0.3287,0.0,0.0,0.0,0.0,0.3121,0.0,0.0,0.0,0.0,0.0,0.0,0.0,0.0,0.0,0.0,0.0,0.0,0.0,0.0,0.0,0.0,0.0,0.0,-0.1807,-0.2087,-0.2491,-0.3079,-0.3999,-0.4519,-0.4519,-0.4519,-0.4519,-0.4519,-0.4519,-0.4519,-0.4519,-0.4519,-0.4519,-0.4519,-0.4519,-0.4519,-0.4519,-0.4519,-0.4548,-0.4697,-0.485,-0.4996,-0.5138,-0.5294,-0.5418,-0.555,-0.6461,-0.7116,-0.7746,0.0,0.0,0.0,0.0,0.0,0.0,0.0,0.0399,0.0,0.0,0.0,0.0,0.0,0.0,0.0864,0.0,0.0,0.1515,0.2184,0.1577,0.0,0.0,0.0,0.234,0.0,0.0,0.0,0.0,0.0,0.0,0.0,0.0,0.0,0.0,0.0,0.0839,0.0,0.0,0.0,0.0,0.0,0.4297,0.4609,0.0,0.0,0.4519,0.4519,0.4787,0.0,0.4625,0.4787,0.5109,0.4625,0.4787,0.5109,0.4886,0.4772,0.0,0.0,0.0,0.4666,0.4177,0.0,0.0,0.0,0.0,0.0,0.0,0.0,0.0,0.0,0.0,0.0,0.0,0.0,0.0,0.0,0.0,0.0,0.0,0.0,0.0,0.0,0.0,0.0,-0.1233,-0.2207,-0.2866,-0.3072,-0.4003,-0.4519,-0.4519,-0.4519,-0.4519,-0.4519,-0.4519,-0.4294,-0.3904,-0.3904,-0.3904,-0.3904,-0.3904,-0.4125,-0.4522,-0.4568,-0.4643,-0.4711,-0.4958,-0.5087,-0.5145,-0.5301,-0.5428,-0.5491,-0.5951,-0.6535,-0.7209,0.1079,0.0,0.0,0.0,0.0,0.0,0.0,0.0,0.0,0.0,0.0324,0.0,0.1272,0.0,0.1848,0.0,0.178,0.2063,0.2748,0.1837,0.0,0.4495,0.3152,0.0,0.0,0.0,0.0,0.0,0.0,0.1507,0.0,0.0,0.0,0.0,0.0,0.0,0.0,0.0,0.3345,0.0,0.0,0.4685,0.0,0.0,0.4712,0.4594,0.0,0.5062,0.5382,0.5171,0.5386,0.5655,0.5007,0.5058,0.5433,0.5487,0.5487,0.5542,0.5814,0.5873,0.0,0.5336,0.5546,0.0,0.5332,0.0,0.0,0.0,0.0,0.0,0.0,0.0,0.0,0.0,0.0,0.0,0.0,0.0,0.0,0.0,0.0,0.0,0.0,0.0,-0.1271,-0.152,-0.2311,-0.2966,0.0,0.0,-0.4519,-0.4519,-0.4519,-0.4519,-0.4519,-0.4236,-0.3904,-0.3569,-0.3347,-0.3236,-0.3292,-0.335,-0.3627,-0.4187,-0.4226,-0.4439,-0.4785,-0.4852,-0.4988,-0.5223,-0.5321,-0.5428,-0.5428,-0.5627,-0.6141,-0.6951,0.0,0.0,0.0,0.0,0.0615,0.0,0.0,0.0,0.0872,0.0,0.0949,0.1525,0.1417,0.2325,0.2844,0.2764,0.2746,0.0,0.3658,0.2191,0.0,0.0,0.3124,0.2959,0.446,0.0,0.0,0.0,0.0,0.0,0.0,0.0,0.0,0.0,0.2174,0.0,0.3287,0.3287,0.379,0.457,0.457,0.5007,0.5555,0.5546,0.5218,0.484,0.5234,0.5386,0.5496,0.6041,0.6263,0.615,0.555,0.5336,0.5386,0.5542,0.5592,0.5706,0.6421,0.6642,0.6642,0.6588,0.0,0.0,0.0,0.0,0.6642,0.0,0.0,0.0,0.0,0.0,0.0,0.0,0.0,0.0,0.0,0.0,0.0,0.0,0.0,0.0,0.0,-0.0392,-0.0799,-0.2467,-0.2365,-0.272,0.0,0.0,-0.446,-0.4519,-0.446,-0.446,-0.446,-0.3622,-0.3345,-0.3458,-0.279,-0.2512,-0.2681,-0.2792,-0.3128,-0.3572,-0.3479,-0.3955,-0.4847,-0.462,-0.4842,-0.5352,-0.5425,-0.5428,-0.5428,-0.5428,-0.5947,-0.6771,0.1782,0.0895,0.0,0.0,0.0615,0.0842,0.0,0.0,0.0,0.0,0.0767,0.1221,0.3203,0.3024,0.3008,0.3599,0.3048,0.0,0.0,0.0,0.0,0.357,0.3385,0.3661,0.4467,0.4294,0.0,0.4184,0.0,0.0,0.301,0.0,0.0,0.0,0.0,0.0,0.34,0.34,0.4116,0.5273,0.5823,0.6239,0.0,0.0,0.6332,0.6312,0.628,0.6637,0.7015,0.6642,0.6799,0.7063,0.6362,0.6145,0.6195,0.6686,0.6519,0.6357,0.7063,0.7278,0.7171,0.6691,0.702,0.7289,0.0,0.0,0.0,0.0,0.0,0.0,0.0,0.0,0.0,0.0,0.0,0.0,0.0,0.0,0.0,0.0,0.0,0.0,-0.0211,-0.1015,-0.1465,-0.1361,-0.2311,-0.3002,0.0,0.0,0.0,-0.4463,-0.3959,-0.3677,-0.3622,-0.2843,-0.2287,-0.1899,-0.1676,-0.1732,-0.2012,-0.2068,-0.2516,-0.3249,-0.335,-0.3584,-0.3997,-0.4405,-0.4705,-0.4884,-0.5252,-0.5428,-0.5428,-0.5428,-0.569,-0.6156,0.1675,0.0,0.0,0.0,0.0,0.0,0.0773,0.0,0.0,0.2138,0.1641,0.0,0.393,0.3996,0.3954,0.3983,0.3872,0.0,0.0,0.0,0.0,0.3883,0.3661,0.3809,0.4463,0.4519,0.0,0.4519,0.0,0.0,0.379,0.0,0.0,0.0,0.0,0.3456,0.0,0.4171,0.4772,0.5542,0.6312,0.0,0.0,0.7122,0.7372,0.7692,0.7609,0.7557,0.761,0.745,0.761,0.7765,0.7009,0.6794,0.6853,0.7176,0.7069,0.6956,0.7711,0.7877,0.7818,0.7557,0.7771,0.799,0.767,0.7883,0.8049,0.0,0.0,0.0,0.0,0.0,0.0,0.0,0.0,0.0,0.0,0.0,0.0,0.0,0.0,0.0,0.0,-0.0685,-0.1168,-0.1271,-0.1851,0.0,0.0,0.0,0.0,-0.3456,-0.3097,-0.2871,-0.2843,-0.2067,-0.1552,-0.1285,-0.0951,-0.0959,-0.1201,-0.1297,-0.1693,-0.229,-0.2375,-0.2645,-0.3124,-0.3544,-0.3831,-0.4129,-0.4797,-0.5027,-0.5093,-0.5296,-0.5495,-0.5701,0.0,0.0,0.0,0.0,0.0,0.0,0.0,0.2185,0.0,0.3088,0.0,0.3247,0.4129,0.4885,0.5033,0.4204,0.0,0.4598,0.3804,0.3563,0.3743,0.4487,0.3795,0.3735,0.4463,0.457,0.0,0.0,0.0,0.0,0.0,0.0,0.0,0.0,0.0,0.0,0.0,0.5382,0.5706,0.0,0.6583,0.7289,0.783,0.783,0.8262,0.8804,0.8804,0.8309,0.7765,0.8262,0.8427,0.8315,0.7664,0.7396,0.7343,0.7396,0.7343,0.745,0.8156,0.8368,0.8421,0.8521,0.8573,0.8626,0.8745,0.8804,0.8804,0.8804,0.8804,0.8804,0.0,0.0,0.0,0.0,0.0,0.0,0.0,0.0,0.0,0.0,0.0,0.0,0.0,-0.0055,-0.058,-0.1625,0.0,0.0,0.0,0.0,0.0,-0.2174,-0.2124,-0.2077,-0.2037,0.0,-0.101,-0.1133,-0.0452,-0.0229,-0.041,-0.0573,-0.0861,-0.1227,-0.1122,-0.1556,-0.2311,-0.24,-0.2746,-0.3282,-0.4156,-0.4492,-0.4558,-0.5093,-0.5296,-0.5312,0.0,0.0,0.0,0.0,0.0,0.3341,0.2779,0.2792,0.313,0.4072,0.3433,0.3534,0.5123,0.4677,0.4444,0.4868,0.4371,0.0,0.0,0.0,0.0,0.3604,0.3469,0.3735,0.4463,0.5058,0.5324,0.0,0.0,0.0,0.0,0.0,0.0,0.0,0.0,0.0,0.5378,0.6095,0.0,0.7391,0.8103,0.848,0.8586,0.8586,0.8699,0.8804,0.8804,0.8699,0.8586,0.8699,0.8639,0.8521,0.8415,0.7978,0.7551,0.7943,0.767,0.745,0.8055,0.8221,0.8275,0.8421,0.8521,0.8626,0.8626,0.8745,0.8804,0.8804,0.8804,0.8804,0.8804,0.0,0.0,0.0,0.0,0.0,0.0,0.0,0.0,0.0,0.0,0.0,0.0,0.0,0.0,0.0,0.0,0.0,0.0,0.0,0.0,0.0,-0.1637,0.0,0.0,0.0,-0.0233,-0.0243,-0.0118,-0.0173,-0.0397,-0.0416,-0.0651,-0.0965,-0.1018,-0.1134,-0.1377,-0.1794,-0.2471,-0.3218,-0.3756,-0.4025,-0.4161,-0.4561,-0.4827,-0.4967,0.0,0.0,0.0,0.0,0.0,0.0,0.0,0.4013,0.0,0.5029,0.4159,0.4009,0.5348,0.4925,0.4558,0.4432,0.43,0.4051,0.3521,0.3457,0.3572,0.3962,0.3959,0.0,0.5003,0.5324,0.5706,0.6091,0.0,0.0,0.0,0.0,0.0,0.0,0.0,0.5382,0.0,0.0,0.0,0.7777,0.848,0.8804,0.8804,0.8804,0.8804,0.8804,0.8804,0.8804,0.8804,0.8804,0.8752,0.8692,0.8626,0.8355,0.8084,0.8262,0.8049,0.7836,0.8115,0.8115,0.8115,0.8321,0.8421,0.8527,0.8692,0.8752,0.8804,0.8804,0.8804,0.8804,0.8804,0.8209,0.0,0.0,0.0,0.0,0.0,0.0,0.0,0.0,0.0,0.0,0.0,0.0,0.0,0.0,0.0,0.0,0.0,0.0,0.0,0.0,0.0,0.0,0.0,0.0,0.0,0.0,0.0,-0.0059,-0.0177,-0.018,-0.0299,-0.0414,-0.0488,-0.0486,-0.0534,-0.1022,-0.1512,-0.2102,-0.2601,-0.3086,-0.3558,-0.4025,-0.4428,-0.4831,0.0,0.121,0.0,0.0,0.2499,0.0,0.4066,0.4983,0.5552,0.5586,0.4839,0.4553,0.5296,0.5196,0.4766,0.4064,0.4417,0.4381,0.3653,0.4188,0.4519,0.4519,0.4625,0.4952,0.5483,0.5756,0.6249,0.0,0.0,0.0,0.0,0.0,0.0,0.0,0.0,0.0,0.0,0.0,0.7777,0.799,0.8586,0.8804,0.8804,0.8804,0.8804,0.8804,0.8804,0.8804,0.8804,0.8804,0.8804,0.8804,0.8685,0.8633,0.8633,0.8474,0.8374,0.8268,0.8268,0.8115,0.8055,0.8321,0.8421,0.8474,0.8692,0.8804,0.8804,0.8804,0.8804,0.8804,0.8804,0.8321,0.0,0.0,0.0,0.0,0.0,0.0,0.0,0.0,0.0,0.0,0.0,0.0,0.0,0.0,0.0,0.0,0.0,0.0,0.0,0.0,0.0,0.006,0.03,0.0,0.0,0.0,0.0,0.0,0.0,0.0,0.0,0.0,0.0,0.0,0.0,-0.0393,-0.066,-0.0977,-0.153,-0.2082,-0.2686,-0.3222,-0.3823,-0.4495,0.0,0.0,0.0,0.0,0.0,0.0,0.0,0.484,0.5433,0.5572,0.5389,0.5292,0.5362,0.5108,0.4877,0.4816,0.4726,0.4633,0.4435,0.447,0.4519,0.4519,0.4952,0.5332,0.5487,0.6676,0.7385,0.0,0.0,0.0,0.0,0.0,0.0,0.0,0.0,0.0,0.0,0.767,0.8103,0.8699,0.8752,0.8804,0.8804,0.8804,0.8804,0.8804,0.8804,0.8804,0.8804,0.8804,0.8804,0.8804,0.8804,0.8804,0.8752,0.8633,0.8573,0.8521,0.8421,0.8368,0.8374,0.8368,0.8474,0.8573,0.8626,0.8692,0.8804,0.8804,0.8804,0.8804,0.8804,0.8752,0.848,0.0,0.0,0.0,0.0,0.0,0.0,0.0,0.0,0.0,0.0,0.0,0.0,0.0,0.0,0.0,0.0,0.0,0.0,0.1168,0.0,0.0354,0.1149,0.0365,0.0,0.0,0.0,0.0,0.0,0.0,0.0,0.0,0.0,0.0,0.0,-0.0388,-0.0525,-0.0603,-0.1007,-0.1277,-0.1479,-0.1946,-0.2551,-0.3224,0.0,0.0,0.0,0.0,0.0,0.0,0.0,0.516,0.5452,0.5443,0.5399,0.5325,0.5233,0.504,0.488,0.4792,0.4643,0.4584,0.4522,0.4519,0.4625,0.4952,0.5171,0.5764,0.6681,0.7219,0.7765,0.0,0.0,0.0,0.0,0.0,0.0,0.0,0.0,0.7817,0.8374,0.8374,0.8533,0.8804,0.8804,0.8804,0.8804,0.8804,0.8804,0.8804,0.8804,0.8804,0.8804,0.8804,0.8804,0.8804,0.8804,0.8804,0.8804,0.8745,0.8685,0.8573,0.8521,0.8474,0.8421,0.8527,0.8573,0.8626,0.8692,0.8752,0.8804,0.8804,0.8804,0.8804,0.8804,0.9113,0.904,0.0,0.0,0.0,0.0,0.0,0.0,0.0,0.0,0.0,0.0,0.0,0.0,0.0,0.0,0.0,0.0,0.0,0.0,0.129,0.0,0.1104,0.2003,0.156,0.107,0.0672,0.0634,0.0444,0.0,0.0,0.0,0.0,0.0,0.0,0.0,-0.0133,-0.02,-0.0202,-0.0404,-0.074,-0.121,-0.1344,-0.1879,-0.2484,0.409,0.0,0.368,0.0,0.4417,0.4619,0.5292,0.5428,0.5428,0.5428,0.5557,0.556,0.5148,0.4962,0.4809,0.4701,0.4551,0.457,0.4736,0.4736,0.5007,0.5555,0.5714,0.0,0.7165,0.7545,0.7984,0.848,0.8903,0.0,0.0,0.0,0.0,0.0,0.8021,0.8391,0.8804,0.8804,0.8804,0.8804,0.8804,0.8804,0.8804,0.8804,0.8804,0.8804,0.8804,0.8804,0.8804,0.8804,0.8804,0.8804,0.8804,0.8804,0.8804,0.8804,0.8745,0.8685,0.8685,0.858,0.8533,0.8633,0.8685,0.8685,0.8752,0.8804,0.8857,0.9008,0.9061,0.9106,0.9309,0.9666,0.9703,0.8758,0.0,0.0,0.0,0.0,0.0,0.0,0.0,0.6387,0.7083,0.0,0.0,0.0,0.0,0.0,0.0,0.0,0.0,0.0,0.0,0.0,0.0,0.2534,0.2039,0.1488,0.1583,0.129,0.0697,0.0453,0.0261,0.0196,0.0065,0.0,0.0,0.0,0.0,0.0,0.0,-0.0337,-0.0807,-0.0807,-0.1143,-0.1745,0.4241,0.4755,0.5362,0.5362,0.5362,0.5362,0.5428,0.5428,0.5428,0.5428,0.5947,0.6071,0.5209,0.4867,0.4694,0.4691,0.4551,0.4736,0.5277,0.5277,0.555,0.0,0.0,0.6858,0.6416,0.7717,0.8156,0.7723,0.0,0.0,0.8818,0.0,0.8635,0.7735,0.8715,0.9024,0.8804,0.8804,0.8804,0.8804,0.8804,0.8804,0.8804,0.8804,0.8804,0.8804,0.8804,0.8804,0.8804,0.8804,0.8804,0.8804,0.8804,0.8804,0.8804,0.8804,0.8804,0.8804,0.8804,0.8804,0.8804,0.8804,0.8804,0.8804,0.8804,0.8804,0.8956,0.9465,0.9614,0.9814,1.0466,1.0466,1.0466,1.0712,0.0,0.0,0.0,0.0,0.0,0.0,0.7912,0.784,0.8353,0.0,0.0,0.0,0.0,0.0,0.0,0.0,0.0,0.2459,0.2463,0.0,0.3576,0.2987,0.2652,0.246,0.2606,0.2544,0.2347,0.1477,0.1008,0.0739,0.0202,0.0,0.0,0.0,0.0,0.0,0.0,0.0,0.0,0.0,-0.0337,-0.0874,0.5033,0.5226,0.5428,0.5428,0.5428,0.5428,0.5428,0.5815,0.6141,0.6268,0.6621,0.6786,0.652,0.6271,0.6039,0.0,0.5698,0.5719,0.0,0.5932,0.6204,0.6907,0.7128,0.745,0.7865,0.8309,0.8527,0.8427,0.0,0.0,0.0,0.9143,0.8915,0.848,0.8798,0.8891,0.8804,0.8804,0.8804,0.8804,0.8804,0.8804,0.8804,0.8804,0.8804,0.8804,0.8804,0.9061,0.9316,0.891,0.9211,0.971,0.9309,0.9008,0.8804,0.8804,0.8804,0.8804,0.8804,0.8804,0.8804,0.8804,0.8804,0.8804,0.8804,0.9061,0.9413,0.9562,0.9917,1.021,1.0415,1.088,1.1091,1.072,1.1065,0.0,0.0,0.0,0.0,0.0,0.0,0.796,0.0,0.8495,0.0,0.0,0.0,0.0,0.0,0.0,0.0,0.0,0.3224,0.0,0.448,0.4133,0.3781,0.3383,0.3259,0.3025,0.2613,0.1945,0.1476,0.1141,0.0605,0.0202,0.0,0.0,0.0,0.0,0.0,0.0,0.0,0.0,-0.0135,-0.0269,0.5428,0.5428,0.5428,0.5428,0.5428,0.5491,0.5752,0.6141,0.6506,0.6823,0.7283,0.7466,0.7272,0.7412,0.0,0.6292,0.6258,0.6367,0.6583,0.6637,0.7015,0.767,0.7723,0.7877,0.8196,0.0,0.0,0.8374,0.8823,0.9024,0.9024,0.9024,0.8978,0.8804,0.8804,0.8871,0.8965,0.8851,0.8977,0.9272,0.9155,0.9211,0.9413,0.9413,0.9413,0.9413,0.9413,0.9562,0.9762,0.9465,0.9666,1.0064,0.971,0.9458,0.9256,0.9256,0.9159,0.9008,0.9008,0.891,0.8804,0.8804,0.8804,0.8804,0.8804,0.9211,0.9666,0.9865,1.0328,1.0787,1.1082,1.1501,1.176,1.1434,1.1783,1.199,1.1642,0.0,0.0,0.0,0.0,0.0,0.0,0.9732,0.0,0.0,0.0,0.0,0.0,0.0,0.0,0.39,0.4004,0.0,0.4833,0.4872,0.4675,0.4312,0.4182,0.3863,0.3361,0.2867,0.2333,0.1783,0.1269,0.0807,0.0471,0.0269,0.0202,0.0202,0.0067,0.0,0.0,0.0067,0.0067,0.0,0.5428,0.5428,0.0,0.0,0.5428,0.0,0.6268,0.6465,0.6668,0.7196,0.7881,0.8182,0.7676,0.8329,0.8092,0.6495,0.0,0.0,0.0,0.7498,0.7818,0.8368,0.8421,0.815,0.7599,0.8249,0.8362,0.7777,0.85,0.8838,0.8838,0.8858,0.8858,0.8838,0.8858,0.8991,0.9192,0.8998,0.9347,1.0092,0.9783,0.9961,1.0415,1.0415,1.0415,1.0415,1.0364,1.032,1.0269,1.0218,1.0167,1.0115,1.0072,1.0072,1.0072,1.0012,0.971,0.9413,0.9413,0.9159,0.8857,0.8857,0.8857,0.8857,0.8857,0.9256,0.9814,1.0364,1.0947,1.1528,1.2175,1.2332,1.2382,1.2676,1.2735,1.2735,1.2832,0.0,0.0,0.0,0.0,0.0,0.0,1.1416,1.1275,0.0,0.0,0.0,0.0,0.0,0.5697,0.4611,0.4821,0.4924,0.4783,0.5198,0.5274,0.5068,0.5085,0.4954,0.4641,0.4109,0.3438,0.2777,0.2255,0.1745,0.1277,0.0806,0.0538,0.0471,0.0135,0.0,0.0067,0.0202,0.0202,0.0067,0.0,0.0,0.5428,0.5428,0.5428,0.562,0.6268,0.6985,0.7687,0.8468,0.8821,0.9011,0.9015,0.8731,0.8331,0.7943,0.7883,0.799,0.815,0.815,0.8309,0.8521,0.8573,0.8527,0.848,0.8639,0.8692,0.8533,0.8916,0.9084,0.909,0.9365,0.9352,0.909,0.9379,0.9473,0.9535,0.9707,0.9991,1.0327,1.0249,1.0269,1.0415,1.0415,1.0415,1.0364,1.0261,1.0533,1.0804,1.0226,1.0533,1.1057,1.0659,1.0761,1.0854,1.0226,0.9909,0.9814,0.9465,0.9562,0.9666,0.9465,0.9413,0.9413,0.9413,0.9814,1.0372,1.0956,1.1519,1.1977,1.2274,1.2382,1.2529,1.2676,1.2783,1.2676,1.2166,1.1783,0.0,0.0,1.0762,1.0618,1.0762,1.1416,1.1589,0.0,0.0,0.0,0.0,0.8946,0.764,0.6262,0.6005,0.5876,0.5837,0.5385,0.5165,0.5131,0.5284,0.5276,0.5176,0.468,0.414,0.3647,0.3139,0.2345,0.1543,0.1408,0.1008,0.0472,0.027,0.027,0.0404,0.0337,0.0333,0.0392,0.5491,0.5425,0.5491,0.5818,0.5881,0.6207,0.7181,0.7832,0.8377,0.9092,0.9394,0.9479,0.9291,0.8971,0.873,0.8599,0.8527,0.8474,0.8474,0.8527,0.8639,0.8685,0.8692,0.8745,0.8804,0.8938,0.9072,0.9212,0.9365,0.9446,0.9446,0.9613,0.9599,0.9446,0.9742,0.9925,1.0046,1.0188,1.0535,1.0965,1.0853,1.0939,1.1191,1.1191,1.1141,1.1091,1.099,1.1108,1.1217,1.0947,1.1209,1.1578,1.1368,1.1427,1.1368,1.0897,1.0541,1.0285,1.0035,0.9976,0.9961,0.9917,0.9814,0.9814,0.9909,1.0379,1.0846,1.1217,1.1728,1.2126,1.2274,1.2431,1.2529,1.2676,1.251,1.2246,1.1841,1.1525,0.0,1.1575,1.1593,1.1695,1.1899,1.2419,1.2495,1.1798,1.2138,0.0,1.0872,1.0301,0.9235,0.7538,0.703,0.6764,0.6639,0.6025,0.5553,0.5237,0.5321,0.5325,0.5257,0.5064,0.4722,0.4273,0.3997,0.3418,0.2681,0.2412,0.1879,0.1144,0.0874,0.0606,0.0404,0.0399,0.0458,0.0516,0.5943,0.5881,0.5951,0.6465,0.6593,0.7051,0.8296,0.8678,0.8989,0.9463,0.9743,0.9709,0.9199,0.9147,0.9037,0.8891,0.8712,0.8626,0.8626,0.8745,0.8824,0.8871,0.8871,0.8891,0.8938,0.9178,0.9432,0.9686,0.9726,0.9746,0.9746,0.9863,0.9863,0.9908,1.0207,1.045,1.0688,1.0645,1.1058,1.1765,1.1498,1.1669,1.2076,1.2076,1.1977,1.1877,1.1877,1.1769,1.1628,1.1828,1.1877,1.1778,1.2026,1.1927,1.1778,1.1778,1.1377,1.0871,1.0718,1.0395,1.0174,1.0277,1.0226,1.0226,1.0474,1.0887,1.1234,1.1385,1.1822,1.2199,1.2292,1.2431,1.2548,1.2763,1.2332,1.194,1.1904,0.0,1.1541,1.2409,1.2613,1.2911,1.3336,1.3662,1.3471,1.2494,1.2849,1.2521,1.1211,1.126,1.0561,0.8801,0.8075,0.7554,0.7245,0.6711,0.6141,0.5557,0.5428,0.5291,0.5169,0.5301,0.516,0.4727,0.471,0.4492,0.4025,0.3551,0.2874,0.1999,0.1665,0.1201,0.0734,0.0648,0.0705,0.0766,0.7637,0.7637,0.7507,0.7256,0.7512,0.7897,0.8425,0.8882,0.9448,1.0046,0.9939,0.9754,0.9907,0.9319,0.8958,0.9103,0.8891,0.8752,0.8752,0.8804,0.8918,0.9103,0.9117,0.9292,0.9539,0.9593,0.9633,0.9686,0.9927,1.0047,1.0047,1.0506,1.0692,1.0766,1.1233,1.1422,1.1473,1.1726,1.192,1.2009,1.1995,1.2026,1.2076,1.1977,1.1927,1.1877,1.1877,1.1877,1.1877,1.2026,1.2076,1.2026,1.2076,1.2076,1.2026,1.2026,1.1977,1.1728,1.0922,1.0718,1.0761,1.0659,1.0761,1.0964,1.0964,1.1404,1.18,1.1941,1.2291,1.2573,1.2487,1.248,1.2693,1.3299,1.3006,1.2643,1.2413,0.0,1.2959,1.255,1.3178,1.3714,1.3821,1.3736,1.3789,1.3961,1.3441,1.3156,1.3263,1.2104,1.1253,1.0843,0.9295,0.8168,0.7404,0.6715,0.6334,0.6268,0.5686,0.5415,0.5325,0.5418,0.5348,0.5262,0.5286,0.4891,0.4223,0.4154,0.3636,0.2785,0.2589,0.2526,0.2518,0.1694,0.1613,0.1731,0.8086,0.7762,0.7697,0.8156,0.8156,0.8355,0.9204,0.9594,0.9919,1.0238,1.0203,1.0147,1.012,0.9753,0.9439,0.9196,0.9265,0.9212,0.9051,0.9038,0.9044,0.9176,0.9392,0.9613,0.9913,0.992,0.9993,1.0154,1.0287,1.039,1.0409,1.0696,1.0849,1.0938,1.1561,1.1769,1.1789,1.2035,1.2263,1.2328,1.2009,1.1977,1.2076,1.1877,1.1728,1.1728,1.1828,1.1877,1.1828,1.2175,1.2323,1.2323,1.248,1.2421,1.2323,1.2323,1.2224,1.1977,1.1427,1.1276,1.1318,1.1326,1.1377,1.153,1.1986,1.2225,1.2411,1.2675,1.2874,1.3053,1.3119,1.2953,1.3046,1.3717,1.2969,0.0,0.0,1.2905,1.3038,1.3204,1.3919,1.4373,1.4263,1.4372,1.4327,1.4176,1.3959,1.3806,1.3623,1.2765,1.2037,1.1428,1.0091,0.9064,0.8285,0.7957,0.7567,0.7116,0.64,0.6075,0.5947,0.5557,0.5428,0.5428,0.5428,0.5114,0.4717,0.486,0.4246,0.3333,0.3316,0.3054,0.2691,0.2246,0.2041,0.1854,0.8803,0.8376,0.8231,0.9203,0.8975,0.9022,0.9937,1.0283,1.0391,1.0456,1.0478,1.0401,1.0241,1.01,0.986,0.9422,0.9593,0.9643,0.9464,0.9574,0.9559,0.9389,0.9726,0.9993,1.0214,1.0221,1.0327,1.0624,1.0681,1.0809,1.0863,1.0952,1.1129,1.1503,1.1962,1.2159,1.2206,1.251,1.259,1.2474,1.2144,1.2109,1.2175,1.1927,1.1778,1.1728,1.1977,1.1977,1.1986,1.2535,1.2664,1.2646,1.2949,1.2812,1.2578,1.2578,1.2497,1.2345,1.1904,1.1769,1.1846,1.2036,1.2013,1.2163,1.2926,1.3041,1.3065,1.325,1.3369,1.3451,1.3612,1.3446,1.3466,1.4165,0.0,0.0,0.0,1.3238,1.3284,1.396,1.4535,1.4819,1.4762,1.483,1.4779,1.4335,1.4449,1.4258,1.3812,1.3335,1.2609,1.1553,1.0548,0.9779,0.925,0.9052,0.8667,0.7962,0.7307,0.685,0.6597,0.6079,0.58,0.5701,0.5738,0.5596,0.5396,0.556,0.4987,0.4,0.4088,0.3678,0.2968,0.2815,0.2565,0.2221,1.0771,1.0542,1.0315,1.039,1.0413,1.0456,1.0462,1.0542,1.0655,1.0929,1.0488,1.0247,1.0501,1.004,0.9806,1.0033,0.9826,0.9846,1.0272,1.0608,1.0534,1.0053,1.0334,1.0571,1.0591,1.0591,1.0604,1.0624,1.1059,1.1226,1.1253,1.1647,1.2258,1.3099,1.3055,1.3013,1.304,1.3709,1.3257,1.2199,1.2744,1.2811,1.2421,1.2323,1.2234,1.2274,1.2382,1.2431,1.2537,1.3219,1.3203,1.2949,1.334,1.3193,1.2881,1.2881,1.3105,1.3217,1.2327,1.2076,1.2168,1.2534,1.273,1.2935,1.3462,1.3691,1.3699,1.336,1.3459,1.3539,1.3524,1.3575,1.3895,1.4612,0.0,0.0,1.4612,1.4651,1.4661,1.4719,1.4974,1.5167,1.5167,1.4883,1.4765,1.4923,1.4666,1.4556,1.4597,1.389,1.2858,1.1545,1.0737,1.0174,0.9919,0.932,0.8988,0.8924,0.8215,0.7702,0.7321,0.7256,0.6961,0.6552,0.672,0.6565,0.6227,0.6278,0.589,0.5282,0.5168,0.4893,0.4452,0.3798,0.3599,0.3561,1.0969,1.0949,1.0863,1.0784,1.0883,1.081,1.0619,1.0717,1.0802,1.0735,1.0528,1.0434,1.0611,1.0423,1.0377,1.0604,1.0667,1.0806,1.1137,1.1436,1.1431,1.1185,1.1308,1.131,1.1247,1.131,1.1373,1.1373,1.1615,1.1751,1.1842,1.1996,1.2366,1.3046,1.3148,1.3369,1.3597,1.3617,1.3561,1.3418,1.2749,1.2613,1.2821,1.2367,1.2175,1.2175,1.2431,1.248,1.2548,1.3017,1.3184,1.3301,1.3457,1.3574,1.3652,1.3652,1.3769,1.3805,1.3432,1.3238,1.318,1.333,1.3421,1.3578,1.4105,1.4478,1.4628,1.442,1.4585,1.4877,1.4904,1.4783,1.485,1.5508,0.0,1.4687,1.5117,1.4951,1.4883,1.5146,1.5264,1.5313,1.5313,1.5137,1.5029,1.5098,1.4793,1.4666,1.4715,1.3932,1.3124,1.2284,1.1466,1.08,1.0364,1.0104,0.9907,0.9779,0.9134,0.8678,0.835,0.7962,0.7457,0.6889,0.6962,0.6635,0.6015,0.6133,0.5812,0.522,0.5502,0.5258,0.4818,0.4591,0.4216,0.3747,1.1249,1.1243,1.1236,1.1263,1.1243,1.1169,1.1061,1.0982,1.0989,1.1041,1.0792,1.0721,1.0937,1.0869,1.0913,1.1245,1.1428,1.1643,1.197,1.2409,1.2351,1.1802,1.1802,1.1802,1.1794,1.1802,1.1926,1.2166,1.2351,1.2469,1.2646,1.2675,1.2967,1.355,1.3645,1.3793,1.4034,1.3867,1.3894,1.4061,1.2964,1.2916,1.3323,1.2629,1.2407,1.257,1.2769,1.2819,1.2867,1.3338,1.3584,1.373,1.3867,1.4014,1.4077,1.4077,1.4175,1.4336,1.4336,1.4431,1.4465,1.4196,1.4224,1.4436,1.4964,1.5282,1.5441,1.5248,1.5387,1.5586,1.5708,1.554,1.5602,1.6211,1.5781,1.5498,1.5781,1.5576,1.5508,1.5879,1.5851,1.5772,1.572,1.5615,1.5552,1.5476,1.5273,1.5158,1.5037,1.4549,1.3868,1.2996,1.2507,1.1829,1.1059,1.0751,1.0561,1.0371,0.9919,0.9588,0.9314,0.8728,0.8179,0.7588,0.7588,0.72,0.6492,0.6452,0.6102,0.5553,0.5682,0.5446,0.4956,0.5014,0.468,0.4125,1.1804,1.1623,1.1516,1.1817,1.1623,1.1523,1.1824,1.1376,1.1209,1.179,1.1176,1.086,1.1602,1.1489,1.149,1.1981,1.205,1.2243,1.2805,1.3588,1.3338,1.1864,1.1802,1.1981,1.2328,1.1981,1.2228,1.3009,1.3199,1.345,1.3734,1.3834,1.4276,1.4951,1.4573,1.4383,1.4439,1.4664,1.4431,1.38,1.3578,1.376,1.4,1.3213,1.3154,1.3516,1.3516,1.3516,1.3643,1.4492,1.4492,1.4165,1.4658,1.4492,1.4097,1.4097,1.4463,1.4805,1.4805,1.5478,1.5929,1.501,1.5107,1.5537,1.6027,1.6148,1.6078,1.5671,1.5524,1.5463,1.5595,1.5718,1.5984,1.6607,1.6738,1.6675,1.6665,1.6665,1.6812,1.6997,1.6827,1.6624,1.6347,1.6445,1.6418,1.6094,1.6143,1.6064,1.5689,1.5891,1.525,1.365,1.3815,1.3317,1.205,1.1052,1.0624,1.0624,1.0624,1.0371,0.9977,0.9767,0.93,0.8681,0.8681,0.8415,0.7971,0.7618,0.7115,0.6468,0.5838,0.5389,0.5069,0.4956,0.4897,0.4901,1.1654,1.1479,1.1594,1.2232,1.2039,1.1943,1.2315,1.222,1.2013,1.1985,1.18,1.1832,1.2056,1.2351,1.2712,1.3139,1.3504,1.3913,1.4356,1.4394,1.4112,1.3519,1.3459,1.3511,1.3511,1.3511,1.358,1.3821,1.4052,1.4172,1.4282,1.419,1.4448,1.501,1.4753,1.4838,1.5071,1.4525,1.4544,1.4838,1.3863,1.3945,1.4531,1.3975,1.3838,1.3945,1.3945,1.3945,1.3984,1.4238,1.4443,1.4668,1.5088,1.5352,1.5488,1.5488,1.5801,1.6152,1.6152,1.6338,1.6396,1.582,1.6006,1.6377,1.6504,1.6801,1.6922,1.6432,1.6587,1.6799,1.6864,1.6928,1.6977,1.7168,1.7187,1.708,1.6777,1.6665,1.6921,1.7512,1.7079,1.6872,1.7326,1.6937,1.6617,1.6543,1.6181,1.5951,1.6055,1.5864,1.5461,1.4898,1.431,1.3692,1.2903,1.2042,1.1553,1.1553,1.1553,1.1365,1.0926,1.0836,1.0208,0.9149,0.9149,0.8594,0.7792,0.7698,0.7411,0.7018,0.6639,0.627,0.5882,0.5932,0.555,0.5069,1.2253,1.2144,1.2263,1.3093,1.2899,1.2767,1.317,1.3152,1.3035,1.2892,1.3012,1.3152,1.3491,1.3708,1.401,1.4462,1.4809,1.507,1.5287,1.5037,1.4883,1.4666,1.4656,1.4538,1.43,1.4249,1.4369,1.4656,1.4715,1.4775,1.4874,1.4754,1.4888,1.5128,1.5099,1.5176,1.5371,1.4687,1.4785,1.5312,1.4199,1.4268,1.4971,1.4365,1.4238,1.4394,1.4394,1.4394,1.4414,1.458,1.4932,1.5332,1.5586,1.5977,1.6328,1.6328,1.6523,1.6728,1.6918,1.7036,1.7096,1.6882,1.6914,1.6992,1.6992,1.7324,1.751,1.708,1.7197,1.7383,1.7383,1.7383,1.7441,1.7607,1.7637,1.7539,1.7275,1.7236,1.7491,1.8187,1.7634,1.754,1.8334,1.7714,1.7236,1.7236,1.7101,1.6934,1.675,1.6522,1.6163,1.552,1.5061,1.448,1.3752,1.326,1.2658,1.1988,1.1988,1.1856,1.1545,1.1483,1.097,1.0179,0.993,0.9408,0.8728,0.8284,0.7991,0.7695,0.7225,0.6864,0.6637,0.6691,0.6372,0.5887,1.336,1.3208,1.3281,1.4196,1.4004,1.3882,1.4378,1.4253,1.4166,1.4411,1.4416,1.4729,1.5493,1.5292,1.5321,1.5836,1.5909,1.5815,1.578,1.5685,1.5587,1.5488,1.543,1.5177,1.4765,1.4478,1.4656,1.541,1.5137,1.5137,1.541,1.541,1.541,1.541,1.541,1.541,1.5381,1.4961,1.5029,1.5342,1.4521,1.4678,1.5322,1.4551,1.4492,1.4844,1.4844,1.4844,1.4902,1.5322,1.5762,1.6123,1.6123,1.6436,1.6787,1.6787,1.6816,1.6973,1.7332,1.7688,1.8056,1.8096,1.7835,1.7563,1.7507,1.7801,1.7968,1.7519,1.7441,1.7441,1.7441,1.7471,1.7627,1.8008,1.8096,1.8105,1.8076,1.8164,1.8402,1.9009,1.8517,1.8512,1.9456,1.8751,1.8212,1.8134,1.869,1.8613,1.7735,1.7745,1.7207,1.59,1.6019,1.5564,1.4538,1.4529,1.3743,1.2166,1.2166,1.2174,1.2035,1.1797,1.1644,1.1575,1.0923,1.0524,1.0336,0.9281,0.8717,0.8429,0.7697,0.7396,0.7396,0.7241,0.7192,0.7085,1.3149,1.347,1.3917,1.4698,1.4905,1.5135,1.5764,1.5528,1.5362,1.5376,1.5463,1.5606,1.5762,1.5909,1.6153,1.6456,1.6475,1.6645,1.7015,1.6393,1.5955,1.5928,1.5596,1.5352,1.5235,1.5177,1.5235,1.541,1.5352,1.5352,1.541,1.541,1.541,1.541,1.541,1.541,1.5381,1.4961,1.5029,1.5371,1.4853,1.4951,1.5391,1.5205,1.5195,1.5273,1.5273,1.5273,1.5342,1.5771,1.6221,1.6592,1.6592,1.6894,1.7246,1.7246,1.7668,1.8135,1.8201,1.8639,1.9114,1.95,1.9446,1.9041,1.8073,1.8325,1.8633,1.8026,1.7871,1.7871,1.7871,1.8144,1.8398,1.8486,1.8789,1.8887,1.8545,1.9203,1.9682,1.9661,1.938,1.9578,2.0493,1.9976,1.9584,1.9441,1.9243,1.9136,1.9121,1.8833,1.8173,1.7139,1.6878,1.6156,1.4921,1.4656,1.4172,1.358,1.358,1.3216,1.2613,1.2602,1.2169,1.159,1.0997,1.0599,1.0349,0.9676,0.9389,0.9288,0.8692,0.8355,0.8156,0.8156,0.7676,0.7085,1.3708,1.3941,1.4339,1.5463,1.5471,1.5679,1.6558,1.6524,1.6385,1.6385,1.6688,1.6889,1.6889,1.7052,1.7168,1.7334,1.7344,1.7353,1.7383,1.6953,1.6602,1.6396,1.6162,1.6045,1.6045,1.583,1.5615,1.541,1.541,1.541,1.541,1.541,1.541,1.541,1.541,1.541,1.54,1.5176,1.5215,1.5391,1.5176,1.5215,1.541,1.541,1.541,1.541,1.541,1.5664,1.6049,1.6467,1.698,1.7533,1.7533,1.7845,1.8207,1.8207,1.8654,1.9203,1.9453,1.987,2.0375,2.07,2.0913,2.0728,1.9569,1.9462,1.9562,1.939,1.9093,1.8964,1.9024,1.9011,1.9088,1.9424,1.9625,1.9767,1.9949,2.0326,2.0646,2.0782,2.0275,2.0027,2.0346,2.0549,2.0484,1.9846,1.9813,1.9791,1.9594,1.936,1.8829,1.7832,1.743,1.6759,1.5788,1.5235,1.4824,1.4647,1.4359,1.4001,1.364,1.3467,1.3116,1.2601,1.1832,1.1318,1.103,1.0204,0.9866,0.9773,0.9358,0.9093,0.8942,0.8844,0.8474,0.7937,1.4521,1.4576,1.4928,1.6122,1.614,1.6342,1.7176,1.7304,1.7304,1.7304,1.7725,1.8008,1.8008,1.8008,1.8008,1.8008,1.8008,1.7861,1.751,1.7422,1.7227,1.6855,1.6714,1.6665,1.6665,1.6367,1.5967,1.5527,1.5449,1.541,1.541,1.541,1.541,1.541,1.541,1.541,1.541,1.541,1.541,1.541,1.541,1.541,1.541,1.541,1.5459,1.5527,1.5527,1.6089,1.6901,1.7203,1.7812,1.8495,1.8495,1.8764,1.9152,1.9235,1.9594,2.0044,2.0576,2.1105,2.157,2.1787,2.2101,2.2217,2.1392,2.0855,2.0578,2.0691,2.0339,1.9991,2.0196,1.9845,1.9833,2.0463,2.0596,2.0761,2.1388,2.1441,2.1583,2.1838,2.1043,2.0396,1.9997,2.0862,2.0996,2.0107,2.0495,2.0506,1.9933,1.9868,1.9458,1.8523,1.7966,1.7405,1.6753,1.5972,1.5624,1.5586,1.5039,1.4706,1.4469,1.4181,1.401,1.3846,1.2906,1.2322,1.2057,1.1001,1.0551,1.0439,1.0001,0.9821,0.9718,0.9361,0.9159,0.9001,1.4646,1.5748,1.6558,1.6468,1.7403,1.8139,1.792,1.7872,1.7872,1.7872,1.794,1.8008,1.8008,1.8008,1.8008,1.8008,1.8008,1.7988,1.793,1.7578,1.7363,1.7305,1.6934,1.6665,1.6665,1.667,1.6426,1.6037,1.5596,1.541,1.541,1.541,1.541,1.541,1.541,1.541,1.541,1.541,1.541,1.541,1.541,1.541,1.541,1.541,1.5704,1.6157,1.6157,1.6938,1.7971,1.8035,1.8493,1.8982,1.8982,1.9023,1.9147,1.9619,2.0107,2.0576,2.1053,2.1713,2.2364,2.2641,2.2626,2.2673,2.29,2.2188,2.1296,2.0644,2.0359,2.0196,2.0196,2.0471,2.0757,2.0947,2.1501,2.1765,2.1658,2.2459,2.2633,2.1717,2.1542,2.1219,2.074,2.113,2.1273,2.1031,2.121,2.121,2.0967,2.0967,2.0504,1.9548,1.9017,1.8295,1.7206,1.6702,1.6424,1.6347,1.6133,1.5526,1.4469,1.4469,1.4419,1.4382,1.3762,1.3486,1.3354,1.2404,1.2035,1.1939,1.1208,1.0702,1.0395,0.9621,0.9413,0.951,1.5538,1.6145,1.6652,1.6865,1.7437,1.7944,1.828,1.8359,1.8359,1.8359,1.8359,1.8271,1.8037,1.8008,1.8008,1.8008,1.8008,1.8008,1.8008,1.7842,1.7734,1.7734,1.7549,1.7451,1.7451,1.7217,1.7002,1.6797,1.6113,1.5771,1.5771,1.5527,1.541,1.541,1.541,1.541,1.541,1.541,1.541,1.541,1.541,1.541,1.5439,1.5684,1.6018,1.6346,1.688,1.7636,1.8338,1.8669,1.9272,1.9889,1.969,1.9977,2.0313,2.0396,2.0946,2.1609,2.211,2.2659,2.3142,2.3356,2.3244,2.3055,2.3272,2.2966,2.2485,2.1985,2.1555,2.126,2.126,2.1148,2.1292,2.202,2.2339,2.2627,2.3229,2.3458,2.3335,2.2395,2.1896,2.1496,2.1275,2.0915,2.0816,2.1158,2.1146,2.1146,2.1221,2.1221,2.0865,2.0093,1.9622,1.895,1.7966,1.7333,1.6984,1.7075,1.656,1.6073,1.5592,1.54,1.5108,1.4845,1.4185,1.3737,1.3341,1.2739,1.2356,1.2076,1.1755,1.1351,1.0905,1.0651,1.0482,1.0364]}]]